[[{"header":{"parameterUnit":"m.s-1","parameterCategory":1,"la1":30.6,"la2":29.2853,"lo1":-89.7004,"lo2":-87.6739,"dy":0.0162,"dx":0.0183,"nx":112,"ny":82,"refTime":"2026-04-23T12:00:00:Z","depth":0,"parameterNumber":2,"parameterNumberName":"U-component_of_WINDS"},"data":[0.0,0.0,0.0,0.0,0.0,0.0,0.0,0.0,0.0,0.0,0.0,0.0,0.0,0.0,0.0,0.0,0.0,0.0,0.0,0.0,0.0,0.0,0.0,0.0,0.0,0.0,0.0,0.0,0.0,0.0,0.0,0.0,0.0,0.0,0.0,0.0,0.0,0.0,0.0,0.0,0.0,0.0,0.0,0.0,0.0,0.0,0.0,0.0,0.0,0.0,0.0,0.0,0.0,0.0,0.0,0.0,0.0,0.0,0.0,0.0,0.0,0.0,0.0,0.0,0.0,0.0,0.0,0.0,0.0,0.0,0.0,0.0,0.0,0.0,0.0,0.0,0.0,0.0,0.0,0.0,0.0,0.0,0.0,0.0,0.0,0.0,0.0,0.0,0.0,0.0,-5.8307,-5.9376,-6.2185,-6.3516,-6.2305,-6.1145,-5.9309,-5.6473,0.0,0.0,0.0,0.0,0.0,0.0,0.0,0.0,0.0,0.0,0.0,0.0,0.0,0.0,0.0,0.0,0.0,0.0,0.0,0.0,0.0,0.0,0.0,0.0,0.0,0.0,0.0,0.0,0.0,0.0,0.0,0.0,0.0,0.0,0.0,0.0,0.0,0.0,0.0,0.0,0.0,0.0,0.0,0.0,0.0,0.0,0.0,0.0,0.0,0.0,0.0,0.0,0.0,0.0,0.0,0.0,0.0,0.0,0.0,0.0,0.0,0.0,0.0,0.0,0.0,0.0,0.0,0.0,0.0,0.0,0.0,0.0,0.0,0.0,0.0,0.0,0.0,0.0,0.0,0.0,0.0,0.0,0.0,0.0,0.0,0.0,0.0,0.0,0.0,0.0,0.0,0.0,0.0,0.0,0.0,0.0,0.0,0.0,0.0,0.0,0.0,0.0,0.0,0.0,-5.8746,-6.0981,-6.2357,-6.2605,-6.1397,-6.0806,-5.929,-5.6491,0.0,0.0,0.0,0.0,0.0,0.0,0.0,0.0,0.0,0.0,0.0,0.0,0.0,0.0,0.0,0.0,0.0,0.0,0.0,0.0,0.0,0.0,0.0,0.0,0.0,0.0,0.0,0.0,0.0,0.0,0.0,0.0,0.0,0.0,0.0,0.0,0.0,0.0,0.0,0.0,0.0,0.0,0.0,0.0,0.0,0.0,0.0,0.0,0.0,0.0,0.0,0.0,0.0,0.0,0.0,0.0,0.0,0.0,0.0,0.0,0.0,0.0,0.0,0.0,0.0,0.0,0.0,0.0,0.0,0.0,0.0,0.0,0.0,0.0,0.0,0.0,0.0,0.0,0.0,0.0,0.0,0.0,0.0,0.0,0.0,0.0,0.0,0.0,0.0,0.0,0.0,0.0,0.0,0.0,0.0,0.0,0.0,0.0,0.0,0.0,0.0,0.0,0.0,-5.7601,-5.9324,-6.1325,-6.1872,-6.1758,-6.0997,-6.0171,-5.85,-5.5723,-5.3306,0.0,0.0,0.0,0.0,0.0,0.0,0.0,0.0,0.0,0.0,0.0,0.0,0.0,0.0,0.0,0.0,0.0,0.0,0.0,0.0,0.0,0.0,0.0,0.0,0.0,0.0,0.0,0.0,0.0,0.0,0.0,0.0,0.0,0.0,0.0,0.0,0.0,0.0,0.0,0.0,0.0,0.0,0.0,0.0,0.0,0.0,0.0,0.0,0.0,0.0,0.0,0.0,0.0,0.0,0.0,0.0,0.0,0.0,0.0,0.0,0.0,0.0,0.0,0.0,0.0,0.0,0.0,0.0,0.0,0.0,0.0,0.0,0.0,0.0,0.0,0.0,0.0,0.0,0.0,0.0,0.0,0.0,0.0,0.0,0.0,0.0,0.0,0.0,0.0,0.0,0.0,0.0,0.0,0.0,0.0,0.0,0.0,0.0,0.0,0.0,0.0,0.0,-5.8838,-5.9878,-6.1042,-6.1085,-6.0801,-6.0202,-5.9047,-5.7261,-5.4714,-5.2602,0.0,0.0,0.0,0.0,0.0,0.0,0.0,0.0,0.0,0.0,0.0,0.0,0.0,0.0,0.0,0.0,0.0,0.0,0.0,0.0,0.0,0.0,0.0,0.0,0.0,0.0,0.0,0.0,0.0,0.0,0.0,0.0,0.0,0.0,0.0,0.0,0.0,0.0,0.0,0.0,0.0,0.0,0.0,0.0,0.0,0.0,0.0,0.0,0.0,0.0,0.0,0.0,0.0,0.0,0.0,0.0,0.0,0.0,0.0,0.0,0.0,0.0,0.0,0.0,0.0,0.0,0.0,0.0,0.0,0.0,0.0,0.0,0.0,0.0,0.0,0.0,0.0,0.0,0.0,0.0,0.0,0.0,0.0,0.0,0.0,0.0,0.0,0.0,0.0,0.0,0.0,0.0,0.0,0.0,0.0,0.0,0.0,0.0,0.0,0.0,0.0,0.0,-5.9408,-6.036,-6.0205,-6.0017,-5.9467,-5.8386,-5.7135,-5.5612,-5.3726,-5.1201,0.0,0.0,0.0,0.0,0.0,0.0,0.0,0.0,0.0,0.0,0.0,0.0,0.0,0.0,0.0,0.0,0.0,0.0,0.0,0.0,0.0,0.0,0.0,0.0,0.0,0.0,0.0,0.0,0.0,0.0,0.0,0.0,0.0,0.0,0.0,0.0,0.0,0.0,0.0,0.0,0.0,0.0,0.0,0.0,0.0,0.0,0.0,0.0,0.0,0.0,0.0,0.0,0.0,0.0,0.0,0.0,0.0,0.0,0.0,0.0,0.0,0.0,0.0,0.0,0.0,0.0,0.0,0.0,0.0,0.0,0.0,0.0,0.0,0.0,0.0,0.0,0.0,0.0,0.0,0.0,0.0,0.0,0.0,0.0,0.0,0.0,0.0,0.0,0.0,0.0,0.0,0.0,0.0,0.0,0.0,0.0,0.0,0.0,0.0,0.0,0.0,0.0,-5.8674,-5.9791,-6.0057,-5.9877,-5.9288,-5.8181,-5.6443,-5.4622,-5.2856,0.0,0.0,0.0,0.0,0.0,0.0,0.0,0.0,0.0,0.0,0.0,0.0,0.0,0.0,0.0,0.0,0.0,0.0,0.0,0.0,0.0,0.0,0.0,0.0,0.0,0.0,0.0,0.0,0.0,0.0,0.0,0.0,0.0,0.0,0.0,0.0,0.0,0.0,0.0,0.0,0.0,0.0,0.0,0.0,0.0,0.0,0.0,0.0,0.0,0.0,0.0,0.0,0.0,0.0,0.0,0.0,0.0,0.0,0.0,0.0,0.0,0.0,0.0,0.0,0.0,0.0,0.0,0.0,0.0,0.0,0.0,0.0,0.0,0.0,0.0,0.0,0.0,0.0,0.0,0.0,0.0,0.0,0.0,0.0,0.0,0.0,0.0,0.0,0.0,0.0,0.0,0.0,0.0,0.0,0.0,0.0,0.0,0.0,0.0,0.0,0.0,0.0,-5.6117,-5.8042,-5.936,-5.9691,-5.9479,-5.8873,-5.7768,-5.5734,-5.3769,-5.2024,0.0,0.0,0.0,0.0,0.0,0.0,0.0,0.0,0.0,0.0,0.0,0.0,0.0,0.0,0.0,0.0,0.0,0.0,0.0,0.0,0.0,0.0,0.0,0.0,0.0,0.0,0.0,0.0,0.0,0.0,0.0,0.0,0.0,0.0,0.0,0.0,0.0,0.0,0.0,0.0,0.0,0.0,0.0,0.0,0.0,0.0,0.0,0.0,0.0,0.0,0.0,0.0,0.0,0.0,0.0,0.0,0.0,0.0,0.0,0.0,0.0,0.0,0.0,0.0,0.0,0.0,0.0,0.0,0.0,0.0,0.0,0.0,0.0,0.0,0.0,0.0,0.0,0.0,0.0,0.0,0.0,0.0,0.0,0.0,0.0,0.0,0.0,0.0,0.0,0.0,0.0,0.0,0.0,0.0,0.0,0.0,0.0,0.0,0.0,0.0,0.0,0.0,-5.5286,-5.7697,-5.9165,-5.891,-5.8653,-5.8032,-5.6884,-5.4895,-5.2957,0.0,0.0,0.0,0.0,0.0,0.0,0.0,0.0,0.0,0.0,0.0,0.0,0.0,0.0,0.0,0.0,0.0,0.0,0.0,0.0,0.0,0.0,0.0,0.0,0.0,0.0,0.0,0.0,0.0,0.0,0.0,0.0,0.0,0.0,0.0,0.0,0.0,0.0,0.0,0.0,0.0,0.0,0.0,0.0,0.0,0.0,0.0,0.0,0.0,0.0,0.0,0.0,0.0,0.0,0.0,0.0,0.0,0.0,0.0,0.0,0.0,0.0,0.0,0.0,0.0,0.0,0.0,0.0,0.0,0.0,0.0,0.0,0.0,0.0,0.0,0.0,0.0,0.0,0.0,0.0,0.0,0.0,0.0,0.0,0.0,0.0,0.0,0.0,0.0,0.0,0.0,0.0,0.0,0.0,0.0,0.0,0.0,0.0,0.0,0.0,0.0,0.0,0.0,-5.4441,-5.6371,-5.7692,-5.808,-5.7938,-5.7368,-5.6309,-5.4287,-5.2342,-5.0635,0.0,0.0,0.0,0.0,0.0,0.0,0.0,0.0,0.0,0.0,0.0,0.0,0.0,0.0,0.0,0.0,0.0,0.0,0.0,0.0,0.0,0.0,0.0,0.0,0.0,0.0,0.0,0.0,0.0,0.0,0.0,0.0,0.0,0.0,0.0,0.0,0.0,0.0,0.0,0.0,0.0,0.0,0.0,0.0,0.0,0.0,0.0,0.0,0.0,0.0,0.0,0.0,0.0,0.0,0.0,0.0,0.0,0.0,0.0,0.0,0.0,0.0,0.0,0.0,0.0,0.0,0.0,0.0,0.0,0.0,0.0,0.0,0.0,0.0,0.0,0.0,0.0,0.0,0.0,0.0,0.0,0.0,0.0,0.0,0.0,0.0,0.0,0.0,0.0,0.0,0.0,0.0,0.0,0.0,0.0,0.0,0.0,0.0,0.0,0.0,0.0,0.0,-5.3053,-5.509,-5.6592,-5.7289,-5.7251,-5.6754,-5.5742,-5.4091,-5.2215,-5.0088,0.0,0.0,0.0,0.0,0.0,0.0,0.0,0.0,0.0,0.0,0.0,0.0,0.0,0.0,0.0,0.0,0.0,0.0,0.0,0.0,0.0,0.0,0.0,0.0,0.0,0.0,0.0,0.0,0.0,0.0,0.0,0.0,0.0,0.0,0.0,0.0,0.0,0.0,0.0,0.0,0.0,0.0,0.0,0.0,0.0,0.0,0.0,0.0,0.0,0.0,0.0,0.0,0.0,0.0,0.0,0.0,0.0,0.0,0.0,0.0,0.0,0.0,0.0,0.0,0.0,0.0,0.0,0.0,0.0,0.0,0.0,0.0,0.0,0.0,0.0,0.0,0.0,0.0,0.0,0.0,0.0,0.0,0.0,0.0,0.0,0.0,0.0,0.0,0.0,0.0,0.0,0.0,0.0,0.0,0.0,0.0,0.0,0.0,0.0,0.0,0.0,0.0,-5.1381,-5.3848,-5.5616,-5.6287,-5.6358,-5.5944,-5.4964,-5.396,-5.2208,-4.9483,0.0,0.0,0.0,0.0,0.0,0.0,0.0,0.0,0.0,0.0,0.0,0.0,0.0,0.0,0.0,0.0,0.0,0.0,0.0,0.0,0.0,0.0,0.0,0.0,0.0,0.0,0.0,0.0,0.0,0.0,0.0,0.0,0.0,0.0,0.0,0.0,0.0,0.0,0.0,0.0,0.0,0.0,0.0,0.0,0.0,0.0,0.0,0.0,0.0,0.0,0.0,0.0,0.0,0.0,0.0,0.0,0.0,0.0,0.0,0.0,-5.7392,0.0,0.0,0.0,0.0,0.0,0.0,0.0,0.0,0.0,0.0,0.0,0.0,0.0,0.0,0.0,0.0,0.0,0.0,0.0,0.0,0.0,0.0,0.0,0.0,0.0,0.0,0.0,0.0,0.0,0.0,0.0,0.0,0.0,0.0,0.0,0.0,0.0,0.0,0.0,0.0,0.0,-5.0692,-5.2506,-5.3692,-5.3843,-5.3771,-5.3599,-5.3309,-5.2308,-5.0832,-4.8739,-4.6727,0.0,0.0,0.0,0.0,0.0,0.0,0.0,0.0,0.0,0.0,0.0,0.0,0.0,0.0,0.0,0.0,0.0,0.0,0.0,0.0,0.0,0.0,0.0,0.0,0.0,0.0,0.0,0.0,0.0,0.0,0.0,0.0,0.0,0.0,0.0,0.0,0.0,0.0,0.0,0.0,0.0,0.0,0.0,0.0,0.0,0.0,0.0,0.0,0.0,0.0,0.0,0.0,0.0,0.0,0.0,0.0,0.0,0.0,0.0,0.0,-5.7385,0.0,0.0,0.0,0.0,0.0,0.0,0.0,0.0,0.0,0.0,0.0,0.0,0.0,0.0,0.0,0.0,0.0,0.0,0.0,0.0,0.0,0.0,0.0,0.0,0.0,0.0,0.0,0.0,0.0,0.0,0.0,0.0,0.0,0.0,0.0,0.0,0.0,0.0,0.0,0.0,-4.9798,-5.1182,-5.2083,-5.2447,-5.2401,-5.2181,-5.1694,-5.1514,-5.0418,-4.8069,-4.6426,0.0,0.0,0.0,0.0,0.0,0.0,0.0,0.0,0.0,0.0,0.0,0.0,0.0,0.0,0.0,0.0,0.0,0.0,0.0,0.0,0.0,0.0,0.0,0.0,0.0,0.0,0.0,0.0,0.0,0.0,0.0,0.0,0.0,0.0,0.0,0.0,0.0,0.0,0.0,0.0,0.0,0.0,0.0,0.0,0.0,0.0,0.0,0.0,0.0,0.0,0.0,0.0,0.0,-5.8262,-5.8671,-5.9329,-5.9276,-5.9336,-5.9424,-5.8432,-5.8318,-5.8738,-5.7901,0.0,0.0,0.0,0.0,0.0,0.0,0.0,0.0,0.0,0.0,0.0,0.0,0.0,0.0,0.0,0.0,0.0,0.0,0.0,0.0,0.0,0.0,0.0,0.0,-5.0485,-4.9053,0.0,0.0,0.0,0.0,0.0,0.0,0.0,0.0,0.0,0.0,0.0,0.0,-4.8875,-4.9933,-5.0769,-5.1526,-5.1612,-5.1272,-5.0503,-5.1074,-5.0328,-4.7618,-4.6342,-4.4848,0.0,0.0,0.0,0.0,0.0,0.0,0.0,0.0,0.0,0.0,0.0,0.0,0.0,0.0,0.0,0.0,0.0,0.0,0.0,0.0,0.0,0.0,0.0,0.0,0.0,0.0,0.0,0.0,0.0,0.0,0.0,0.0,-5.7109,-5.6585,0.0,0.0,0.0,0.0,0.0,0.0,0.0,0.0,0.0,0.0,0.0,0.0,0.0,-5.7771,-5.7908,-5.8535,-5.8906,-5.9043,-5.9746,-6.0136,-6.0231,-6.0226,-6.0628,-6.1282,-6.0402,0.0,-5.8787,-5.8584,0.0,0.0,0.0,0.0,0.0,0.0,0.0,0.0,0.0,0.0,0.0,0.0,0.0,0.0,0.0,0.0,0.0,0.0,0.0,0.0,0.0,0.0,-5.1884,-5.1884,-5.0606,-4.9548,0.0,-4.9623,-4.8564,-4.7079,-4.7318,0.0,0.0,0.0,0.0,0.0,0.0,0.0,-4.8048,-4.9029,-4.9894,-5.076,-5.0787,-5.0708,-5.0582,-5.0583,-4.9721,-4.7703,-4.6448,-4.4946,-4.3052,-4.1816,0.0,0.0,0.0,0.0,0.0,0.0,0.0,0.0,0.0,0.0,0.0,0.0,0.0,0.0,0.0,0.0,0.0,0.0,0.0,0.0,0.0,0.0,0.0,0.0,0.0,0.0,0.0,0.0,0.0,-5.6712,-5.7544,-5.7157,-5.735,-5.7223,0.0,0.0,0.0,0.0,0.0,0.0,0.0,0.0,0.0,-5.7244,-5.7642,-5.8076,-5.8564,-5.896,-5.9391,-5.988,-6.0233,-6.0664,-6.1133,-6.1132,-6.1345,-6.1675,-6.1302,-6.0856,-6.036,-5.9294,-5.8614,-5.8097,0.0,0.0,0.0,0.0,-5.5439,-5.5372,-5.492,-5.5017,-5.5326,-5.5326,0.0,0.0,0.0,0.0,0.0,0.0,0.0,0.0,0.0,0.0,-5.1221,-5.1221,-5.0298,-4.949,-4.9894,-5.0019,-4.9682,0.0,-4.8164,-4.7605,-4.6028,0.0,0.0,0.0,0.0,-4.6028,-4.7278,-4.7759,-4.8144,-4.8529,-4.8548,-4.852,-4.8471,-4.8824,-4.8452,-4.7018,-4.6372,-4.54,-4.3955,-4.2941,-4.2201,0.0,0.0,0.0,0.0,0.0,0.0,0.0,0.0,0.0,0.0,0.0,0.0,0.0,0.0,0.0,0.0,0.0,0.0,0.0,0.0,0.0,0.0,0.0,0.0,0.0,0.0,0.0,0.0,-5.7424,-5.7895,-5.7877,-5.7767,-5.7384,0.0,0.0,0.0,0.0,0.0,0.0,-5.6875,-5.6506,-5.684,-5.8089,-5.8353,-5.8788,-5.9431,-5.9655,-6.0087,-6.0732,-6.0738,-6.1072,-6.1697,-6.1699,-6.1699,-6.1699,-6.1699,-6.1698,-6.1573,-5.9992,-5.9289,-5.906,-5.7178,-5.6451,-5.6377,-5.5879,-5.5824,-5.5969,-5.572,-5.5895,-5.6223,-5.5991,-5.5181,-5.4168,-5.3532,0.0,0.0,0.0,0.0,-5.2223,-5.2011,-5.1328,-5.0693,-5.0712,-4.9865,-4.9183,-4.9644,-5.0067,-5.0192,0.0,-4.8702,-4.7836,-4.7038,0.0,0.0,0.0,0.0,-4.5913,-4.6797,-4.6904,-4.6981,-4.7192,-4.7212,-4.7183,-4.7146,-4.7674,-4.7558,-4.6547,-4.6313,-4.5778,-4.4732,-4.3968,-4.342,-4.3077,0.0,0.0,0.0,0.0,0.0,0.0,0.0,0.0,0.0,0.0,0.0,0.0,0.0,0.0,0.0,0.0,0.0,0.0,0.0,0.0,0.0,0.0,0.0,0.0,0.0,0.0,0.0,0.0,0.0,-5.8649,-5.8538,0.0,0.0,0.0,0.0,-5.6393,-5.7198,-5.7684,-5.7738,-5.8473,-5.8946,-5.9024,-5.9837,-6.0292,-6.0331,-6.1159,-6.1592,-6.1631,-6.1637,-6.1658,-6.1697,-6.1699,-6.1699,-6.1699,-6.1699,-6.1699,-6.1618,-6.0641,-6.0204,-5.9942,-5.8142,-5.7397,-5.7122,-5.5465,-5.5346,-5.5887,-5.5114,-5.5907,-5.7077,-5.6255,-5.4856,-5.3458,-5.3402,-5.2758,0.0,0.0,-5.3281,-5.3127,-5.2297,-5.1402,-5.071,-5.0701,-4.9412,-4.8625,-5.0289,-5.001,-4.9452,0.0,-4.8702,-4.7836,-4.7038,0.0,-4.5556,-4.5594,-4.5594,-4.5913,-4.6797,-4.6904,-4.7192,-4.7971,-4.8048,-4.8048,-4.8019,-4.802,-4.7616,-4.6751,-4.6446,-4.5905,-4.5017,-4.4745,-4.4188,-4.3294,-4.2262,0.0,0.0,0.0,0.0,0.0,0.0,0.0,0.0,0.0,0.0,0.0,0.0,0.0,0.0,0.0,0.0,0.0,0.0,0.0,0.0,0.0,0.0,0.0,0.0,0.0,0.0,0.0,0.0,-5.9282,-5.9224,0.0,-5.8114,-5.7323,-5.7152,-5.7884,-5.7761,-5.818,-5.9359,-5.9736,-6.0198,-6.0761,-6.0534,-6.0673,-6.1237,-6.0989,-6.1147,-6.1692,-6.1136,-6.0867,-6.0848,-6.0329,-6.0097,-6.0097,-6.0097,-6.0097,-6.0078,-5.9724,-5.9548,-5.9368,-5.813,-5.7245,-5.6608,-5.5908,-5.5827,-5.6026,-5.5692,-5.5954,-5.6332,-5.5509,-5.4392,-5.3391,-5.3411,-5.3144,-5.2827,-5.2615,-5.2557,-5.2364,-5.1496,-5.0188,-4.9227,-4.9796,-4.8989,-4.8279,-4.8894,-4.9221,-4.9221,-4.8663,-4.8317,-4.8009,-4.7721,-4.6047,-4.4759,-4.4759,-4.4759,-4.4874,-4.5182,-4.572,-4.6163,-4.6451,-4.649,-4.649,-4.649,-4.6481,-4.6291,-4.5956,-4.5841,-4.5626,-4.5265,-4.5181,-4.4939,-4.4464,-4.3472,-4.2505,0.0,0.0,0.0,0.0,0.0,0.0,0.0,0.0,0.0,0.0,0.0,0.0,0.0,0.0,0.0,0.0,0.0,0.0,0.0,0.0,0.0,0.0,0.0,0.0,0.0,-5.8749,-5.9196,-6.0022,-5.9752,-5.9315,-5.8853,-5.8066,-5.7925,-5.868,-5.8524,-5.8954,-6.0196,-6.0614,-6.0946,-6.1244,-6.0703,-6.0549,-6.082,-6.0256,-6.0256,-6.082,-6.0247,-5.996,-5.994,-5.9427,-5.9197,-5.9197,-5.9199,-5.9199,-5.9199,-5.9199,-5.9,-5.8621,-5.7954,-5.7325,-5.6725,-5.6284,-5.6129,-5.6086,-5.601,-5.5625,-5.5064,-5.4523,-5.3752,-5.3011,-5.3011,-5.3159,-5.3258,-5.2717,-5.2563,-5.2292,-5.1134,-4.998,-4.9174,-4.9474,-4.8822,-4.8228,-4.8517,-4.8565,-4.8393,-4.7816,-4.7461,-4.7259,-4.7259,-4.5393,-4.3989,-4.4259,-4.4297,-4.4412,-4.4701,-4.5248,-4.5594,-4.5594,-4.5594,-4.5594,-4.5594,-4.5594,-4.5577,-4.555,-4.5513,-4.5467,-4.5438,-4.5409,-4.5328,-4.517,-4.3863,-4.2453,-4.095,0.0,0.0,0.0,0.0,0.0,0.0,0.0,0.0,0.0,0.0,0.0,0.0,0.0,0.0,0.0,0.0,0.0,0.0,0.0,0.0,0.0,0.0,0.0,-5.8394,-5.9204,-5.9982,-6.0795,-6.0084,-5.9573,-5.9628,-5.8911,-5.8501,-5.8667,-5.9483,-6.0061,-6.0238,-6.1073,-6.1192,-6.0411,-6.0346,-5.9924,-5.9102,-5.9063,-5.9063,-5.9104,-5.9078,-5.9062,-5.9063,-5.9095,-5.9119,-5.9119,-5.9121,-5.9121,-5.9121,-5.9121,-5.8613,-5.7849,-5.7732,-5.7687,-5.755,-5.6561,-5.6154,-5.6087,-5.6026,-5.4909,-5.3498,-5.3498,-5.2898,-5.221,-5.221,-5.2801,-5.3478,-5.3459,-5.344,-5.3014,-5.1304,-5.0835,-5.061,-4.976,-4.8905,-4.8505,-4.926,-4.8069,-4.684,-4.6821,-4.6102,-4.5498,-4.5556,-4.4182,-4.3355,-4.4143,-4.4278,0.0,-4.546,-4.5575,-4.5594,-4.5594,-4.5575,-4.5556,-4.5556,-4.5537,-4.5518,-4.5518,-4.5454,-4.5427,-4.5427,-4.5371,-4.5282,-4.5231,-4.3357,-4.112,-3.8568,0.0,0.0,0.0,0.0,0.0,0.0,0.0,0.0,0.0,0.0,0.0,0.0,0.0,0.0,0.0,0.0,0.0,0.0,0.0,0.0,0.0,-5.6862,-5.8245,-5.9097,-5.9414,-5.9865,-6.0727,-6.06,-6.0446,-6.0477,-5.9699,-5.9496,-6.0219,-6.0005,-6.0189,-6.0955,-6.0735,-6.0512,-6.0334,-5.9151,-5.8695,-5.9102,-5.848,-5.848,-5.9083,-5.8465,-5.8154,-5.8135,-5.756,-5.731,-5.7312,-5.7301,-5.7303,-5.7304,-5.7304,-5.7168,-5.7011,-5.755,-5.7389,-5.6794,-5.6455,-5.6238,-5.6094,-5.6078,-5.4934,-5.3498,-5.3498,-5.2898,-5.221,-5.221,-5.2801,-5.3362,-5.2751,-5.2105,-5.137,-5.0306,-4.9521,-4.8948,-4.8717,-4.848,-4.8197,-4.7775,-4.6805,-4.5847,-4.5211,-4.3869,-4.3239,-4.4451,-4.3797,-4.3181,-4.3393,-4.3932,0.0,-4.4624,-4.521,-4.5594,-4.5594,-4.5037,-4.4662,-4.4662,-4.4124,-4.3797,-4.3797,-4.3769,-4.3744,-4.3689,-4.3663,-4.3608,-4.3484,-4.2344,-4.111,0.0,0.0,0.0,0.0,0.0,0.0,0.0,0.0,0.0,0.0,0.0,0.0,0.0,0.0,0.0,0.0,0.0,0.0,0.0,0.0,0.0,0.0,-5.7706,-5.9088,-5.9935,-6.0031,-6.0223,-6.0742,-6.08,-6.08,-6.08,-6.0339,-6.0277,-6.0858,-6.0498,-6.0401,-6.0697,-6.0326,-5.9834,-5.9237,-5.8289,-5.786,-5.8002,-5.7541,-5.7543,-5.805,-5.7543,-5.7309,-5.7289,-5.6811,-5.6602,-5.6602,-5.6596,-5.6599,-5.6599,-5.6601,-5.6601,0.0,0.0,0.0,0.0,0.0,-5.605,-5.5603,-5.5602,-5.4444,-5.2956,-5.2956,-5.2376,-5.166,-5.166,-5.1776,-5.1796,-5.1293,-5.0519,-4.9745,-4.9281,-4.8744,-4.8342,-4.8342,-4.7778,-4.7106,-4.6615,-4.5252,-4.3995,-4.3493,-4.2264,0.0,-4.2571,-4.2632,-4.2681,-4.3047,-4.3778,-4.4432,-4.4797,-4.4979,-4.5056,-4.5056,-4.4297,-4.3797,-4.3797,-4.3374,0.0,0.0,0.0,-4.306,-4.2998,-4.2981,0.0,0.0,0.0,0.0,0.0,0.0,0.0,0.0,-3.8948,-3.9593,0.0,0.0,0.0,0.0,0.0,0.0,0.0,0.0,0.0,0.0,0.0,0.0,0.0,0.0,0.0,0.0,-5.8473,-5.98,-6.0685,-6.08,-6.08,-6.08,-6.08,-6.08,-6.08,-6.08,-6.0823,-6.088,-6.0809,-6.0479,-5.9916,0.0,0.0,0.0,0.0,-5.7268,-5.6503,-5.658,-5.6606,-5.6606,-5.6606,-5.6606,-5.6606,-5.6596,-5.66,-5.66,-5.6595,-5.6599,-5.6599,-5.6601,-5.6601,-5.6601,-5.6601,-5.66,-5.6588,-5.6459,-5.577,-5.4899,-5.4904,0.0,0.0,-5.221,-5.1602,-5.0898,-5.0898,-5.0337,-4.9707,-4.9707,-4.901,-4.8275,-4.8372,-4.8333,-4.8256,-4.8256,-4.6999,-4.5787,-4.5691,-4.3722,-4.1994,-4.1994,-4.1236,-4.0607,-4.0607,-4.1359,-4.222,-4.2989,-4.3874,-4.4682,-4.5364,-4.4701,-4.4124,-4.4028,0.0,0.0,-4.2662,-4.2585,-4.2527,-4.2527,-4.2624,-4.2684,-4.2719,-4.2647,-4.2583,-4.2537,-4.1753,-4.1017,-4.0301,-4.0301,-3.99,-3.9145,-3.9145,-3.9565,0.0,0.0,0.0,0.0,0.0,0.0,0.0,0.0,0.0,0.0,0.0,0.0,0.0,0.0,0.0,-5.7761,-5.8877,-5.98,-6.0685,-6.08,-6.08,-6.08,-6.08,-6.08,-6.08,-6.08,-6.0812,-6.0823,-6.0181,-5.9755,-5.9736,-5.8468,-5.7684,-5.7547,-5.6919,-5.6554,-5.6508,-5.6575,-5.6606,-5.6606,0.0,0.0,-5.6606,-5.6608,-5.6608,-5.6591,-5.6609,-5.6594,-5.6595,-5.6601,-5.6601,-5.6601,-5.6601,-5.6598,-5.6589,-5.65,-5.584,-5.4964,-5.4912,-5.3722,-5.221,-5.221,-5.1602,-5.0898,-5.0898,-5.0337,0.0,-4.9707,-4.8566,-4.7502,-4.8217,-4.7869,-4.7347,-4.7347,-4.6561,-4.5633,-4.4968,-4.3329,-4.1994,-4.1994,-4.1236,-4.0607,-4.0607,-4.184,-4.2912,-4.3066,-4.4374,-4.5171,-4.4624,-4.3835,-4.3066,-4.2354,-4.0931,-4.0035,-4.0035,-3.9392,-3.8988,-3.8988,-3.9642,-4.0315,-4.0962,-4.0918,-4.0886,-4.0858,-4.0653,-4.0454,-4.0301,-4.0301,-4.0205,-4.0053,-4.0053,-4.0129,0.0,0.0,0.0,0.0,0.0,0.0,0.0,0.0,0.0,0.0,0.0,-5.3042,-5.4273,0.0,-5.6915,-5.8627,-5.9608,-6.03,-6.0742,-6.08,-6.08,-6.08,-6.08,-6.08,-6.08,-6.08,-6.0608,-6.0185,-5.9742,-5.918,-5.8449,-5.7593,-5.7037,-5.681,-5.6446,-5.6305,-5.6441,-5.6527,-5.655,-5.6558,-5.6582,-5.6606,-5.6606,-5.6606,-5.6352,-5.5944,-5.5942,-5.5695,-5.5305,-5.5292,-5.5293,-5.5293,-5.5293,-5.5565,-5.5933,-5.5864,-5.4966,-5.3735,-5.3668,-5.2729,-5.1544,-5.1544,-5.1254,-5.0898,-5.0898,-5.0035,-4.9049,-4.9049,-4.7792,-4.6748,-4.8063,-4.7424,-4.6561,-4.6999,-4.578,-4.4311,-4.3479,-4.2305,-4.1403,-4.1403,-4.0982,-4.0598,-4.0598,-4.1266,-4.1797,-4.1797,-4.2874,-4.3374,-4.2516,-4.17,-4.1027,-4.0604,-3.9411,-3.8642,-3.8642,-3.8257,-3.8007,-3.8007,-3.8411,-3.8834,-3.9219,-3.9169,-3.9339,-3.9744,-3.9724,-3.9908,-4.0301,-4.0301,-4.0301,-4.0301,-4.0301,-4.0301,0.0,0.0,0.0,0.0,0.0,0.0,0.0,-4.913,-4.9938,-5.192,-5.2791,-5.3703,-5.5395,-5.6549,-5.775,-5.9261,-6.0223,-6.08,-6.08,-6.08,-6.08,-6.08,-6.08,-6.08,-6.08,-6.08,-6.0435,-5.9569,-5.9358,-5.863,-5.7153,-5.6925,-5.6589,-5.6076,-5.6117,-5.6207,-5.6368,-5.6422,-5.6387,-5.6249,-5.6326,-5.6255,-5.6098,-5.6098,-5.5708,-5.5047,-5.5043,-5.466,-5.3998,-5.4003,-5.4004,-5.4004,-5.4004,-5.4336,-5.4804,-5.4922,-5.3919,-5.2481,-5.2414,-5.1735,-5.0898,-5.0898,-5.0782,-5.0666,-5.0666,-4.9494,-4.814,-4.814,-4.6999,-4.6155,-4.7734,-4.6864,-4.578,-4.6631,-4.4891,-4.286,-4.2144,-4.1371,-4.0797,-4.0797,-4.0681,-4.0595,-4.0595,-4.0414,-4.0323,-4.0477,-4.1104,-4.1239,-4.0381,-3.9554,-3.8977,-3.8815,-3.8027,-3.7507,-3.7507,-3.7507,-3.7584,-3.7738,-3.7757,-3.7815,-3.7988,-3.7943,-3.8212,-3.8851,-3.8867,-3.9179,-3.9832,-3.9995,-4.0071,-4.0071,-4.0234,-4.0301,-4.6308,-4.6871,-4.7275,-4.6481,-4.6899,-4.7898,0.0,-4.913,-4.9417,-5.2527,-5.3186,-5.3703,-5.5395,-5.7049,-5.8454,-5.9358,-6.0223,-6.08,-6.08,-6.08,-6.08,-6.08,-6.08,-6.08,-6.08,-6.08,-6.0435,-5.9569,-5.8838,-5.8011,-5.706,-5.6282,-5.5873,-5.5914,-5.5937,-5.6021,-5.6213,-5.6291,-5.5985,-5.5357,-5.5404,-5.5044,-5.4283,-5.4283,-5.4244,-5.4147,-5.4158,-5.4092,-5.4002,-5.4002,-5.4003,-5.4004,-5.4004,-5.3594,-5.3086,-5.3849,-5.3432,-5.2481,-5.2414,-5.1735,-5.0898,-5.0898,-5.0415,-4.9842,-4.9842,-4.8624,-4.725,-4.725,-4.6561,-4.602,-4.698,-4.5993,-4.4949,-4.5742,-4.4001,-4.2125,-4.2028,-4.1371,-4.0797,-4.0797,-4.0681,-4.0595,-4.0595,-3.9952,-3.9688,-4.04,-4.0573,-4.0342,-3.9534,-3.8681,-3.7853,-3.7065,-3.625,-3.5788,-3.5788,-3.5788,-3.6077,-3.6788,-3.6846,-3.7199,-3.7969,-3.7943,-3.7932,-3.8028,-3.8027,-3.8079,-3.8167,-3.8891,-3.9237,-3.9256,-3.9976,-4.0301,-4.5547,-4.6542,-4.7399,-4.6512,-4.7253,-4.8359,-4.8991,-4.9504,-5.0527,-5.288,-5.4053,-5.5184,-5.6896,-5.8184,-5.9281,-6.0127,-6.055,-6.08,-6.08,-6.08,-6.08,-6.08,-6.08,-6.08,-6.08,-6.08,-6.0242,-5.8896,-5.8492,-5.7703,-5.6329,-5.5895,-5.5745,-5.5846,-5.5875,-5.5982,-5.6146,-5.6247,-5.5929,-5.52,-5.5265,-5.483,-5.401,-5.401,-5.3719,-5.3217,-5.2715,-5.2491,-5.2498,-5.2498,-5.2499,-5.248,-5.248,-5.2266,-5.205,-5.2911,-5.2612,-5.1736,-5.1669,-5.1327,-5.0821,-5.0337,-4.9977,-4.961,-4.9107,-4.8082,-4.7096,-4.7096,-4.6464,-4.5884,-4.6252,-4.5471,-4.4562,-4.4388,-4.3131,-4.1874,-4.139,-4.1048,-4.0797,-4.0797,-4.0681,-4.0595,-4.0595,-3.9471,-3.8661,-3.8988,-3.8604,-3.8007,-3.7199,-3.6776,-3.6404,-3.6038,-3.5692,-3.55,-3.55,-3.55,-3.5635,-3.5981,-3.6,-3.6173,-3.6519,-3.6524,-3.6714,-3.7191,-3.7195,-3.7429,-3.7896,-3.8243,-3.864,-3.9112,-3.9438,-3.9851,-4.4922,-4.5918,-4.6797,-4.6403,-4.7152,-4.8177,-4.8845,-4.9646,-5.0903,-5.3271,-5.4449,-5.5705,-5.7896,-5.8781,-5.9531,-6.0608,-6.08,-6.08,-6.08,-6.08,-6.08,-6.08,-6.08,-6.08,-6.08,-6.08,-6.0108,-5.8434,-5.83,-5.755,-5.578,-5.5703,-5.5724,-5.5766,-5.5826,-5.5923,-5.6064,-5.5968,-5.5531,-5.4808,-5.4655,-5.4127,-5.3288,-5.3288,-5.294,-5.2303,-5.1678,-5.1394,-5.1403,-5.1403,-5.1405,-5.1406,-5.1406,-5.1406,-5.1484,-5.2115,-5.1862,-5.1226,-5.1146,-5.0888,-5.0511,-4.9903,-4.9366,-4.8875,-4.8237,-4.7424,-4.6728,-4.6728,-4.629,-4.5749,-4.5529,-4.4852,-4.402,-4.315,-4.2299,-4.1506,-4.0932,-4.0797,-4.0797,-4.0797,-4.0681,-4.0537,-4.0305,-3.9008,-3.7911,-3.768,-3.6923,-3.6154,-3.5577,-3.55,-3.55,-3.55,-3.55,-3.55,-3.55,-3.55,-3.55,-3.55,-3.55,-3.55,-3.55,-3.55,-3.5775,-3.6368,-3.6368,-3.6661,-3.7237,-3.7459,-3.7857,-3.8438,-3.8891,-3.9419,-4.4766,-4.5039,-4.5273,-4.6092,-4.6282,-4.6926,-4.938,-4.9245,-4.973,-5.3823,-5.3975,-5.438,-5.7695,-5.8319,-5.8877,-6.0531,-6.08,-6.08,-6.08,-6.08,-6.08,-6.08,-6.08,-6.08,-6.08,-6.08,-6.0108,-5.8434,-5.83,-5.755,-5.578,-5.5703,-5.5703,-5.5714,-5.5714,-5.5798,-5.5993,-5.5297,-5.4577,-5.3825,-5.3125,-5.2312,-5.1472,-5.1472,-5.1453,-5.1433,-5.1414,-5.1405,-5.1398,-5.1398,-5.1403,-5.1406,-5.1406,-5.1406,-5.1406,-5.1421,-5.1379,-5.1284,-5.1224,-5.0612,-4.9814,-4.9722,-4.8563,-4.7173,-4.7154,-4.6542,-4.5845,-4.5845,-4.5826,-4.5633,-4.4833,-4.4001,-4.3131,-4.2241,-4.1409,-4.0835,-4.0816,-4.0797,-4.0797,-4.0797,-4.0681,-4.0344,-3.9572,-3.8642,-3.7719,-3.6865,-3.6058,-3.5538,-3.55,-3.55,-3.55,-3.55,-3.55,-3.55,-3.55,-3.55,-3.55,-3.55,-3.55,-3.55,-3.55,-3.55,-3.5519,-3.5538,-3.5538,-3.5558,-3.557,-3.6368,-3.6757,-3.6807,-3.8369,-3.9112,-4.4922,-4.543,-4.5937,-4.623,-4.6718,-4.7495,-4.8896,-4.9289,-5.0242,-5.3333,-5.4036,-5.4968,-5.7777,-5.8745,-5.9473,-6.0608,-6.08,-6.08,-6.08,-6.08,-6.08,-6.08,-6.08,-6.08,-6.08,-6.08,0.0,-5.8434,-5.83,-5.755,-5.578,-5.5703,-5.5703,-5.5703,-5.5703,-5.5518,-5.5133,-5.4987,-5.4266,-5.2991,-5.2208,-5.1687,-5.1394,-5.1394,-5.1394,-5.1394,-5.1394,-5.1405,-5.1398,-5.1398,-5.1403,-5.1406,-5.1406,-5.1406,-5.1348,-5.0799,-5.0557,-5.0498,-5.0439,-4.9751,-4.8844,-4.8231,-4.7616,-4.698,-4.6406,-4.6039,-4.5807,-4.5807,-4.5413,-4.4813,-4.3962,-4.3092,-4.2222,-4.139,-4.1009,-4.0797,-4.0797,-4.0797,-4.0797,-4.0797,-4.0739,-4.039,-3.9541,-3.8658,-3.7562,-3.6122,-3.5673,-3.55,-3.55,-3.55,-3.55,-3.55,-3.55,-3.55,-3.55,-3.55,-3.55,-3.55,-3.55,-3.55,-3.55,-3.55,-3.55,-3.55,-3.55,-3.55,-3.55,-3.5775,-3.615,-3.6661,-3.7773,-3.8574,-4.4922,-4.541,-4.5918,-4.6211,-4.6719,-4.7421,-4.8542,-4.9118,-5.0216,-5.3052,-5.3894,-5.4979,-5.7821,-5.874,-5.9454,-6.0608,-6.08,-6.08,-6.08,-6.08,-6.08,-6.08,-6.08,-6.08,-6.08,-6.08,-6.0108,-5.8434,-5.83,-5.755,-5.578,-5.5703,-5.5703,-5.5703,-5.5415,-5.5094,-5.4697,-5.4231,-5.3374,-5.2159,-5.1652,-5.1394,-5.1394,-5.1394,-5.1394,-5.1394,-5.1394,-5.1405,-5.1398,-5.1398,-5.1403,-5.1406,-5.1406,-5.1211,-5.0918,-5.039,-4.9784,-4.9232,-4.9488,-4.8923,-4.8001,-4.7442,-4.7015,-4.6591,-4.6042,-4.5854,-4.5841,-4.5847,-4.5233,-4.44,-4.3537,-4.2647,-4.1796,-4.099,-4.0797,-4.0797,-4.0797,-4.0797,-4.0797,-4.0797,-4.0746,-4.0333,-3.9174,-3.7964,-3.6786,-3.5661,-3.55,-3.55,-3.55,-3.55,-3.55,-3.55,-3.55,-3.55,-3.55,-3.55,-3.55,-3.55,-3.55,-3.55,-3.55,-3.55,-3.55,-3.55,-3.55,-3.55,-3.55,-3.5486,-3.5708,-3.6201,-3.7332,-3.8114,-4.4844,-4.5078,-4.5273,-4.6094,-4.6328,-4.6796,-4.8426,-4.8788,-4.9705,-5.3019,-5.3557,-5.4431,-5.7738,-5.8319,-5.8838,-6.0473,-6.08,-6.0858,-6.0858,-6.0858,-6.0858,-6.0858,-6.0819,-6.08,-6.08,-6.08,-6.0108,-5.8434,0.0,-5.755,-5.578,-5.5703,-5.5703,-5.5703,-5.4914,-5.4535,-5.4639,-5.3054,-5.1954,-5.1394,-5.1394,-5.1394,-5.1394,-5.1394,-5.1394,-5.1394,-5.1394,-5.1366,-5.134,-5.134,-5.1344,-5.1328,-5.1289,-5.082,-5.0195,-5.0098,-4.9023,-4.7695,-4.841,-4.8095,-4.7345,-4.7337,-4.6727,-4.6002,-4.5994,-4.5922,-4.5847,-4.5835,-4.5176,-4.4284,-4.346,-4.2589,-4.1757,-4.099,-4.0797,-4.0797,-4.0797,-4.0797,-4.0797,-4.0797,-4.0688,-4.0063,-3.8479,-3.6691,-3.5496,-3.5507,-3.55,-3.55,-3.55,-3.55,-3.55,-3.55,-3.55,-3.55,-3.55,-3.55,-3.55,-3.55,-3.55,-3.55,-3.55,-3.55,-3.55,-3.55,-3.55,-3.55,-3.55,-3.5446,-3.5405,-3.5436,-3.7048,-3.78,-4.5918,-4.5976,-4.6016,-4.623,-4.6797,-4.7558,-4.863,-4.9298,-5.0452,-5.3218,-5.3604,-5.4328,-5.7068,-5.7967,-5.8646,-5.9665,-6.0916,-6.1774,-6.1774,-6.1774,-6.1774,-6.1774,-6.1204,-6.08,-6.08,-6.08,-6.0108,0.0,-5.83,-5.755,-5.578,-5.5703,-5.5703,-5.5703,-5.4914,-5.4246,-5.3741,-5.2275,-5.1495,-5.1394,-5.1394,-5.1394,-5.1394,-5.1394,-5.1394,-5.1394,-5.1394,-5.1034,-5.0422,-5.0422,-5.0466,-5.0449,-4.9785,-4.9805,-5.0039,-4.873,-4.7988,-4.7539,-4.7085,-4.6757,-4.6514,-4.6504,-4.6316,-4.6064,-4.6022,-4.5531,-4.5013,-4.5019,-4.3873,-4.2609,-4.2396,-4.1719,-4.1048,-4.0855,-4.0797,-4.0797,-4.0797,-4.0797,-4.0797,-4.0797,-3.974,-3.8691,-3.8202,-3.6717,-3.556,-3.5514,-3.55,-3.55,-3.55,-3.55,-3.55,-3.55,-3.55,-3.55,-3.55,-3.55,-3.55,-3.55,-3.55,-3.55,-3.55,-3.55,-3.55,-3.55,-3.55,-3.55,-3.55,-3.5474,-3.542,-3.5361,-3.7083,-3.7808,-4.6308,-4.6308,-4.6308,-4.6308,-4.6953,-4.7832,-4.871,-4.9484,-5.0654,-5.2831,-5.3423,-5.4211,-5.6344,-5.7593,-5.8553,-5.9358,-6.0954,-6.1966,-6.1581,-6.187,-6.1966,-6.1581,-6.1089,-6.08,-6.08,-6.08,-6.0108,-5.8434,-5.83,-5.755,-5.578,-5.5703,-5.5703,-5.5703,-5.4549,-5.3417,-5.2351,-5.1648,-5.134,-5.1394,-5.1394,-5.1394,-5.1394,-5.1394,-5.1394,-5.1375,0.0,-5.0546,-5.007,-4.9718,-4.9606,-4.957,-4.9082,-4.8965,-4.8945,-4.7969,-4.7363,-4.6953,-4.6464,-4.6286,-4.6239,-4.6239,-4.6199,-4.6137,-4.6105,-4.5461,-4.4733,-4.4743,-4.343,-4.2047,-4.2034,-4.1422,-4.0797,-4.0797,-4.0797,-4.0797,-4.0797,-4.0797,-4.0797,-4.0797,-3.9398,-3.8175,-3.8112,-3.6717,-3.5573,-3.5514,-3.55,-3.55,-3.55,-3.55,-3.55,-3.55,-3.55,-3.55,-3.55,-3.55,-3.55,-3.55,-3.55,-3.55,-3.55,-3.55,-3.55,-3.55,-3.55,-3.55,-3.55,-3.5467,-3.5412,-3.5395,-3.7099,-3.7852,-4.6308,-4.6308,-4.6308,-4.6308,-4.7031,-4.7969,-4.8729,-4.9606,-5.073,-5.2291,-5.315,-5.4064,-5.5575,-5.7101,-5.8404,-5.9207,-6.0812,-6.1697,-6.105,-6.162,-6.1831,-6.105,-6.0858,-6.08,-6.08,-6.0704,-5.9973,-5.8415,-5.8184,-5.7415,-5.578,-5.5703,-5.5588,-5.5376,-5.3973,-5.2515,-5.101,-5.1186,-5.131,-5.141,-5.1392,-5.1392,-5.1394,-5.1394,-5.1394,-5.1355,-5.0475,-5.0037,-4.9874,-4.9054,-4.8727,-4.8711,-4.8594,-4.8164,-4.7598,-4.7461,-4.6953,-4.6308,-4.6308,-4.6308,-4.6308,-4.6301,-4.6254,-4.6206,-4.6206,-4.5476,-4.464,-4.4634,-4.333,-4.1931,-4.1935,-4.1376,-4.0797,-4.0797,-4.0797,-4.0797,-4.0797,-4.0797,-4.0777,-4.0642,-3.9301,-3.8136,-3.7958,-3.6639,-3.5573,-3.5514,-3.55,-3.55,-3.55,-3.55,-3.55,-3.55,-3.55,-3.55,-3.55,-3.55,-3.55,-3.55,-3.55,-3.55,-3.55,-3.55,-3.55,-3.55,-3.5507,-3.5507,-3.5507,-3.5441,-3.5427,-3.5439,-3.7015,-3.7805,-4.6308,-4.6308,-4.6308,-4.6308,-4.75,-4.8711,-4.8867,-5.0078,-5.1463,-5.2461,-5.3224,-5.3977,-5.4932,-5.6314,-5.7568,-5.8385,-5.993,-6.1223,-6.1793,-6.2005,-6.2043,-6.1889,-6.1243,-6.08,-6.08,-6.0146,-5.9338,0.0,-5.7627,-5.6791,-5.5742,-5.5703,-5.5068,-5.3683,-5.3465,-5.2603,-5.1017,-5.115,-5.1288,-5.1403,-5.1396,-5.1406,-5.1394,-5.1394,-5.1394,-5.1355,-5.0475,0.0,-4.9034,-4.8175,-4.7829,-4.7754,-4.7031,-4.7109,-4.7519,-4.6797,-4.6426,-4.6308,-4.6308,-4.6308,-4.6308,-4.6308,-4.6288,-4.6288,-4.628,-4.5116,-4.3806,-4.3809,-4.2505,-4.1097,-4.1045,-4.0916,-4.0797,-4.0797,-4.0797,-4.0797,-4.0797,-4.0797,-4.0584,-3.9868,-3.8895,-3.7943,-3.7167,-3.6234,-3.5573,-3.5514,-3.55,-3.55,-3.55,-3.55,-3.55,-3.55,-3.55,-3.55,-3.55,-3.55,-3.55,-3.55,-3.55,-3.55,-3.55,-3.55,-3.55,-3.55,-3.5495,-3.5496,-3.5496,-3.5541,-3.5534,-3.5509,-3.6516,-3.7361,-4.7089,-4.6972,-4.6973,-4.6973,-4.7949,-4.9023,-4.9473,-5.0527,-5.1523,-5.1939,-5.2912,-5.3818,-5.4161,-5.5833,-5.7419,-5.8217,-5.9796,-6.1034,-6.1416,-6.1828,-6.1932,-6.1485,-6.105,-6.08,-6.08,-6.0012,-5.9165,-5.8357,-5.7492,-5.6618,-5.5742,-5.5299,-5.4491,-5.3241,-5.2877,-5.2153,-5.0966,-5.1087,-5.1201,-5.131,-5.1375,-5.1396,-5.1394,-5.1394,-5.116,-5.067,-4.9794,0.0,-4.8156,-4.7277,-4.6911,-4.6875,-4.6465,-4.6562,-4.6875,-4.6445,-4.6308,-4.6308,-4.6308,-4.6308,-4.6308,-4.6308,-4.6308,-4.6308,-4.6306,-4.5052,-4.3654,-4.3658,-4.2357,-4.0945,-4.0869,-4.0823,-4.08,-4.0802,-4.0803,-4.0797,-4.0797,-4.0797,-4.0545,-3.9675,-3.8798,-3.7904,-3.6954,-3.6138,-3.5573,-3.5514,-3.55,-3.55,-3.55,-3.55,-3.55,-3.55,-3.55,-3.55,-3.55,-3.55,-3.55,-3.55,-3.55,-3.55,-3.55,-3.55,-3.55,-3.55,-3.5509,-3.5515,-3.5544,-3.5574,-3.5607,-3.5634,-3.6499,-3.7108,-4.8023,-4.787,-4.7871,-4.7871,-4.8535,-4.9355,-5.0039,-5.082,-5.1406,-5.1395,-5.2492,-5.3487,-5.3596,-5.5292,-5.6985,-5.7989,-5.9435,-6.0494,-6.0624,-6.1346,-6.1582,-6.09,-6.0812,-6.0723,-6.0531,-5.9742,0.0,-5.8088,-5.7049,-5.6175,-5.5472,-5.4838,-5.401,-5.2953,-5.2367,-5.1687,-5.0882,-5.101,-5.1114,-5.1174,-5.1296,-5.1352,-5.1379,-5.1381,-5.0915,-5.0059,-4.9183,-4.8337,0.0,-4.6653,-4.6306,-4.6308,-4.6308,-4.6308,-4.6308,-4.6308,-4.6308,-4.6308,-4.6308,-4.6308,-4.6308,-4.6308,-4.6172,-4.6015,-4.6015,-4.4802,-4.3412,-4.3416,-4.2254,-4.1003,-4.0945,-4.0873,-4.0812,-4.08,-4.079,-4.0797,-4.0797,-4.0797,-4.0487,-3.9423,-3.8663,-3.7846,-3.6723,-3.6022,-3.5573,-3.5514,-3.55,-3.55,-3.55,-3.55,-3.55,-3.55,-3.55,-3.55,-3.55,-3.55,-3.55,-3.55,-3.55,-3.55,-3.55,-3.55,-3.55,-3.55,-3.5515,-3.554,-3.5596,-3.5614,-3.5645,-3.5724,-3.6423,-3.6932,-4.8681,-4.8729,-4.8789,-4.8789,-4.9433,-5.0098,-5.0176,-5.082,-5.1406,-5.14,-5.2052,-5.2834,-5.356,-5.4369,-5.5449,-5.7052,-5.8066,-5.8904,-5.9694,-6.05,-6.0988,-6.09,-6.0835,-6.0492,-5.9704,-5.8896,-5.805,-5.7176,-5.5626,-5.4684,-5.4607,-5.453,-5.3741,-5.2077,-5.2002,-5.1624,-5.081,-5.0941,-5.1037,-5.1103,-5.1176,-5.1248,-5.1312,-5.131,-5.0878,-5.0054,-4.9186,-4.833,0.0,-4.6653,-4.6306,-4.6308,-4.6308,-4.6308,-4.6308,-4.6308,-4.6308,-4.6308,-4.6308,-4.6308,-4.6308,-4.6308,-4.5762,-4.5117,-4.5117,-4.3906,-4.2519,-4.2514,-4.184,-4.1076,-4.1003,-4.0949,-4.0878,-4.0808,-4.0797,-4.0797,-4.0797,-4.0797,-4.0313,-3.8644,-3.8251,-3.7672,-3.5996,-3.5655,-3.5573,-3.5514,-3.55,-3.55,-3.55,-3.55,-3.55,-3.55,-3.55,-3.55,-3.55,-3.55,-3.55,-3.55,-3.55,-3.55,-3.55,-3.55,-3.55,-3.55,-3.5554,-3.559,-3.5606,-3.5662,-3.5684,-3.5694,-3.5833,-3.6729,-4.9719,-4.9621,-4.9687,-4.9687,-4.9941,-5.0332,-5.0801,-5.1172,-5.1406,-5.14,-5.2025,-5.2812,-5.3614,-5.433,-5.5377,-5.7046,-5.7996,-5.8809,-5.964,-6.045,-6.0766,-6.0233,-6.0154,-5.9804,0.0,0.0,-5.7039,-5.5602,-5.4878,-5.4049,-5.2991,-5.2953,-5.2615,-5.1923,-5.1453,-5.1058,-5.073,-5.0827,-5.0914,-5.0983,-5.105,-5.0845,-5.0408,-5.0445,-4.9738,-4.8461,-4.8154,-4.7561,0.0,-4.6433,-4.6303,-4.6308,-4.6308,-4.6308,-4.6308,-4.6308,-4.6308,-4.6308,-4.6308,-4.6308,-4.6308,-4.6308,-4.5351,-4.4316,-4.4844,-4.3789,-4.2402,-4.24,-4.1771,-4.1097,-4.1064,-4.102,-4.0935,-4.0883,-4.087,-4.0848,-4.0818,-4.0388,-3.9654,-3.8431,-3.7787,-3.704,-3.5803,-3.5598,-3.5573,-3.5514,-3.55,-3.55,-3.55,-3.55,-3.55,-3.55,-3.55,-3.55,-3.55,-3.55,-3.55,-3.55,-3.55,-3.55,-3.55,-3.55,-3.55,-3.55,-3.5541,-3.5565,-3.559,-3.5629,-3.566,-3.573,-3.68,-3.7401,-5.0918,-5.0881,-5.0936,-5.0937,-5.0742,-5.0703,-5.1269,-5.1406,-5.1406,-5.1402,-5.1828,-5.2539,-5.3619,-5.4216,-5.507,-5.6777,-5.7699,-5.8421,-5.8983,-5.9756,-6.0036,-5.9417,-5.9319,-5.8981,-5.8132,-5.7071,-5.5895,-5.4602,-5.4042,-5.3213,-5.1962,-5.1673,-5.1548,-5.1548,-5.0991,-5.0712,-5.0712,-5.0758,-5.0799,-5.0874,-5.0673,-5.0292,-4.9743,-4.9559,-4.8701,-4.7389,-4.745,-4.7045,0.0,-4.6293,-4.6301,-4.6307,-4.6307,-4.6308,-4.6308,-4.6308,-4.6308,-4.6308,-4.6308,-4.6308,-4.6269,-4.5996,-4.4902,-4.3769,-4.4121,-4.3203,-4.2051,-4.205,-4.1598,-4.1104,-4.1104,-4.1042,-4.0983,-4.0941,-4.0906,-4.0815,-4.0514,-3.9954,-3.9199,-3.805,-3.7328,-3.6615,-3.5745,-3.5598,-3.5573,-3.5514,-3.55,-3.55,-3.55,-3.55,-3.55,-3.55,-3.55,-3.55,-3.55,-3.55,-3.55,-3.55,-3.55,-3.55,-3.55,-3.55,-3.55,-3.55,-3.5509,-3.5527,-3.5604,-3.5599,-3.5766,-3.6114,-3.7633,-3.8454,-5.2313,-5.2622,-5.2673,-5.2673,-5.2031,-5.1387,-5.1406,-5.1406,-5.1406,-5.1405,-5.1354,-5.1835,-5.3582,-5.374,-5.4175,-5.5934,-5.683,-5.7318,-5.7318,-5.8017,-5.852,-5.8501,-5.8452,-5.8094,-5.7284,-5.5644,-5.4583,-5.4506,-5.2955,0.0,-5.1904,-5.1144,-5.0712,-5.0712,-5.0712,-5.0712,-5.0712,-5.0692,-5.0729,-5.0782,-4.9994,-4.9618,-4.9586,-4.8845,-4.808,-4.7319,-4.7446,-4.7036,0.0,-4.6293,-4.6301,-4.6307,-4.6307,-4.6308,-4.6308,-4.6308,-4.6308,-4.6308,-4.6308,-4.6308,-4.6152,-4.5293,-4.4414,-4.3535,-4.2695,-4.1855,-4.1211,-4.1211,-4.1151,-4.1105,-4.1093,-4.1056,-4.0994,-4.1,-4.0944,-4.0653,-3.9794,-3.9612,-3.9071,-3.7262,-3.6903,-3.6615,-3.5745,-3.5598,-3.5573,-3.5514,-3.55,-3.55,-3.55,-3.55,-3.55,-3.55,-3.55,-3.55,-3.55,-3.55,-3.55,-3.55,-3.55,-3.55,-3.55,-3.55,-3.55,-3.55,-3.5509,-3.5528,-3.5598,-3.5599,-3.6088,-3.7005,-3.7955,-3.9822,-5.1546,-5.1733,-5.1811,-5.1814,-5.1601,-5.1406,-5.1406,-5.1406,-5.1406,-5.1405,-5.138,-5.1893,-5.3599,-5.3806,-5.429,-5.5983,-5.6939,-5.7438,-5.7438,-5.8161,-5.8475,-5.7881,-5.7235,-5.671,0.0,0.0,-5.4398,-5.3791,-5.2665,-5.1732,-5.1116,-5.0837,-5.0712,-5.0712,-5.0712,-5.0712,-5.0712,-5.0702,-5.0413,-4.9835,-4.9594,-4.8861,-4.7741,-4.7603,-4.71,-4.6358,-4.6524,0.0,0.0,-4.6305,-4.6294,-4.6304,-4.6304,-4.6307,-4.6308,-4.6308,-4.6308,-4.6308,-4.6308,-4.5918,-4.5371,-4.5098,-4.4004,-4.2754,-4.248,-4.1836,-4.1191,-4.1191,-4.1152,-4.1109,-4.1104,-4.1077,-4.1067,-4.1074,-4.105,-4.0785,-3.9877,-3.921,-3.8412,-3.7205,-3.6496,-3.5985,-3.5659,-3.5608,-3.5584,-3.5515,-3.5509,-3.5495,-3.5507,-3.55,-3.55,-3.55,-3.55,-3.55,-3.55,-3.55,-3.55,-3.55,-3.55,-3.55,-3.55,-3.55,-3.55,-3.55,-3.5494,-3.5508,-3.554,-3.6132,-3.7827,-4.0463,-3.9665,-4.0704,-5.157,-5.1798,-5.1887,-5.1891,-5.164,-5.1406,-5.1406,-5.1406,-5.1406,-5.1406,-5.1405,-5.1927,-5.3611,-5.3886,-5.4387,-5.6074,-5.6738,-5.7045,-5.7045,-5.7506,-5.7657,-5.708,-5.6202,0.0,0.0,-5.4459,-5.3524,-5.2947,-5.2084,-5.1335,-5.074,-5.0692,-5.0712,-5.0712,-5.0712,-5.0712,-5.0712,-5.0366,-4.9933,-4.9394,-4.8759,-4.7913,-4.6894,-4.6688,-4.6351,-4.5917,0.0,0.0,0.0,-4.6294,-4.6308,-4.6301,-4.6301,-4.6306,-4.6308,-4.6308,-4.6308,-4.6308,-4.6308,-4.5723,-4.4941,-4.4629,-4.3359,-4.1953,-4.1953,-4.1601,-4.1191,-4.1191,-4.1172,-4.1132,-4.1131,-4.1149,-4.1146,-4.1143,-4.1114,-4.0764,-3.9511,-3.8808,-3.8027,-3.6764,-3.6067,-3.5688,-3.5607,-3.561,-3.5587,-3.5532,-3.554,-3.5528,-3.5507,-3.55,-3.55,-3.55,-3.55,-3.55,-3.55,-3.55,-3.55,-3.55,-3.55,-3.55,-3.55,-3.5494,-3.5508,-3.5508,-3.5521,-3.5682,-3.599,-3.7212,-3.9154,-4.166,-4.0662,-4.1251,0.0,-5.2506,-5.2609,-5.2609,-5.2009,-5.1406,-5.1406,-5.1406,0.0,-5.1406,-5.1406,-5.1933,-5.369,-5.3949,-5.4455,-5.6121,-5.6354,-5.632,-5.632,-5.6316,-5.6261,-5.6148,-5.5398,0.0,-5.4741,-5.3196,-5.2174,-5.2106,-5.1363,-5.0846,-5.071,-5.0701,-5.0702,-5.0693,-5.0635,-5.0616,-5.0616,-4.9798,-4.9336,-4.9202,-4.7644,-4.6865,-4.6778,-4.6113,-4.5826,0.0,0.0,0.0,0.0,-4.6277,-4.6302,-4.6301,-4.6301,-4.6306,-4.6308,-4.6308,-4.6308,-4.6308,-4.6308,-4.5683,-4.4746,-4.3828,-4.2461,-4.1191,-4.1191,-4.1191,-4.1191,-4.1191,-4.1191,-4.1191,-4.1191,-4.1191,-4.1191,-4.1191,-4.1151,-4.0617,-3.8888,-3.8448,-3.7864,-3.6067,-3.5712,-3.5689,-3.5621,-3.5614,-3.5618,-3.5612,-3.5606,-3.5579,-3.5514,-3.5507,-3.5507,-3.55,-3.55,-3.5507,-3.5507,-3.55,-3.55,-3.55,-3.55,-3.55,-3.55,-3.5502,-3.5496,-3.5522,-3.5636,-3.6124,-3.6992,-3.8687,-4.0066,-4.1098,-4.1028,-4.1503,-5.141,0.0,-5.1705,-5.1705,-5.1554,-5.1402,0.0,-5.1405,-5.1406,-5.1406,-5.1406,-5.1933,-5.369,-5.3997,-5.4533,-5.6206,-5.6463,-5.645,-5.645,-5.6449,-5.618,-5.5439,-5.5119,-5.4686,-5.3955,-5.2903,-5.2253,-5.2174,-5.1388,-5.0891,-5.0846,-5.0757,-5.0692,-5.0702,-5.0048,-4.9702,-4.9702,-4.949,-4.8759,-4.749,-4.7077,-4.6547,-4.5902,-4.5772,-4.5749,0.0,0.0,0.0,-4.6135,-4.6201,-4.6257,-4.6301,-4.6301,-4.6306,-4.6308,-4.6308,-4.6308,-4.6308,-4.6308,-4.5293,-4.3769,-4.2266,-4.1523,-4.1191,-4.1191,-4.1191,-4.1191,-4.1191,-4.1191,-4.1191,-4.1191,-4.1191,-4.1191,-4.1191,-4.1152,-4.0641,-3.8939,-3.8512,-3.7951,-3.619,-3.581,-3.5764,-3.5758,-3.575,-3.5732,-3.5674,-3.5683,-3.5623,-3.5528,-3.5496,-3.5502,-3.5507,-3.5495,-3.5496,-3.5496,-3.5501,-3.55,-3.55,-3.55,-3.55,-3.55,-3.5502,-3.5527,-3.5574,-3.6294,-3.7419,-3.8937,-3.942,-4.0458,-4.1983,-4.1358,-4.155,-5.1134,-5.1271,-5.1409,-5.1409,-5.1394,-5.1399,-5.1402,-5.1404,-5.1405,-5.1406,-5.1406,-5.1816,-5.3163,-5.3729,-5.443,-5.5736,-5.628,-5.6415,-5.6005,-5.5956,-5.5604,-5.4668,-5.4153,-5.3667,0.0,-5.2239,-5.1705,-5.161,-5.1172,-5.0897,-5.0899,-5.0829,-5.0592,-5.0162,-4.9691,-4.9442,-4.9394,-4.8644,-4.7798,-4.6904,-4.649,-4.6067,-4.5594,-4.5662,-4.5715,0.0,0.0,0.0,-4.6057,-4.6161,-4.6232,-4.6301,-4.6301,-4.6306,-4.6308,-4.6308,-4.6308,-4.623,-4.584,-4.4551,-4.2891,-4.1601,-4.1191,-4.1191,-4.1191,-4.1191,-4.1191,-4.1191,-4.1191,-4.1191,-4.1191,-4.1191,-4.1191,-4.1191,-4.1172,-4.0683,-3.8964,-3.8567,-3.8022,-3.6248,-3.5872,-3.5849,-3.585,-3.5852,-3.5838,-3.5803,-3.5778,-3.5703,-3.555,-3.5553,-3.5528,-3.5507,-3.5502,-3.5509,-3.5532,-3.554,-3.5528,-3.5495,-3.5528,-3.5528,-3.5495,-3.5553,-3.5626,-3.5684,-3.6988,-3.8124,-3.9107,-3.9905,-4.0805,-4.1737,-4.1294,-4.1343,-5.1043,-5.1304,-5.1546,-5.1576,-5.168,-5.1783,-5.1786,-5.1693,-5.1598,-5.1599,-5.1483,-5.1719,-5.2715,-5.3496,-5.4336,-5.5332,-5.6015,-5.6133,-5.539,-5.5194,-5.4759,-5.384,-5.3055,0.0,-5.218,-5.1526,-5.1069,-5.0929,-5.0914,-5.0851,-5.0723,-5.0715,-5.0287,-4.936,-4.9188,-4.9084,-4.9019,-4.7605,-4.6827,-4.6701,-4.5951,-4.5594,-4.5594,-4.5657,-4.5671,-4.57,0.0,0.0,-4.5992,-4.6137,-4.6243,-4.6301,-4.6301,-4.6306,-4.6308,-4.6308,-4.6211,-4.5957,-4.4941,-4.3633,-4.2266,-4.1465,-4.1191,-4.1191,-4.1191,-4.1191,-4.1191,-4.1191,-4.1191,-4.1191,-4.1191,-4.1191,-4.1191,-4.1191,-4.1191,-4.0723,-3.8984,-3.8593,-3.8079,-3.6261,-3.591,-3.5916,-3.5892,-3.5892,-3.5897,-3.5906,-3.5849,-3.5741,-3.5618,-3.5595,-3.5566,-3.5507,-3.5509,-3.5534,-3.5607,-3.5615,-3.5581,-3.5527,-3.5578,-3.5578,-3.5527,-3.5653,-3.587,-3.6202,-3.7663,-3.8585,-3.8909,-4.032,-4.104,-4.1095,-4.1104,-4.1109,-5.0923,-5.1535,-5.2198,-5.2359,-5.2974,-5.3537,-5.358,-5.3025,-5.2507,-5.2493,-5.1908,-5.189,-5.3494,-5.3905,-5.4531,-5.6133,-5.5898,-5.5449,0.0,0.0,-5.3863,-5.2997,0.0,-5.2291,-5.1522,-5.1298,-5.1138,-5.099,-5.0974,-5.0666,-4.9912,-4.9842,-4.9404,-4.8508,-4.7711,-4.7283,-4.7274,-4.7027,-4.6528,-4.5806,-4.5671,-4.5594,-4.5594,-4.5622,-4.5622,-4.562,0.0,-4.5841,-4.5925,-4.6111,-4.6236,-4.6301,-4.6301,-4.6306,-4.6308,-4.6308,-4.582,-4.4961,-4.3359,-4.2617,-4.2266,-4.1465,-4.1191,-4.1191,-4.1191,-4.1191,-4.1191,-4.1191,-4.1191,-4.1191,-4.1191,-4.1191,-4.1191,-4.1191,-4.1191,-4.0723,-3.8984,-3.8593,-3.8082,-3.6327,-3.5988,-3.5963,-3.5908,-3.5892,-3.5897,-3.5894,-3.5841,-3.5756,-3.5629,-3.5602,-3.5566,-3.5507,-3.5547,-3.5589,-3.5595,-3.5659,-3.5684,-3.5679,-3.5635,-3.5629,-3.5674,-3.5807,-3.6579,-3.8063,-3.8409,-3.9263,-4.0691,-4.0966,-4.1085,-4.1106,-4.1108,-4.1109,-5.089,-5.1908,-5.2976,-5.3122,-5.3511,-5.3864,-5.393,-5.3652,-5.3264,-5.2799,-5.2373,-5.2356,-5.3159,-5.3689,-5.4413,-5.5683,-5.5566,-5.4961,-5.4023,-5.3554,-5.2968,0.0,0.0,-5.1771,-5.1344,-5.1261,-5.0991,-5.0389,-5.0352,-4.9949,-4.9057,-4.8976,-4.8547,-4.7681,-4.7229,-4.6764,-4.6251,-4.6254,-4.6035,-4.5594,-4.5594,-4.5594,-4.5594,-4.5594,-4.5594,-4.5603,0.0,-4.5848,-4.591,-4.6127,-4.6233,-4.6301,-4.6301,-4.6306,-4.623,-4.5762,-4.4746,-4.3476,-4.2676,-4.2129,-4.1699,-4.1328,-4.1191,-4.1191,-4.1191,-4.1191,-4.1191,-4.1191,-4.1191,-4.1191,-4.1191,-4.1191,-4.1191,-4.1191,-4.1191,-4.0723,-3.8984,-3.8593,-3.8084,-3.6341,-3.6003,-3.5998,-3.5952,-3.5916,-3.5892,-3.5903,-3.5845,-3.576,-3.5626,-3.5608,-3.5566,-3.5507,-3.5554,-3.5612,-3.564,-3.5717,-3.5745,-3.5745,-3.5689,-3.5704,-3.5799,-3.632,-3.7004,-3.7841,-3.8777,-3.9624,-4.0405,-4.0875,-4.1109,-4.1109,-4.1109,-4.1109,-5.0849,-5.1964,-5.3147,-5.3224,-5.3823,-5.4405,-5.4469,-5.4396,-5.4119,-5.3455,-5.2973,-5.2821,-5.3232,-5.4018,-5.4763,-5.5214,-5.5136,-5.4453,-5.2929,-5.2519,-5.2148,-5.1484,-5.1406,-5.1303,-5.1032,-5.1028,-5.0598,-4.9584,-4.952,-4.9104,-4.8147,-4.8101,-4.77,-4.6827,-4.6785,-4.6437,-4.5717,-4.5673,-4.5648,-4.5594,-4.5594,-4.5594,-4.5594,-4.5594,-4.5594,-4.5603,-4.5734,-4.5848,-4.591,-4.6127,-4.6233,-4.6301,-4.6301,-4.6189,-4.5879,-4.4785,-4.3555,-4.2363,-4.2187,-4.1719,-4.1191,-4.1191,-4.1191,-4.1191,-4.1191,-4.1191,-4.1191,-4.1191,-4.1191,-4.1191,-4.1191,-4.1191,-4.1191,-4.1191,-4.1191,-4.0781,-3.9238,-3.8906,-3.8455,-3.6912,-3.6615,-3.6609,-3.6607,-3.6373,-3.6207,-3.6175,-3.5954,-3.5727,-3.5621,-3.5583,-3.5637,-3.5776,-3.5843,-3.6002,-3.6291,-3.6374,-3.6429,-3.6437,-3.5993,-3.5877,-3.6189,-3.6867,-3.7435,-3.7878,-3.9153,-3.9897,-4.0112,-4.0777,-4.1109,-4.1109,-4.1109,-4.1109,-5.0702,-5.1356,-5.205,-5.2181,-5.4192,-5.6135,-5.6206,-5.5691,-5.5183,-5.5125,-5.3836,-5.3196,-5.4805,-5.5828,-5.6164,-5.5423,-5.4625,-5.3767,-5.283,0.0,-5.1465,-5.1406,-5.1406,-5.1071,-5.0265,-5.0184,-4.9763,-4.8759,-4.8685,-4.8256,-4.7245,-4.7192,-4.6786,-4.5916,-4.5831,-4.5766,-4.57,-4.5637,-4.5594,-4.5594,-4.5594,-4.5594,-4.5594,-4.5594,-4.5594,-4.5603,-4.5734,-4.5848,-4.591,-4.6127,-4.6233,-4.6301,-4.6301,-4.5818,-4.4883,-4.3203,-4.2519,-4.2285,-4.1543,-4.125,-4.1191,-4.1191,-4.1191,-4.1191,-4.1191,-4.1191,-4.1191,-4.1191,-4.1191,-4.1191,-4.1191,-4.1191,-4.1191,-4.1191,-4.1191,-4.0937,-4.0019,-3.9804,-3.9529,-3.8588,-3.8409,-3.8404,-3.8417,-3.7693,-3.7091,-3.7024,-3.6261,-3.5674,-3.5602,-3.5554,-3.5785,-3.6526,-3.6671,-3.7085,-3.8024,-3.8167,-3.8231,-3.8302,-3.6785,-3.624,-3.706,-3.7228,-3.8022,-3.9584,-3.9741,-4.019,-4.1012,-4.107,-4.1109,-4.1109,-4.1109,-4.1109,-5.0712,-5.1298,-5.1934,-5.2067,-5.3348,-5.473,-5.5375,-5.5402,-5.53,-5.53,-5.4342,-5.3389,-5.295,-5.4027,-5.4518,-5.3097,-5.3041,-5.2886,-5.201,-5.16,-5.1211,-5.0703,-5.0644,-5.0312,-4.9432,-4.9346,-4.8942,-4.7938,-4.783,-4.7345,-4.6355,-4.629,-4.6141,-4.581,-4.5781,-4.5743,-4.5706,-4.5673,-4.564,-4.5594,-4.5594,-4.5594,-4.5594,-4.5594,-4.5594,-4.5603,-4.5734,-4.5848,-4.591,-4.6127,-4.6233,-4.6244,-4.5701,-4.4628,-4.3301,-4.2637,-4.207,-4.1601,-4.1308,-4.1191,-4.1191,-4.1191,-4.1191,-4.1191,-4.1191,-4.1191,-4.1191,-4.1191,-4.1191,-4.1191,-4.1191,-4.1191,-4.1191,-4.1191,-4.1191,-4.0957,-4.0098,-3.9901,-3.9644,-3.8764,-3.8601,-3.8594,-3.8591,-3.827,-3.7789,-3.7144,-3.6702,-3.622,-3.5624,-3.5957,-3.6367,-3.668,-3.7237,-3.7773,-3.8205,-3.8338,-3.8438,-3.85,-3.7876,-3.7669,-3.7999,-3.8543,-3.9156,-3.98,-4.0327,-4.0777,-4.1109,-4.1109,-4.1109,-4.1109,-4.1109,-4.1109,-5.077,-5.1298,-5.1857,-5.1702,-5.2351,-5.331,-5.429,-5.4917,-5.5348,-5.5623,-5.5003,-5.3875,-5.2126,-5.3006,-5.3515,0.0,-5.2312,-5.2393,-5.1518,-5.1168,-5.0798,-5.0233,-4.9941,-4.9453,-4.8574,-4.8494,-4.8062,-4.7067,-4.6941,-4.6595,-4.5833,-4.5807,-4.5805,-4.5807,-4.5773,-4.5754,-4.5701,-4.5684,-4.5648,-4.5594,-4.5594,-4.5594,-4.5594,-4.5594,-4.5594,-4.5603,-4.5734,-4.5848,-4.591,-4.6127,-4.6077,-4.5775,-4.4628,-4.3457,-4.2363,-4.2109,-4.168,-4.1191,-4.1191,-4.1191,-4.1191,-4.1191,-4.1191,-4.1191,-4.1191,-4.1191,-4.1191,-4.1191,-4.1191,-4.1191,-4.1191,-4.1191,-4.1191,-4.1191,-4.1191,-4.1035,-4.0449,-4.0292,-4.0093,-3.9506,-3.9382,-3.9394,-3.9391,-3.9124,-3.8656,-3.7937,-3.7526,-3.7055,-3.6386,-3.6769,-3.7226,-3.7523,-3.8363,-3.8965,-3.9034,-3.9151,-3.926,-3.9324,-3.9316,-3.9193,-3.8912,-3.9484,-3.9937,-4.021,-4.0797,-4.1109,-4.1109,-4.1109,-4.1109,-4.1109,-4.1109,-4.1109,-5.0933,-5.1298,-5.1712,-5.0914,-5.1417,-5.2353,-5.3296,-5.4378,-5.5441,-5.6291,-5.5836,-5.4734,-5.2997,-5.3385,-5.3698,-5.2821,-5.2672,-5.2384,-5.1507,-5.0634,-5.0089,-5.009,-4.9371,-4.8553,-4.7674,-4.7597,-4.7165,-4.6187,-4.6103,-4.6012,-4.5814,-4.5807,-4.5805,-4.5807,-4.5731,-4.5703,-4.5701,-4.5631,-4.5594,-4.5594,-4.5594,-4.5594,-4.5594,-4.5594,-4.5594,-4.5603,-4.5734,-4.5848,-4.591,-4.6107,-4.5706,-4.4799,-4.3066,-4.2402,-4.2285,-4.1484,-4.1191,-4.1191,-4.1191,-4.1191,-4.1191,-4.1191,-4.1191,-4.1191,-4.1191,-4.1191,-4.1191,-4.1191,-4.1191,-4.1191,-4.1191,-4.1191,-4.1191,-4.1191,-4.1191,-4.1191,-4.1191,-4.1152,-4.1091,-4.1088,-4.1084,-4.1097,-4.1091,-4.0374,-3.977,-3.9628,-3.88,-3.817,-3.8029,-3.8007,-3.8363,-3.9315,-4.0178,-4.0751,-4.0898,-4.0953,-4.1029,-4.1091,-4.1097,-4.0717,-3.9858,-3.9819,-4.0229,-4.109,-4.1109,-4.1109,-4.1109,-4.1109,-4.1109,-4.1109,-4.1109,-4.1109,-5.1606,-5.1712,-5.2001,-5.2425,-5.2318,-5.2503,-5.4057,-5.4305,-5.4144,-5.3879,-5.3637,-5.2936,-5.1199,-5.159,-5.1882,-5.1004,-5.1396,-5.148,-5.0608,-5.0259,-4.9656,-4.8489,-4.8139,-4.7633,-4.6775,-4.6699,-4.6526,-4.6128,-4.6103,-4.6012,-4.5814,-4.5807,-4.5778,-4.5723,-4.5715,-4.5668,-4.5631,-4.5622,-4.5594,-4.5594,-4.5594,-4.5594,-4.5594,-4.5594,-4.5594,-4.5603,-4.575,-4.5834,-4.5881,-4.5469,-4.4445,-4.3118,-4.2597,-4.2051,-4.1523,-4.1289,-4.1191,-4.1191,-4.1191,-4.1191,-4.1191,-4.1191,-4.1191,-4.1191,-4.1191,-4.1191,-4.1191,-4.1191,-4.1191,-4.1191,-4.1191,-4.1191,-4.1191,-4.1191,-4.1191,-4.1191,-4.1191,-4.1152,-4.0935,-4.0368,-4.0715,-4.0922,-4.0353,-4.0472,-4.0406,-3.9706,-3.9328,-3.9065,-3.8934,-3.8911,-3.9261,-4.0159,-4.0513,-4.0738,-4.0828,-4.0929,-4.1016,-4.1022,-4.1074,-4.0973,-4.0738,-4.0717,-4.0836,-4.109,-4.1109,-4.1109,-4.1109,-4.1109,-4.1109,-4.1109,-4.1109,-4.1109,-5.1981,-5.2404,-5.2991,-5.3205,-5.3157,-5.3281,-5.4126,-5.4325,-5.4009,-5.2928,-5.2704,-5.2273,-5.0867,-5.1043,0.0,-5.069,-5.1063,-5.1103,-5.0211,-4.9802,-4.9082,-4.7758,-4.7293,-4.6886,-4.6344,-4.6308,-4.6235,-4.6109,-4.6103,-4.6012,-4.5814,-4.5807,-4.5778,-4.5731,-4.5715,-4.5676,-4.564,-4.5603,-4.5594,-4.5594,-4.5594,-4.5594,-4.5594,-4.5594,-4.5594,-4.5584,-4.5383,-4.5338,-4.5343,-4.4309,-4.3292,-4.2371,-4.205,-4.1621,-4.1191,-4.1191,-4.1191,-4.1191,-4.1191,-4.1191,-4.1191,-4.1191,-4.1191,-4.1191,-4.1191,-4.1191,-4.1191,-4.1191,-4.1191,-4.1191,-4.1191,-4.1191,-4.1191,-4.1191,-4.1191,-4.1191,-4.1191,-4.1172,-4.0995,-4.0486,-4.0775,-4.0945,-4.0454,-4.0752,-4.0825,-4.0205,-4.0009,-3.9914,-3.9825,-3.981,-4.0051,-4.0609,-4.0726,-4.0776,-4.0864,-4.0956,-4.1011,-4.1033,-4.1078,-4.1109,-4.1109,-4.1109,-4.1109,-4.1109,-4.1109,-4.1109,-4.1109,-4.1109,-4.1109,-4.1109,-4.1109,-4.1109,-5.2231,-5.3241,-5.4337,-5.3606,-5.404,-5.4458,-5.3758,-5.4308,-5.4527,-5.2906,-5.2587,-5.2331,-5.155,-5.1394,-5.1394,-5.1394,-5.1336,-5.0984,-5.0104,-4.9247,-4.8388,-4.7586,-4.6775,-4.6295,-4.6301,-4.6308,-4.6235,-4.6109,-4.6103,-4.6012,-4.5814,-4.5807,-4.5805,-4.5807,-4.5731,-4.5711,-4.5701,-4.564,-4.5614,-4.5594,-4.5594,-4.5594,-4.5594,-4.5594,-4.5594,-4.5573,-4.4827,-4.4524,-4.4467,-4.2926,-4.2297,-4.2204,-4.1482,-4.1191,-4.1191,-4.1191,-4.1191,-4.1191,-4.1191,-4.1191,-4.1191,-4.1191,-4.1191,-4.1191,-4.1191,-4.1191,-4.1191,-4.1191,-4.1191,-4.1191,-4.1191,-4.1191,-4.1191,-4.1191,-4.1191,-4.1172,-4.1094,-4.1133,-4.1133,-4.0917,-4.0992,-4.1087,-4.1003,-4.1053,-4.1058,-4.0925,-4.074,-4.0622,-4.0622,-4.0622,-4.0675,-4.0806,-4.0807,-4.0864,-4.0986,-4.1006,-4.1035,-4.1094,-4.1104,-4.1109,-4.1109,-4.1109,-4.1109,-4.1109,-4.1109,-4.1109,-4.1109,-4.1109,-4.1109,-4.1109,-4.1109,-4.1109,-5.2972,-5.3683,-5.4607,-5.5049,-5.5381,-5.5229,-5.3836,-5.3779,-5.3551,-5.2001,-5.1687,-5.1629,-5.1433,-5.1394,-5.1394,-5.1394,-5.0828,-5.0085,-4.9208,-4.8369,-4.7549,-4.6671,-4.6419,-4.6309,-4.6301,-4.6308,-4.624,-4.6112,-4.6103,-4.6012,-4.5814,-4.5807,-4.5805,-4.5807,-4.58,-4.5762,-4.5701,-4.5693,-4.5648,0.0,-4.5594,-4.5594,-4.5594,-4.5594,-4.5631,-4.5635,-4.4793,-4.4143,-4.359,-4.2615,-4.1891,-4.1366,-4.1248,-4.1191,-4.1191,-4.1191,-4.1191,-4.1191,-4.1191,-4.1191,-4.1191,-4.1191,-4.1191,-4.1191,-4.1191,-4.1191,-4.1191,-4.1191,-4.1191,-4.1191,-4.1191,-4.1191,-4.1191,-4.1191,-4.1191,-4.1016,-4.0332,-4.0723,-4.0781,-3.9414,-4.0193,-4.0892,-4.0266,-4.0672,-4.105,-4.0922,-4.081,-4.0761,-4.0761,-4.0761,-4.0796,-4.0873,-4.0925,-4.097,-4.1006,-4.1044,-4.1081,-4.1106,-4.1108,-4.1109,-4.1109,-4.1109,-4.1109,-4.1109,-4.1109,-4.1109,-4.1109,-4.1109,-4.1109,-4.1109,-4.1109,-4.1109,-5.3087,-5.3837,-5.4684,-5.5491,-5.5785,-5.5548,-5.4346,-5.4151,-5.3913,-5.2772,-5.1932,-5.1513,-5.1906,-5.165,-5.1396,-5.1396,-5.0679,-4.9807,-4.8915,-4.8115,-4.7276,-4.6397,-4.63,-4.6308,-4.6301,-4.6307,-4.6241,-4.6112,-4.6103,-4.6012,-4.5814,-4.5807,-4.5793,-4.5798,-4.5781,-4.5735,-4.5695,-4.5673,-4.564,-4.5594,-4.5594,-4.5594,-4.5594,-4.5171,-4.5007,-4.4955,-4.3701,-4.2985,-4.267,-4.1861,-4.1347,-4.1055,-4.1128,-4.1152,-4.1152,-4.1191,-4.1191,-4.1191,-4.1191,-4.1191,-4.1191,-4.1191,-4.1191,-4.1191,-4.1191,-4.1191,-4.1191,-4.1191,-4.1191,-4.1191,-4.1191,-4.1191,-4.1191,-4.1191,-4.1191,-4.1074,-4.0625,-4.0879,-4.0937,-4.0019,-4.0526,-4.0972,-4.0541,-4.0808,-4.1034,-4.0951,-4.089,-4.0842,-4.0842,-4.0842,-4.0874,-4.0949,-4.0984,-4.1014,-4.1054,-4.1078,-4.1109,-4.1109,-4.1109,-4.1109,-4.1109,-4.1109,-4.1109,-4.1109,-4.1109,-4.1109,-4.1109,-4.1109,-4.1109,-4.1109,-4.1109,-4.1109,-5.2972,-5.3933,-5.4876,-5.553,-5.5756,-5.5596,-5.4849,-5.4738,-5.4652,-5.411,-5.2715,-5.1791,-5.2461,-5.1912,-5.1323,-5.1171,-5.0425,-4.9562,-4.8718,-4.7881,-4.712,-4.6397,-4.63,-4.6308,-4.6301,-4.6307,-4.6241,-4.6112,-4.6103,-4.6012,-4.5814,-4.5807,-4.58,-4.5793,-4.5754,-4.5708,-4.5692,-4.5646,-4.5603,-4.5594,-4.546,-4.5383,-4.5344,-4.4335,-4.4028,-4.4201,-4.2527,-4.1889,-4.1944,-4.1126,-4.0882,-4.1008,-4.1063,-4.1112,-4.1112,-4.1172,-4.1191,-4.1191,-4.1191,-4.1191,-4.1191,-4.1191,-4.1191,-4.1191,-4.1191,-4.1191,-4.1191,-4.1191,-4.1191,-4.1191,-4.1191,-4.1191,-4.1191,-4.1191,-4.1191,-4.1152,-4.1016,-4.1094,-4.1152,-4.0996,-4.1034,-4.1091,-4.1107,-4.1042,-4.1028,-4.1011,-4.0968,-4.0928,-4.0928,-4.0928,-4.0958,-4.1006,-4.102,-4.1037,-4.1095,-4.1104,-4.1109,-4.1109,-4.1109,-4.1109,-4.1109,-4.1109,-4.1109,-4.1109,-4.1109,-4.1109,-4.1109,-4.1109,-4.1109,-4.1109,-4.1109,-4.1109,-5.2972,-5.4357,-5.5568,-5.5665,-5.5756,-5.5595,-5.4786,-5.471,-5.4781,0.0,-5.3462,-5.2394,-5.2497,-5.1803,-5.0977,-5.0213,-4.9413,-4.8622,-4.7875,-4.7022,-4.6436,-4.63,-4.63,-4.6308,-4.6301,-4.6307,-4.6241,-4.6112,-4.6103,-4.6012,-4.5814,-4.5807,-4.5812,-4.5795,-4.5788,-4.5762,-4.569,-4.5701,-4.5648,-4.5594,-4.4836,-4.447,-4.4412,-4.2854,-4.2931,-4.4201,-4.2527,-4.1889,-4.1944,-4.1126,-4.0886,-4.102,-4.1064,-4.1132,-4.1191,-4.1191,-4.1191,-4.1191,-4.1191,-4.1191,-4.1191,-4.1191,-4.1191,-4.1191,-4.1191,-4.1191,-4.1191,-4.1191,-4.1191,-4.1191,-4.1191,-4.1191,-4.1191,-4.1191,-4.1191,-4.0996,-4.0234,-4.0664,-4.0976,-4.0215,-4.0624,-4.111,-4.1101,-4.1097,-4.1091,-4.1083,-4.108,-4.1078,-4.1078,-4.1078,-4.108,-4.1081,-4.1083,-4.1085,-4.1106,-4.1108,-4.1109,-4.1109,-4.1109,-4.1109,-4.1109,-4.1109,-4.1109,-4.1109,-4.1109,-4.1109,-4.1109,-4.1109,-4.1109,-4.1109,-4.1109,-4.1109,-5.2837,-5.4414,-5.5703,-5.5703,-5.5724,-5.5649,-5.5304,-5.5287,-5.5244,-5.4863,-5.3841,-5.3042,-5.3155,-5.2051,-5.0855,-4.9995,-4.9199,-4.8431,-4.764,-4.6835,-4.6294,-4.63,-4.63,-4.6308,-4.6301,-4.6307,-4.6263,-4.6156,-4.6126,-4.6037,-4.5854,-4.5867,-4.5845,-4.5807,-4.5765,-4.5727,-4.5701,-4.5657,-4.5631,-4.5594,-4.472,-4.4297,-4.4239,-4.2566,-4.22,-4.2835,-4.1604,-4.1138,-4.1248,-4.0932,-4.0882,-4.1013,-4.1064,-4.1112,-4.1152,-4.1191,-4.1191,-4.1191,-4.1191,-4.1191,-4.1191,-4.1191,-4.1191,-4.1191,-4.1191,-4.1191,-4.1191,-4.1191,-4.1191,-4.1191,-4.1191,-4.1191,-4.1191,-4.1191,-4.1191,-4.1094,-4.0703,-4.0937,-4.1094,-4.0703,-4.0878,-4.1091,-4.1108,-4.1102,-4.1098,-4.1095,-4.1091,-4.1109,-4.1109,-4.1109,-4.1109,-4.1109,-4.1109,-4.1109,-4.1109,-4.1109,-4.1109,-4.1109,-4.1109,-4.1109,-4.1109,-4.1576,-4.1596,-4.1109,-4.1109,-4.1109,-4.1109,-4.1109,-4.1109,-4.1109,-4.1109,-4.1109,-5.2529,-5.4107,-5.5395,-5.5395,-5.5549,-5.5703,0.0,0.0,-5.5576,0.0,-5.398,-5.329,-5.3014,-5.1722,-5.0364,-4.9271,-4.866,-4.8037,-4.7258,-4.6638,-4.6282,-4.6298,-4.63,-4.6308,-4.6301,-4.6307,-4.6266,-4.6204,-4.6141,-4.6063,-4.5922,-4.5925,-4.588,-4.5773,-4.5723,-4.5587,-4.5357,-4.5092,-4.496,-4.496,-4.4085,-4.3662,-4.3605,-4.2143,-4.1477,-4.1463,-4.0816,-4.0602,-4.0723,-4.08,-4.0896,-4.102,-4.1084,-4.1112,-4.1132,-4.1172,-4.1191,-4.1191,-4.1191,-4.1191,-4.1191,-4.1191,-4.1191,-4.1191,-4.1191,-4.1191,-4.1191,-4.1191,-4.1191,-4.1191,-4.1191,-4.1191,-4.1191,-4.1191,-4.1191,-4.1191,-4.1191,-4.1191,-4.1191,-4.1191,-4.1152,-4.1112,-4.1092,-4.1108,-4.1102,-4.1099,-4.1095,-4.1091,-4.1109,-4.1109,-4.1187,-4.14,-4.142,-4.1519,-4.1734,-4.1753,-4.1753,-4.1753,-4.1753,-4.1753,-4.1753,-4.2396,-4.2415,-4.1773,-4.1539,-4.1324,-4.1109,-4.1109,-4.1109,-4.1109,-4.1109,-4.1109,-5.1942,-5.3241,-5.4549,-5.4549,-5.5145,-5.5703,0.0,0.0,-5.5576,-5.4766,-5.3908,-5.2817,-5.1243,-5.0254,-4.9115,-4.7417,-4.7223,-4.7029,-4.6282,-4.6196,-4.6223,-4.6298,-4.63,-4.6308,-4.6301,-4.6305,-4.6269,-4.6204,-4.6199,-4.6141,-4.6007,-4.5989,-4.5919,-4.5715,-4.5708,-4.5282,-4.4382,-4.3605,-4.3239,-4.322,-4.2354,-4.1923,-4.1904,-4.0969,-4.0592,-4.0665,-4.0607,-4.0662,-4.0805,-4.0871,-4.0975,-4.1109,-4.1108,-4.1132,-4.1191,-4.1191,-4.1191,-4.1191,-4.1191,-4.1191,-4.1191,-4.1191,-4.1191,-4.1191,-4.1191,-4.1191,-4.1191,-4.1191,-4.1191,-4.1191,-4.1191,-4.1191,-4.1191,-4.1191,-4.1191,-4.1191,-4.1191,-4.1191,-4.1191,-4.1191,-4.1191,-4.1172,-4.1112,-4.1092,-4.1109,-4.11,-4.1098,-4.1097,-4.109,-4.1109,-4.142,-4.224,-4.2337,-4.2669,-4.3489,-4.3569,-4.3569,-4.3569,-4.3569,-4.3569,-4.3569,-4.3608,-4.3608,-4.3569,-4.2747,-4.1927,-4.1109,-4.1109,-4.1109,-4.1109,-4.1109,-4.1109,-5.1279,-5.2375,-5.353,-5.2972,-5.3895,-5.4934,-5.4934,-5.5359,-5.536,-5.3975,-5.3455,-5.2377,-4.9585,-4.932,-4.8974,-4.7275,-4.7083,-4.6886,-4.6141,-4.6091,-4.6173,-4.6296,-4.63,-4.6308,-4.6301,-4.6305,-4.6289,-4.6278,0.0,-4.6147,-4.6017,-4.5993,-4.5905,-4.5715,-4.5708,-4.5263,-4.4316,-4.3508,-4.3104,-4.3085,-4.222,-4.1788,-4.1769,-4.0893,-4.0549,-4.0668,-4.0713,-4.0776,-4.0864,-4.0942,-4.1022,-4.1093,-4.1149,-4.1172,-4.1191,-4.1191,-4.1191,-4.1191,-4.1191,-4.1191,-4.1191,-4.1191,-4.1191,-4.1191,-4.1191,-4.1191,-4.1191,-4.1191,-4.1191,-4.1191,-4.1191,-4.1191,-4.1191,-4.1191,-4.1191,-4.1191,-4.1191,-4.1191,-4.1191,-4.1191,-4.1191,-4.1191,-4.1172,-4.1132,-4.1091,-4.1105,-4.1101,-4.1097,-4.109,-4.1596,-4.2045,-4.2376,-4.2903,-4.3352,-4.3666,-4.3705,-4.3705,-4.3705,-4.3705,-4.3705,-4.3705,-4.4231,-4.427,-4.3705,-4.3391,-4.2806,-4.1927,-4.1363,-4.1109,-4.1109,-4.1109,-4.1109,-5.0115,-5.1116,-5.2242,0.0,-5.28,-5.4089,-5.4068,0.0,-5.4503,-5.3098,-5.282,-5.1857,-4.871,-4.888,-4.8857,-4.6855,-4.6584,-4.6468,-4.6032,-4.6033,-4.6151,-4.6275,-4.63,-4.6308,-4.6301,-4.6558,-4.6737,0.0,0.0,0.0,-4.6477,-4.6192,-4.5805,-4.531,-4.4712,-4.4094,-4.347,-4.2643,-4.222,-4.222,-4.1643,-4.1354,-4.1335,-4.0766,-4.0564,-4.0707,-4.0776,-4.0854,-4.0937,-4.1003,-4.1064,-4.1119,-4.1171,-4.1191,-4.1191,-4.1191,-4.1191,-4.1191,-4.1191,-4.1191,-4.1191,-4.1191,-4.1191,-4.1191,-4.1191,-4.1191,-4.1191,-4.1191,-4.1191,-4.1191,-4.1191,-4.1191,-4.1191,-4.1191,-4.1191,-4.1191,-4.1191,-4.1191,-4.1191,-4.1191,-4.1191,-4.1191,-4.1191,-4.1152,-4.1229,-4.1498,-4.1533,-4.1646,-4.1949,-4.2474,-4.2942,-4.3235,-4.3782,-4.425,-4.4543,-4.4563,-4.4563,-4.4563,-4.4563,-4.4563,-4.4563,-4.5129,-4.5168,-4.4582,-4.3998,-4.3411,-4.2825,-4.1674,-4.1109,-4.1109,-4.1109,-4.1109,0.0,0.0,0.0,-5.0623,0.0,0.0,-5.3097,0.0,-5.3013,-5.2136,-5.2029,-5.1315,-4.8724,-4.8938,-4.8661,-4.6084,-4.5709,-4.5791,-4.5917,-4.6027,-4.6146,-4.6275,-4.63,-4.6308,-4.634,-4.7102,-4.7614,0.0,-4.7614,-4.7535,-4.7418,-4.6547,-4.5587,-4.4519,-4.2749,-4.1797,-4.1788,-4.0931,-4.0496,-4.0496,-4.0496,-4.0496,-4.0496,-4.0496,-4.0559,-4.0706,-4.0766,-4.087,-4.1016,-4.107,-4.1098,-4.1108,-4.1171,-4.1191,-4.1191,-4.1191,-4.1191,-4.1191,-4.1191,-4.1191,-4.1191,-4.1191,-4.1191,-4.1191,-4.1191,-4.1191,-4.1191,-4.1191,-4.1191,-4.1211,-4.123,-4.123,-4.123,-4.1269,-4.1269,-4.1269,-4.1269,-4.1269,-4.1269,-4.123,-4.1269,-4.1269,-4.1269,-4.1269,-4.1542,-4.2318,-4.2434,-4.2743,-4.359,-4.3725,-4.4055,-4.4912,-4.501,-4.5382,-4.6222,-4.63,-4.63,-4.63,-4.63,-4.63,-4.63,-4.63,-4.63,-4.63,-4.4582,-4.3705,-4.3705,-4.1949,-4.1109,-4.1109,-4.1109,-4.1109,-4.7747,0.0,0.0,0.0,0.0,0.0,0.0,0.0,-5.2136,-5.1297,-5.1644,-5.1501,-4.9563,-4.9379,-4.9033,-4.7643,-4.6992,-4.6684,-4.6818,-4.6411,-4.6146,-4.6275,-4.63,-4.6542,-4.7179,-4.7454,0.0,0.0,-4.7966,-4.7535,-4.7418,-4.5845,-4.4813,-4.4511,-4.2799,-4.1848,-4.1788,-4.0931,-4.0496,-4.0496,-4.0496,-4.0496,-4.0496,-4.0496,-4.0559,-4.0706,-4.0766,-4.0878,-4.1013,-4.1067,-4.1105,-4.1108,-4.1171,-4.1191,-4.1191,-4.1191,-4.1191,-4.1191,-4.1191,-4.1191,-4.1191,-4.1191,-4.1191,-4.1191,-4.1191,-4.1191,-4.1191,-4.1191,-4.1191,-4.1328,-4.1914,-4.207,-4.2226,-4.2851,-4.3008,-4.3008,-4.3008,-4.3008,-4.2812,-4.2187,-4.2578,-4.3008,-4.3008,-4.3008,-4.3086,-4.3318,-4.3335,-4.3428,-4.3675,-4.4255,-4.4738,-4.4971,-4.5558,-4.6046,-4.628,-4.63,-4.63,-4.63,-4.63,-4.63,-4.63,-4.63,-4.63,-4.63,-4.4582,-4.3705,-4.3705,-4.1949,-4.1109,-4.1109,-4.1109,-4.1109,-4.6975,-4.7331,-4.7797,-4.7229,0.0,0.0,-4.8957,-5.0015,0.0,0.0,-5.0998,-5.1195,-4.9858,-4.984,-4.9744,-4.8797,-4.8312,-4.7844,-4.7278,-4.6853,-4.6532,-4.6312,-4.63,-4.664,-4.7512,-4.7923,-4.8492,-4.9375,-4.8942,-4.8117,-4.6929,-4.5,-4.3803,-4.3472,-4.2082,-4.1343,-4.1301,-4.0773,-4.0496,-4.0496,-4.0496,-4.0496,-4.0496,-4.0496,-4.0559,-4.0706,-4.0766,-4.0882,-4.1019,-4.1073,-4.1107,-4.1108,-4.1171,-4.1191,-4.1191,-4.1191,-4.1191,-4.1191,-4.1191,-4.1191,-4.1191,-4.1191,-4.1191,-4.1191,-4.1191,-4.1191,-4.1191,-4.1191,-4.1191,-4.1387,-4.2187,-4.2402,-4.2617,-4.3496,-4.3691,-4.3691,-4.3691,-4.3984,-4.3984,-4.3105,-4.3359,-4.3691,-4.3691,-4.3691,-4.3828,-4.4198,-4.4235,-4.4368,-4.4733,-4.5234,-4.5542,-4.5539,-4.6007,-4.63,-4.63,-4.63,-4.63,-4.63,-4.63,-4.63,-4.63,-4.63,-4.63,-4.63,-4.4582,-4.3334,-4.2612,-4.1597,-4.1109,-4.1109,-4.1109,-4.1109,-4.6313,-4.6643,-4.7165,-4.7092,-4.7611,0.0,-4.806,-4.8717,-4.9355,0.0,-5.007,-5.0376,-4.9602,-5.0044,-5.0245,-4.9394,-4.94,-4.9042,-4.7686,-4.7451,-4.7229,-4.6644,-4.6573,-4.6913,-4.7785,-4.8587,-4.9391,-5.0273,-5.0093,-4.887,-4.6391,-4.4321,-4.2884,-4.2175,-4.1133,-4.0595,-4.0607,-4.0531,-4.0496,-4.0496,-4.0496,-4.0496,-4.0496,-4.0496,-4.0559,-4.0706,-4.0766,-4.0882,-4.1003,-4.1073,-4.1107,-4.1108,-4.1171,-4.1191,-4.1191,-4.1191,-4.1191,-4.1191,-4.1191,-4.1191,-4.1191,-4.1191,-4.1191,-4.1191,-4.1191,-4.1191,-4.1191,-4.1191,-4.1191,-4.1406,-4.2305,-4.2539,-4.2793,-4.3769,-4.3984,-4.3984,-4.3984,-4.4609,-4.4922,-4.4141,-4.3984,-4.3984,-4.3984,-4.3984,-4.4258,-4.5038,-4.5135,-4.5426,-4.6199,-4.6294,-4.629,-4.6303,-4.6302,-4.63,-4.63,-4.63,-4.63,-4.63,-4.63,-4.63,-4.63,-4.63,-4.63,-4.63,-4.4582,-4.2886,-4.1246,-4.1148,-4.1109,-4.1109,-4.1109,-4.1109,-4.6301,-4.6343,-4.6408,-4.6325,-4.6381,0.0,-4.6385,-4.7035,-4.7669,0.0,-4.8322,-4.8815,-4.8585,-4.8678,-4.8684,-4.8412,-4.8996,-4.9455,-4.9302,-4.8759,-4.8339,-4.8302,-4.831,0.0,-4.9523,-4.9777,-5.023,-5.1094,-4.9807,-4.8446,-4.7202,-4.4738,-4.3259,-4.3053,-4.1452,-4.0605,-4.0607,-4.0531,-4.0496,-4.0496,-4.0496,-4.0496,-4.0496,-4.0496,-4.0559,-4.0706,-4.0766,-4.0871,-4.102,-4.1076,-4.1107,-4.1108,-4.1171,-4.1191,-4.1191,-4.1191,-4.1191,-4.1191,-4.1191,-4.1191,-4.1191,-4.1191,-4.1191,-4.1191,-4.1191,-4.1191,-4.1191,-4.1191,-4.1191,-4.1543,-4.3066,-4.3457,-4.3848,-4.543,-4.5781,-4.5781,-4.5781,-4.5937,-4.5996,-4.582,-4.5781,-4.5781,-4.5781,-4.5781,-4.5859,-4.6015,-4.6054,-4.6111,-4.6286,-4.63,-4.6293,-4.6291,-4.6305,-4.63,-4.63,-4.63,-4.63,-4.63,-4.63,-4.63,-4.63,-4.63,-4.63,-4.63,-4.4582,-4.3196,-4.2142,-4.1439,-4.1109,-4.1109,-4.1109,-4.1109,-4.63,-4.629,-4.6231,-4.6161,-4.6091,0.0,0.0,-4.6658,-4.7259,-4.724,-4.7894,-4.8437,-4.8368,0.0,-4.8282,-4.8206,-4.8618,-4.9144,-4.9726,-4.9474,-4.9294,-4.9434,-4.9442,0.0,-5.0655,-5.0754,-5.0934,-5.1367,-5.0139,-4.8794,-4.7525,-4.5293,-4.3638,-4.2734,-4.1338,-4.06,-4.0598,-4.0527,-4.0496,-4.0496,-4.0496,-4.0496,-4.0496,-4.0496,-4.0559,-4.0706,-4.0762,-4.0887,-4.1003,-4.108,-4.111,-4.111,-4.1172,-4.1191,-4.1191,-4.1191,-4.1191,-4.1191,-4.1191,-4.1191,-4.1191,-4.1191,-4.1191,-4.1191,-4.1191,-4.1191,-4.1191,-4.1191,-4.1484,-4.209,-4.3379,-4.4023,-4.4687,-4.5996,-4.6308,-4.6308,-4.6308,-4.6308,-4.6308,-4.6308,-4.6308,-4.6308,-4.6308,-4.6308,-4.6308,-4.6308,-4.6308,-4.6308,-4.6307,-4.6304,-4.63,-4.6294,-4.6309,-4.6305,-4.6302,-4.63,-4.63,-4.63,-4.63,-4.63,-4.63,-4.63,-4.6105,-4.5656,-4.4797,-4.3704,-4.2396,-4.2396,-4.2162,-4.1752,-4.1752,-4.1986,-4.63,-4.6294,-4.6284,-4.6223,-4.6189,-4.6131,0.0,0.0,0.0,0.0,0.0,0.0,0.0,0.0,0.0,0.0,0.0,0.0,0.0,-4.9659,0.0,-5.0313,0.0,0.0,-5.1573,-5.1654,-5.158,-5.1405,-5.0536,-4.9425,-4.8072,-4.5917,-4.4074,-4.2655,-4.1293,-4.0595,-4.0595,-4.0534,-4.0496,-4.0496,-4.0496,-4.0496,-4.0496,-4.0496,-4.0559,-4.0706,-4.0777,-4.0878,-4.1008,-4.1062,-4.1112,-4.1112,-4.1172,-4.1191,-4.1191,-4.1191,-4.1191,-4.1191,-4.1191,-4.1191,-4.1191,-4.1191,-4.1191,-4.1191,-4.1191,-4.1191,-4.123,-4.1387,-4.1894,-4.2637,-4.3672,-4.4473,-4.5215,-4.6094,-4.6308,-4.6308,-4.6308,-4.6308,-4.6308,-4.6308,-4.6308,-4.6308,-4.6308,-4.6308,-4.6308,-4.6308,-4.6308,-4.6308,-4.6307,-4.6307,-4.6305,-4.6296,-4.6294,-4.6309,-4.6302,-4.63,-4.63,-4.63,-4.63,-4.63,-4.63,-4.63,-4.5968,-4.5265,-4.5088,-4.4307,-4.2903,-4.343,-4.3255,-4.2396,-4.2572,-4.3021,0.0,0.0,0.0,0.0,-4.6275,-4.6273,0.0,0.0,-4.6303,-4.6251,0.0,0.0,0.0,0.0,0.0,0.0,0.0,0.0,-4.7658,-4.9009,-5.0306,-5.1156,0.0,0.0,0.0,-5.2557,-5.2226,-5.1463,-5.0581,-5.0004,-4.9801,-4.6631,-4.4664,-4.4399,-4.1931,-4.0595,-4.0595,-4.0534,-4.0496,-4.0496,-4.0496,-4.0496,-4.0496,-4.0496,-4.0559,-4.0706,-4.0777,-4.0886,-4.1018,-4.1064,-4.1132,-4.1191,-4.1191,-4.1191,-4.1191,-4.1191,-4.1191,-4.1191,-4.1191,-4.1191,-4.1191,-4.1191,-4.1191,-4.1191,-4.1191,-4.1191,-4.1348,-4.2051,-4.2324,-4.2773,-4.4433,-4.4922,-4.5215,-4.6094,-4.6308,-4.6308,-4.6308,-4.6308,-4.6308,-4.6308,-4.6308,-4.6308,-4.6308,-4.6308,-4.6308,-4.6308,-4.6308,-4.6308,-4.6308,-4.6308,-4.6306,-4.6301,-4.6296,-4.6309,-4.6302,-4.63,-4.63,-4.63,-4.63,-4.63,-4.63,-4.63,-4.6241,-4.6144,-4.5382,-4.4893,-4.4697,-4.4036,-4.3255,-4.2415,-4.3196,-4.3606,0.0,0.0,0.0,0.0,0.0,0.0,-4.63,0.0,-4.6231,0.0,0.0,0.0,0.0,0.0,0.0,0.0,-4.6351,0.0,0.0,0.0,-4.9259,0.0,0.0,0.0,0.0,0.0,0.0,0.0,-5.1054,-5.0621,-5.0137,-4.7215,-4.5317,-4.4762,-4.2053,-4.0595,-4.0595,-4.0534,-4.0496,-4.0496,-4.0496,-4.0496,-4.0496,-4.0496,-4.0559,-4.0706,-4.0771,-4.0877,-4.1001,-4.1107,-4.1172,-4.1191,-4.1191,-4.1191,-4.1191,-4.1191,-4.1191,-4.1191,-4.1191,-4.1191,-4.1191,-4.1191,-4.1191,-4.1191,-4.1191,-4.1523,-4.1973,-4.2305,-4.3125,-4.4082,-4.4805,-4.5371,-4.5859,-4.6211,-4.6308,-4.6308,-4.6308,-4.6308,-4.6308,-4.6308,-4.6308,-4.6308,-4.6308,-4.6308,-4.6308,-4.6308,-4.6308,-4.6308,-4.6308,-4.6308,-4.6307,-4.6302,-4.63,-4.6294,-4.6302,-4.63,-4.63,-4.63,-4.63,-4.63,-4.63,-4.63,-4.63,-4.63,-4.5948,-4.5519,-4.499,-4.5148,-4.4758,-4.3917,-4.4289,-4.4738,-4.6248,0.0,0.0,0.0,0.0,0.0,0.0,0.0,0.0,0.0,0.0,0.0,0.0,0.0,0.0,-4.615,0.0,-4.6387,0.0,0.0,0.0,0.0,0.0,0.0,0.0,0.0,0.0,0.0,0.0,-5.1112,-5.048,-4.8113,-4.6507,-4.5857,-4.3123,-4.1547,-4.1309,-4.1031,-4.0754,-4.0496,-4.0496,-4.0496,-4.0496,-4.0496,-4.0559,-4.0706,-4.0781,-4.088,-4.1001,-4.1147,-4.1191,-4.1191,-4.1191,-4.1191,-4.1191,-4.1191,-4.1191,-4.1191,-4.1191,-4.1191,-4.1191,-4.1191,-4.1191,-4.123,-4.1465,-4.1933,-4.25,-4.2988,-4.4023,-4.5058,-4.5293,-4.582,-4.6308,-4.6308,-4.6308,-4.6308,-4.6308,-4.6308,-4.6308,-4.6308,-4.6308,-4.6308,-4.6308,-4.6308,-4.6308,-4.6308,-4.6308,-4.6308,-4.6308,-4.6308,-4.6308,-4.6304,-4.6302,-4.6297,-4.6305,-4.6302,-4.63,-4.63,-4.63,-4.63,-4.63,-4.63,-4.63,-4.63,-4.63,-4.5987,-4.5363,-4.5987,-4.5968,-4.5363,-4.5363,-4.5695,0.0,0.0,0.0,-4.63,0.0,0.0,0.0,0.0,-4.63,0.0,0.0,0.0,0.0,0.0,-4.6298,-4.6298,-4.6298,0.0,0.0,0.0,0.0,0.0,0.0,0.0,0.0,0.0,0.0,0.0,-5.1406,0.0,-5.136,-4.9552,-4.8511,-4.8481,-4.5815,-4.397,-4.3122,-4.2287,-4.1401,-4.0496,-4.0496,-4.0496,-4.0496,-4.0496,-4.0559,-4.0706,-4.0781,-4.088,-4.1001,-4.1147,-4.1191,-4.1191,-4.1191,-4.1191,-4.1191,-4.1191,-4.1191,-4.1191,-4.1191,-4.1191,-4.1191,-4.1191,-4.1191,-4.1348,-4.2129,-4.2383,-4.2754,-4.4433,-4.4961,-4.5195,-4.6035,-4.6289,-4.6308,-4.6308,-4.6308,-4.6308,-4.6308,-4.6308,-4.6308,-4.6308,-4.6308,-4.6308,-4.6308,-4.6308,-4.6308,-4.6308,-4.6308,-4.6308,-4.6308,-4.6308,-4.6308,-4.6307,-4.6304,-4.63,-4.6293,-4.6305,-4.63,-4.63,-4.63,-4.63,-4.63,-4.63,-4.63,-4.63,-4.63,-4.628,-4.6261,-4.628,-4.628,-4.6261,-4.6261,-4.6261,0.0,0.0,-4.5447,-4.5443,0.0,0.0,0.0,0.0,0.0,0.0,0.0,0.0,0.0,0.0,-4.7159,-4.7159,-4.6671,-4.63,0.0,0.0,0.0,0.0,0.0,0.0,0.0,0.0,0.0,0.0,-5.1406,0.0,0.0,-4.9611,-4.8608,-4.8597,-4.5932,-4.4081,-4.3217,-4.234,-4.1447,-4.0565,-4.0523,-4.0496,-4.0496,-4.0496,-4.0559,-4.0706,-4.0781,-4.088,-4.1001,-4.1147,-4.1191,-4.1191,-4.1191,-4.1191,-4.1191,-4.1191,-4.1191,-4.1191,-4.1191,-4.1191,-4.1191,-4.1191,-4.1562,-4.2031,-4.2324,-4.3203,-4.4238,-4.4824,-4.543,-4.5937,-4.6211,-4.6308,-4.6308,-4.6308,-4.6308,-4.6308,-4.6308,-4.6308,-4.6308,-4.6308,-4.6308,-4.6308,-4.6308,-4.6308,-4.6308,-4.6308,-4.6308,-4.6308,-4.6308,-4.6308,-4.6308,-4.6307,-4.6306,-4.6304,-4.63,-4.6294,-4.6309,-4.6309,-4.6303,-4.63,-4.63,-4.63,-4.63,-4.63,-4.63,-4.63,-4.63,-4.63,-4.63,-4.63,-4.63,-4.63,-4.2689,-4.3406,0.0,-4.4084,-4.4727,0.0,-4.5763,0.0,-4.5841,0.0,0.0,0.0,0.0,0.0,-4.7969,-4.7655,-4.7129,-4.6758,0.0,-4.6758,0.0,0.0,0.0,0.0,0.0,0.0,-5.1406,-5.1406,-5.1406,0.0,0.0,0.0,-4.9554,-4.9521,-4.7177,-4.5336,-4.4148,-4.2949,-4.1759,-4.0607,-4.0531,-4.0496,-4.0496,-4.0496,-4.0559,-4.0706,-4.0781,-4.088,-4.1001,-4.1147,-4.1191,-4.1191,-4.1191,-4.1191,-4.1191,-4.1191,-4.1191,-4.1191,-4.1191,-4.1191,-4.125,-4.1523,-4.1973,-4.2519,-4.3144,-4.4101,-4.5058,-4.5371,-4.5879,-4.6308,-4.6308,-4.6308,-4.6308,-4.6308,-4.6308,-4.6308,-4.6308,-4.6308,-4.6308,-4.6308,-4.6308,-4.6308,-4.6308,-4.6308,-4.6308,-4.6308,-4.6308,-4.6308,-4.6308,-4.6308,-4.6308,-4.6308,-4.6307,-4.6306,-4.6302,-4.6299,-4.6295,-4.6293,-4.6308,-4.6303,-4.63,-4.63,-4.63,-4.63,-4.63,-4.63,-4.63,-4.63,-4.63,-4.63,-4.63,-4.63]},{"header":{"parameterUnit":"m.s-1","parameterCategory":1,"la1":30.6,"la2":29.2853,"lo1":-89.7004,"lo2":-87.6739,"dy":0.0162,"dx":0.0183,"nx":112,"ny":82,"refTime":"2026-04-23T12:00:00:Z","depth":0,"parameterNumber":3,"parameterNumberName":"V-component_of_WINDS"},"data":[0.0,0.0,0.0,0.0,0.0,0.0,0.0,0.0,0.0,0.0,0.0,0.0,0.0,0.0,0.0,0.0,0.0,0.0,0.0,0.0,0.0,0.0,0.0,0.0,0.0,0.0,0.0,0.0,0.0,0.0,0.0,0.0,0.0,0.0,0.0,0.0,0.0,0.0,0.0,0.0,0.0,0.0,0.0,0.0,0.0,0.0,0.0,0.0,0.0,0.0,0.0,0.0,0.0,0.0,0.0,0.0,0.0,0.0,0.0,0.0,0.0,0.0,0.0,0.0,0.0,0.0,0.0,0.0,0.0,0.0,0.0,0.0,0.0,0.0,0.0,0.0,0.0,0.0,0.0,0.0,0.0,0.0,0.0,0.0,0.0,0.0,0.0,0.0,0.0,0.0,-1.2393,-1.2621,-1.3218,-1.4081,-1.5318,-1.6455,-1.7427,-1.8145,0.0,0.0,0.0,0.0,0.0,0.0,0.0,0.0,0.0,0.0,0.0,0.0,0.0,0.0,0.0,0.0,0.0,0.0,0.0,0.0,0.0,0.0,0.0,0.0,0.0,0.0,0.0,0.0,0.0,0.0,0.0,0.0,0.0,0.0,0.0,0.0,0.0,0.0,0.0,0.0,0.0,0.0,0.0,0.0,0.0,0.0,0.0,0.0,0.0,0.0,0.0,0.0,0.0,0.0,0.0,0.0,0.0,0.0,0.0,0.0,0.0,0.0,0.0,0.0,0.0,0.0,0.0,0.0,0.0,0.0,0.0,0.0,0.0,0.0,0.0,0.0,0.0,0.0,0.0,0.0,0.0,0.0,0.0,0.0,0.0,0.0,0.0,0.0,0.0,0.0,0.0,0.0,0.0,0.0,0.0,0.0,0.0,0.0,0.0,0.0,0.0,0.0,0.0,0.0,-1.2487,-1.2962,-1.3254,-1.3951,-1.5166,-1.6435,-1.7492,-1.8151,0.0,0.0,0.0,0.0,0.0,0.0,0.0,0.0,0.0,0.0,0.0,0.0,0.0,0.0,0.0,0.0,0.0,0.0,0.0,0.0,0.0,0.0,0.0,0.0,0.0,0.0,0.0,0.0,0.0,0.0,0.0,0.0,0.0,0.0,0.0,0.0,0.0,0.0,0.0,0.0,0.0,0.0,0.0,0.0,0.0,0.0,0.0,0.0,0.0,0.0,0.0,0.0,0.0,0.0,0.0,0.0,0.0,0.0,0.0,0.0,0.0,0.0,0.0,0.0,0.0,0.0,0.0,0.0,0.0,0.0,0.0,0.0,0.0,0.0,0.0,0.0,0.0,0.0,0.0,0.0,0.0,0.0,0.0,0.0,0.0,0.0,0.0,0.0,0.0,0.0,0.0,0.0,0.0,0.0,0.0,0.0,0.0,0.0,0.0,0.0,0.0,0.0,0.0,-1.2047,-1.2677,-1.3315,-1.3646,-1.4329,-1.5633,-1.6828,-1.7746,-1.824,-1.868,0.0,0.0,0.0,0.0,0.0,0.0,0.0,0.0,0.0,0.0,0.0,0.0,0.0,0.0,0.0,0.0,0.0,0.0,0.0,0.0,0.0,0.0,0.0,0.0,0.0,0.0,0.0,0.0,0.0,0.0,0.0,0.0,0.0,0.0,0.0,0.0,0.0,0.0,0.0,0.0,0.0,0.0,0.0,0.0,0.0,0.0,0.0,0.0,0.0,0.0,0.0,0.0,0.0,0.0,0.0,0.0,0.0,0.0,0.0,0.0,0.0,0.0,0.0,0.0,0.0,0.0,0.0,0.0,0.0,0.0,0.0,0.0,0.0,0.0,0.0,0.0,0.0,0.0,0.0,0.0,0.0,0.0,0.0,0.0,0.0,0.0,0.0,0.0,0.0,0.0,0.0,0.0,0.0,0.0,0.0,0.0,0.0,0.0,0.0,0.0,0.0,0.0,-1.2238,-1.2796,-1.3602,-1.4032,-1.4808,-1.6201,-1.728,-1.7986,-1.8307,-1.8563,0.0,0.0,0.0,0.0,0.0,0.0,0.0,0.0,0.0,0.0,0.0,0.0,0.0,0.0,0.0,0.0,0.0,0.0,0.0,0.0,0.0,0.0,0.0,0.0,0.0,0.0,0.0,0.0,0.0,0.0,0.0,0.0,0.0,0.0,0.0,0.0,0.0,0.0,0.0,0.0,0.0,0.0,0.0,0.0,0.0,0.0,0.0,0.0,0.0,0.0,0.0,0.0,0.0,0.0,0.0,0.0,0.0,0.0,0.0,0.0,0.0,0.0,0.0,0.0,0.0,0.0,0.0,0.0,0.0,0.0,0.0,0.0,0.0,0.0,0.0,0.0,0.0,0.0,0.0,0.0,0.0,0.0,0.0,0.0,0.0,0.0,0.0,0.0,0.0,0.0,0.0,0.0,0.0,0.0,0.0,0.0,0.0,0.0,0.0,0.0,0.0,0.0,-1.2087,-1.2692,-1.3761,-1.4478,-1.531,-1.6467,-1.7536,-1.8204,-1.8303,-1.8131,0.0,0.0,0.0,0.0,0.0,0.0,0.0,0.0,0.0,0.0,0.0,0.0,0.0,0.0,0.0,0.0,0.0,0.0,0.0,0.0,0.0,0.0,0.0,0.0,0.0,0.0,0.0,0.0,0.0,0.0,0.0,0.0,0.0,0.0,0.0,0.0,0.0,0.0,0.0,0.0,0.0,0.0,0.0,0.0,0.0,0.0,0.0,0.0,0.0,0.0,0.0,0.0,0.0,0.0,0.0,0.0,0.0,0.0,0.0,0.0,0.0,0.0,0.0,0.0,0.0,0.0,0.0,0.0,0.0,0.0,0.0,0.0,0.0,0.0,0.0,0.0,0.0,0.0,0.0,0.0,0.0,0.0,0.0,0.0,0.0,0.0,0.0,0.0,0.0,0.0,0.0,0.0,0.0,0.0,0.0,0.0,0.0,0.0,0.0,0.0,0.0,0.0,-1.1871,-1.2641,-1.3796,-1.4721,-1.5609,-1.6546,-1.7593,-1.821,-1.8071,0.0,0.0,0.0,0.0,0.0,0.0,0.0,0.0,0.0,0.0,0.0,0.0,0.0,0.0,0.0,0.0,0.0,0.0,0.0,0.0,0.0,0.0,0.0,0.0,0.0,0.0,0.0,0.0,0.0,0.0,0.0,0.0,0.0,0.0,0.0,0.0,0.0,0.0,0.0,0.0,0.0,0.0,0.0,0.0,0.0,0.0,0.0,0.0,0.0,0.0,0.0,0.0,0.0,0.0,0.0,0.0,0.0,0.0,0.0,0.0,0.0,0.0,0.0,0.0,0.0,0.0,0.0,0.0,0.0,0.0,0.0,0.0,0.0,0.0,0.0,0.0,0.0,0.0,0.0,0.0,0.0,0.0,0.0,0.0,0.0,0.0,0.0,0.0,0.0,0.0,0.0,0.0,0.0,0.0,0.0,0.0,0.0,0.0,0.0,0.0,0.0,0.0,-1.0908,-1.1545,-1.2414,-1.3644,-1.4623,-1.55,-1.6428,-1.7439,-1.7991,-1.7786,0.0,0.0,0.0,0.0,0.0,0.0,0.0,0.0,0.0,0.0,0.0,0.0,0.0,0.0,0.0,0.0,0.0,0.0,0.0,0.0,0.0,0.0,0.0,0.0,0.0,0.0,0.0,0.0,0.0,0.0,0.0,0.0,0.0,0.0,0.0,0.0,0.0,0.0,0.0,0.0,0.0,0.0,0.0,0.0,0.0,0.0,0.0,0.0,0.0,0.0,0.0,0.0,0.0,0.0,0.0,0.0,0.0,0.0,0.0,0.0,0.0,0.0,0.0,0.0,0.0,0.0,0.0,0.0,0.0,0.0,0.0,0.0,0.0,0.0,0.0,0.0,0.0,0.0,0.0,0.0,0.0,0.0,0.0,0.0,0.0,0.0,0.0,0.0,0.0,0.0,0.0,0.0,0.0,0.0,0.0,0.0,0.0,0.0,0.0,0.0,0.0,0.0,-1.0684,-1.128,-1.2104,-1.3465,-1.4217,-1.5008,-1.611,-1.698,-1.7463,0.0,0.0,0.0,0.0,0.0,0.0,0.0,0.0,0.0,0.0,0.0,0.0,0.0,0.0,0.0,0.0,0.0,0.0,0.0,0.0,0.0,0.0,0.0,0.0,0.0,0.0,0.0,0.0,0.0,0.0,0.0,0.0,0.0,0.0,0.0,0.0,0.0,0.0,0.0,0.0,0.0,0.0,0.0,0.0,0.0,0.0,0.0,0.0,0.0,0.0,0.0,0.0,0.0,0.0,0.0,0.0,0.0,0.0,0.0,0.0,0.0,0.0,0.0,0.0,0.0,0.0,0.0,0.0,0.0,0.0,0.0,0.0,0.0,0.0,0.0,0.0,0.0,0.0,0.0,0.0,0.0,0.0,0.0,0.0,0.0,0.0,0.0,0.0,0.0,0.0,0.0,0.0,0.0,0.0,0.0,0.0,0.0,0.0,0.0,0.0,0.0,0.0,0.0,-1.0213,-1.083,-1.1606,-1.261,-1.3509,-1.437,-1.4956,-1.5952,-1.6441,-1.633,0.0,0.0,0.0,0.0,0.0,0.0,0.0,0.0,0.0,0.0,0.0,0.0,0.0,0.0,0.0,0.0,0.0,0.0,0.0,0.0,0.0,0.0,0.0,0.0,0.0,0.0,0.0,0.0,0.0,0.0,0.0,0.0,0.0,0.0,0.0,0.0,0.0,0.0,0.0,0.0,0.0,0.0,0.0,0.0,0.0,0.0,0.0,0.0,0.0,0.0,0.0,0.0,0.0,0.0,0.0,0.0,0.0,0.0,0.0,0.0,0.0,0.0,0.0,0.0,0.0,0.0,0.0,0.0,0.0,0.0,0.0,0.0,0.0,0.0,0.0,0.0,0.0,0.0,0.0,0.0,0.0,0.0,0.0,0.0,0.0,0.0,0.0,0.0,0.0,0.0,0.0,0.0,0.0,0.0,0.0,0.0,0.0,0.0,0.0,0.0,0.0,0.0,-0.9773,-1.0459,-1.1129,-1.1916,-1.2561,-1.3168,-1.3705,-1.4557,-1.5034,-1.5134,0.0,0.0,0.0,0.0,0.0,0.0,0.0,0.0,0.0,0.0,0.0,0.0,0.0,0.0,0.0,0.0,0.0,0.0,0.0,0.0,0.0,0.0,0.0,0.0,0.0,0.0,0.0,0.0,0.0,0.0,0.0,0.0,0.0,0.0,0.0,0.0,0.0,0.0,0.0,0.0,0.0,0.0,0.0,0.0,0.0,0.0,0.0,0.0,0.0,0.0,0.0,0.0,0.0,0.0,0.0,0.0,0.0,0.0,0.0,0.0,0.0,0.0,0.0,0.0,0.0,0.0,0.0,0.0,0.0,0.0,0.0,0.0,0.0,0.0,0.0,0.0,0.0,0.0,0.0,0.0,0.0,0.0,0.0,0.0,0.0,0.0,0.0,0.0,0.0,0.0,0.0,0.0,0.0,0.0,0.0,0.0,0.0,0.0,0.0,0.0,0.0,0.0,-0.9465,-0.998,-1.0622,-1.126,-1.1402,-1.1764,-1.25,-1.3017,-1.3502,-1.4072,0.0,0.0,0.0,0.0,0.0,0.0,0.0,0.0,0.0,0.0,0.0,0.0,0.0,0.0,0.0,0.0,0.0,0.0,0.0,0.0,0.0,0.0,0.0,0.0,0.0,0.0,0.0,0.0,0.0,0.0,0.0,0.0,0.0,0.0,0.0,0.0,0.0,0.0,0.0,0.0,0.0,0.0,0.0,0.0,0.0,0.0,0.0,0.0,0.0,0.0,0.0,0.0,0.0,0.0,0.0,0.0,0.0,0.0,0.0,0.0,-0.7428,0.0,0.0,0.0,0.0,0.0,0.0,0.0,0.0,0.0,0.0,0.0,0.0,0.0,0.0,0.0,0.0,0.0,0.0,0.0,0.0,0.0,0.0,0.0,0.0,0.0,0.0,0.0,0.0,0.0,0.0,0.0,0.0,0.0,0.0,0.0,0.0,0.0,0.0,0.0,0.0,0.0,-0.8995,-0.9613,-1.0072,-1.0222,-1.0696,-1.1149,-1.1574,-1.2196,-1.2733,-1.3174,-1.3897,0.0,0.0,0.0,0.0,0.0,0.0,0.0,0.0,0.0,0.0,0.0,0.0,0.0,0.0,0.0,0.0,0.0,0.0,0.0,0.0,0.0,0.0,0.0,0.0,0.0,0.0,0.0,0.0,0.0,0.0,0.0,0.0,0.0,0.0,0.0,0.0,0.0,0.0,0.0,0.0,0.0,0.0,0.0,0.0,0.0,0.0,0.0,0.0,0.0,0.0,0.0,0.0,0.0,0.0,0.0,0.0,0.0,0.0,0.0,0.0,-0.7173,0.0,0.0,0.0,0.0,0.0,0.0,0.0,0.0,0.0,0.0,0.0,0.0,0.0,0.0,0.0,0.0,0.0,0.0,0.0,0.0,0.0,0.0,0.0,0.0,0.0,0.0,0.0,0.0,0.0,0.0,0.0,0.0,0.0,0.0,0.0,0.0,0.0,0.0,0.0,0.0,-0.8781,-0.914,-0.9536,-0.972,-1.0067,-1.0379,-1.0811,-1.1185,-1.1698,-1.2264,-1.3039,0.0,0.0,0.0,0.0,0.0,0.0,0.0,0.0,0.0,0.0,0.0,0.0,0.0,0.0,0.0,0.0,0.0,0.0,0.0,0.0,0.0,0.0,0.0,0.0,0.0,0.0,0.0,0.0,0.0,0.0,0.0,0.0,0.0,0.0,0.0,0.0,0.0,0.0,0.0,0.0,0.0,0.0,0.0,0.0,0.0,0.0,0.0,0.0,0.0,0.0,0.0,0.0,0.0,0.0,-0.032,-0.0906,-0.1552,-0.2137,-0.2854,-0.4599,-0.568,-0.6368,-0.6981,0.0,0.0,0.0,0.0,0.0,0.0,0.0,0.0,0.0,0.0,0.0,0.0,0.0,0.0,0.0,0.0,0.0,0.0,0.0,0.0,0.0,0.0,0.0,0.0,-0.9585,-0.9479,0.0,0.0,0.0,0.0,0.0,0.0,0.0,0.0,0.0,0.0,0.0,0.0,-0.8618,-0.8804,-0.9009,-0.9434,-0.9507,-0.9734,-1.0103,-1.0333,-1.0755,-1.1487,-1.2309,-1.3019,0.0,0.0,0.0,0.0,0.0,0.0,0.0,0.0,0.0,0.0,0.0,0.0,0.0,0.0,0.0,0.0,0.0,0.0,0.0,0.0,0.0,0.0,0.0,0.0,0.0,0.0,0.0,0.0,0.0,0.0,0.0,0.0,0.2993,0.3275,0.0,0.0,0.0,0.0,0.0,0.0,0.0,0.0,0.0,0.0,0.0,0.0,0.0,0.0504,0.0505,0.0192,0.0,0.0,0.0,-0.0197,-0.0591,-0.0986,-0.1389,-0.1805,-0.2373,0.0,-0.5272,-0.5964,0.0,0.0,0.0,0.0,0.0,0.0,0.0,0.0,0.0,0.0,0.0,0.0,0.0,0.0,0.0,0.0,0.0,0.0,0.0,0.0,0.0,0.0,-0.9324,-0.9324,-0.9037,-0.8848,0.0,-0.9309,-0.944,-0.8885,-0.8557,0.0,0.0,0.0,0.0,0.0,0.0,0.0,-0.8472,-0.8645,-0.8798,-0.895,-0.9241,-0.9455,-0.9489,-1.0004,-1.0512,-1.0958,-1.1904,-1.2676,-1.3162,-1.389,0.0,0.0,0.0,0.0,0.0,0.0,0.0,0.0,0.0,0.0,0.0,0.0,0.0,0.0,0.0,0.0,0.0,0.0,0.0,0.0,0.0,0.0,0.0,0.0,0.0,0.0,0.0,0.0,0.0,0.3096,0.3898,0.4373,0.4891,0.5006,0.0,0.0,0.0,0.0,0.0,0.0,0.0,0.0,0.0,0.1561,0.1258,0.1077,0.1086,0.0772,0.0648,0.0588,0.0394,0.0199,0.0067,-0.0267,-0.0535,-0.074,-0.0869,-0.166,-0.2899,-0.4341,-0.545,-0.6299,0.0,0.0,0.0,0.0,-0.8285,-0.8337,-0.8576,-0.8714,-0.8763,-0.8763,0.0,0.0,0.0,0.0,0.0,0.0,0.0,0.0,0.0,0.0,-0.9032,-0.9032,-0.8869,-0.8726,-0.8798,-0.8989,-0.9096,0.0,-0.8601,-0.8394,-0.8116,0.0,0.0,0.0,0.0,-0.8116,-0.8336,-0.8421,-0.8489,-0.8557,-0.867,-0.8828,-0.8984,-0.9325,-0.9803,-1.0531,-1.124,-1.19,-1.2448,-1.2924,-1.3205,0.0,0.0,0.0,0.0,0.0,0.0,0.0,0.0,0.0,0.0,0.0,0.0,0.0,0.0,0.0,0.0,0.0,0.0,0.0,0.0,0.0,0.0,0.0,0.0,0.0,0.0,0.0,0.0,0.4204,0.4938,0.5573,0.6263,0.6348,0.0,0.0,0.0,0.0,0.0,0.0,0.211,0.2035,0.1985,0.2029,0.1719,0.1539,0.1621,0.1237,0.1114,0.1126,0.0663,0.0533,0.0471,0.0135,0.0,0.0,0.0,-0.0337,-0.1075,-0.2816,-0.4146,-0.5297,-0.6262,-0.6931,-0.736,-0.7978,-0.8218,-0.8302,-0.8514,-0.8665,-0.8716,-0.868,-0.8555,-0.8458,-0.8598,0.0,0.0,0.0,0.0,-0.8974,-0.8937,-0.8877,-0.8768,-0.8771,-0.8737,-0.8672,-0.8754,-0.8828,-0.8794,0.0,-0.8587,-0.8435,-0.8347,0.0,0.0,0.0,0.0,-0.8096,-0.8252,-0.8323,-0.8337,-0.8374,-0.8378,-0.8426,-0.8632,-0.8782,-0.919,-0.9947,-1.0639,-1.1202,-1.1673,-1.2038,-1.2399,-1.2811,0.0,0.0,0.0,0.0,0.0,0.0,0.0,0.0,0.0,0.0,0.0,0.0,0.0,0.0,0.0,0.0,0.0,0.0,0.0,0.0,0.0,0.0,0.0,0.0,0.0,0.0,0.0,0.0,0.0,0.7136,0.7707,0.0,0.0,0.0,0.0,0.4376,0.3498,0.2834,0.2521,0.2234,0.2123,0.2126,0.1763,0.1579,0.158,0.1268,0.1075,0.1076,0.0672,0.0471,0.0471,0.0135,0.0,0.0,0.0,-0.0202,-0.0605,-0.1654,-0.2892,-0.4323,-0.547,-0.6413,-0.7077,-0.7548,-0.784,-0.7917,-0.7807,-0.7919,-0.8149,-0.7969,-0.7954,-0.793,-0.8041,-0.812,0.0,0.0,-0.8439,-0.8414,-0.8283,-0.8314,-0.8429,-0.8484,-0.8491,-0.8574,-0.8811,-0.8818,-0.872,0.0,-0.8587,-0.8435,-0.8347,0.0,-0.7982,-0.7988,-0.7988,-0.8096,-0.8252,-0.8323,-0.8374,-0.8459,-0.8472,-0.8472,-0.8521,-0.8738,-0.8986,-0.914,-1.0137,-1.0756,-1.086,-1.1624,-1.2047,-1.2057,-1.2468,0.0,0.0,0.0,0.0,0.0,0.0,0.0,0.0,0.0,0.0,0.0,0.0,0.0,0.0,0.0,0.0,0.0,0.0,0.0,0.0,0.0,0.0,0.0,0.0,0.0,0.0,0.0,0.0,0.8596,0.9248,0.0,0.862,0.7801,0.6828,0.5701,0.4419,0.3431,0.2981,0.2412,0.2102,0.2188,0.1982,0.192,0.2005,0.1797,0.1735,0.1818,0.1401,0.1195,0.1195,0.0592,0.0328,0.0328,0.0066,-0.0066,-0.0197,-0.0586,-0.1624,-0.3176,-0.4192,-0.5197,-0.6075,-0.6865,-0.735,-0.7625,-0.7765,-0.7864,-0.798,-0.7801,-0.7886,-0.7979,-0.7982,-0.818,-0.8308,-0.8275,-0.8265,-0.8235,-0.8099,-0.8117,-0.8183,-0.8333,-0.8418,-0.8513,-0.8621,-0.8679,-0.8679,-0.8581,-0.852,-0.8465,-0.8414,-0.8119,-0.7892,-0.7892,-0.7892,-0.7913,-0.7967,-0.8062,-0.814,-0.8191,-0.8197,-0.8197,-0.8197,-0.8248,-0.8423,-0.8621,-0.9014,-0.9387,-0.9776,-1.0068,-1.0427,-1.0983,-1.1243,-1.1538,0.0,0.0,0.0,0.0,0.0,0.0,0.0,0.0,0.0,0.0,0.0,0.0,0.0,0.0,0.0,0.0,0.0,0.0,0.0,0.0,0.0,0.0,0.0,0.0,0.0,0.8322,0.8913,0.9574,1.0133,1.0259,0.9585,0.8937,0.8012,0.688,0.5571,0.4446,0.3748,0.2911,0.2461,0.2339,0.2186,0.2114,0.219,0.2104,0.2104,0.219,0.1775,0.157,0.157,0.0843,0.0517,0.0452,0.0129,0.0,0.0,0.0,-0.0708,-0.1919,-0.291,-0.3946,-0.5088,-0.6164,-0.683,-0.7322,-0.7747,-0.7818,-0.7739,-0.7663,-0.7674,-0.7745,-0.7745,-0.7945,-0.8078,-0.7996,-0.7973,-0.7932,-0.7756,-0.7804,-0.7898,-0.8002,-0.8115,-0.8233,-0.8282,-0.8345,-0.8424,-0.8324,-0.8315,-0.8333,-0.8333,-0.8004,-0.7756,-0.7804,-0.7811,-0.7831,-0.7882,-0.7928,-0.7988,-0.7988,-0.7988,-0.7988,-0.7988,-0.7988,-0.8088,-0.8237,-0.8333,-0.8581,-0.8935,-0.9084,-0.948,-1.0117,-1.048,-1.0732,-1.0925,0.0,0.0,0.0,0.0,0.0,0.0,0.0,0.0,0.0,0.0,0.0,0.0,0.0,0.0,0.0,0.0,0.0,0.0,0.0,0.0,0.0,0.0,0.0,0.8988,0.9245,0.9702,1.0174,1.0392,1.037,1.0045,0.9594,0.8939,0.7919,0.6909,0.5915,0.4807,0.3802,0.3073,0.2638,0.2305,0.2093,0.2128,0.2127,0.2127,0.2064,0.1676,0.1547,0.1482,0.0838,0.0516,0.0516,0.0193,0.0,0.0,0.0,-0.0192,-0.0568,-0.1575,-0.2771,-0.4087,-0.5384,-0.6274,-0.7011,-0.7625,-0.7717,-0.7519,-0.7519,-0.7434,-0.728,-0.728,-0.7421,-0.7516,-0.7513,-0.751,-0.7451,-0.7267,-0.7371,-0.7564,-0.7437,-0.7473,-0.7628,-0.7857,-0.7882,-0.7891,-0.7888,-0.7922,-0.7971,-0.7982,-0.779,-0.7645,-0.7784,-0.7807,0.0,-0.7965,-0.7985,-0.7988,-0.7988,-0.7985,-0.7982,-0.7982,-0.7978,-0.7975,-0.7975,-0.8219,-0.8368,-0.8368,-0.8871,-0.9316,-0.9562,-1.0159,-1.0348,-1.0154,0.0,0.0,0.0,0.0,0.0,0.0,0.0,0.0,0.0,0.0,0.0,0.0,0.0,0.0,0.0,0.0,0.0,0.0,0.0,0.0,0.0,0.9771,1.0139,1.0022,1.0142,1.0287,1.0571,1.0617,1.059,1.0528,1.0325,0.989,0.9201,0.8366,0.7257,0.6004,0.4713,0.3701,0.303,0.2389,0.205,0.2128,0.2042,0.2042,0.2128,0.1914,0.184,0.184,0.1444,0.1251,0.1188,0.0625,0.0375,0.0313,0.0125,-0.0062,-0.0187,-0.1005,-0.1941,-0.3039,-0.4071,-0.5477,-0.695,-0.7383,-0.7537,-0.7519,-0.7519,-0.7434,-0.728,-0.728,-0.7421,-0.75,-0.7355,-0.7323,-0.722,-0.707,-0.718,-0.7315,-0.7281,-0.7408,-0.758,-0.762,-0.7623,-0.7672,-0.7566,-0.7538,-0.7624,-0.7838,-0.7723,-0.7614,-0.7651,-0.7746,0.0,-0.7868,-0.7921,-0.7988,-0.7988,-0.7891,-0.7875,-0.7875,-0.778,-0.7723,-0.7723,-0.7767,-0.791,-0.8097,-0.824,-0.8526,-0.8946,-0.9145,-0.9208,0.0,0.0,0.0,0.0,0.0,0.0,0.0,0.0,0.0,0.0,0.0,0.0,0.0,0.0,0.0,0.0,0.0,0.0,0.0,0.0,0.0,0.0,1.0045,1.0419,1.0568,1.0585,1.0619,1.0711,1.0721,1.0721,1.0721,1.0639,1.0425,0.9911,0.9312,0.8355,0.7117,0.5809,0.4709,0.3753,0.2864,0.24,0.2279,0.2072,0.2009,0.2027,0.2009,0.2001,0.2001,0.1674,0.1482,0.1482,0.0803,0.0494,0.0494,0.0123,0.0,0.0,0.0,0.0,0.0,0.0,-0.4965,-0.6458,-0.695,-0.7228,-0.7442,-0.7442,-0.7361,-0.726,-0.726,-0.7277,-0.7279,-0.7209,-0.71,-0.6991,-0.6926,-0.6959,-0.7009,-0.7009,-0.7087,-0.7093,-0.7071,-0.7066,-0.7017,-0.6937,-0.7073,0.0,-0.7363,-0.7469,-0.7526,-0.759,-0.7719,-0.7834,-0.7899,-0.788,-0.7894,-0.7894,-0.7811,-0.7723,-0.7723,-0.7648,0.0,0.0,0.0,-0.7738,-0.7969,-0.8063,0.0,0.0,0.0,0.0,0.0,0.0,0.0,0.0,-0.9531,-0.9688,0.0,0.0,0.0,0.0,0.0,0.0,0.0,0.0,0.0,0.0,0.0,0.0,0.0,0.0,0.0,0.0,1.031,1.0544,1.07,1.0721,1.0721,1.0721,1.0721,1.0721,1.0721,1.0721,1.0588,1.0256,0.9971,0.9309,0.8154,0.0,0.0,0.0,0.0,0.2939,0.259,0.2161,0.1977,0.1977,0.1977,0.1977,0.1977,0.1667,0.1544,0.1544,0.0864,0.0556,0.0556,0.0123,0.0,0.0,-0.0062,-0.0432,-0.1235,-0.3082,-0.4573,-0.571,-0.6377,0.0,0.0,-0.728,-0.7252,-0.721,-0.721,-0.713,-0.6986,-0.6986,-0.6888,-0.6785,-0.6798,-0.6793,-0.6782,-0.6782,-0.6605,-0.6384,-0.6371,-0.6339,-0.6276,-0.6276,-0.6577,-0.6795,-0.6795,-0.7153,-0.7444,-0.758,-0.7736,-0.7879,-0.7948,-0.7882,-0.778,-0.7763,0.0,0.0,-0.7522,-0.7509,-0.7499,-0.7499,-0.7516,-0.7622,-0.7869,-0.8145,-0.8374,-0.8606,-0.8732,-0.8718,-0.8612,-0.8612,-0.8526,-0.8321,-0.8321,-0.841,0.0,0.0,0.0,0.0,0.0,0.0,0.0,0.0,0.0,0.0,0.0,0.0,0.0,0.0,0.0,1.0185,1.0382,1.0544,1.07,1.0721,1.0721,1.0721,1.0721,1.0721,1.0721,1.0721,1.0654,1.0588,1.0409,1.0,0.9128,0.8217,0.7147,0.5731,0.4417,0.3459,0.29,0.2285,0.1977,0.1977,0.0,0.0,0.1977,0.1915,0.1915,0.1853,0.1173,0.0926,0.0864,0.0247,0.0,0.0,-0.0309,-0.0617,-0.1173,-0.2652,-0.3905,-0.505,-0.5953,-0.6715,-0.728,-0.728,-0.7252,-0.721,-0.721,-0.713,0.0,-0.6986,-0.6825,-0.6676,-0.6777,-0.6728,-0.6654,-0.6654,-0.6492,-0.6363,-0.632,-0.6331,-0.6276,-0.6276,-0.6577,-0.6795,-0.6795,-0.7236,-0.7567,-0.7594,-0.7824,-0.7914,-0.7868,-0.7729,-0.7594,-0.7468,-0.7217,-0.7014,-0.7014,-0.6946,-0.6875,-0.6875,-0.699,-0.7109,-0.7269,-0.7722,-0.7994,-0.8035,-0.8456,-0.8645,-0.8612,-0.8612,-0.8592,-0.8559,-0.8559,-0.8575,0.0,0.0,0.0,0.0,0.0,0.0,0.0,0.0,0.0,0.0,0.0,0.8936,0.9265,0.0,1.0036,1.0337,1.051,1.0633,1.0711,1.0721,1.0721,1.0721,1.0721,1.0721,1.0721,1.0721,1.0687,1.0612,1.0534,1.0235,0.9519,0.8929,0.8016,0.6724,0.5559,0.4493,0.3699,0.2901,0.2407,0.2222,0.2099,0.1977,0.1977,0.1977,0.1968,0.1893,0.1282,0.0972,0.0905,0.0241,0.0,0.0,-0.0181,-0.0364,-0.0671,-0.1951,-0.3181,-0.4288,-0.5463,-0.6474,-0.7244,-0.7244,-0.7203,-0.721,-0.721,-0.7032,-0.6893,-0.6893,-0.6717,-0.657,-0.6755,-0.6665,-0.6492,-0.6605,-0.6434,-0.6227,-0.6111,-0.604,-0.6003,-0.6003,-0.6308,-0.6612,-0.6612,-0.6998,-0.737,-0.737,-0.756,-0.7648,-0.7449,-0.7353,-0.7234,-0.716,-0.6949,-0.6814,-0.6814,-0.6746,-0.6702,-0.6702,-0.6773,-0.6848,-0.6915,-0.7304,-0.7558,-0.7726,-0.8127,-0.8392,-0.8612,-0.8612,-0.8612,-0.8612,-0.8612,-0.8612,0.0,0.0,0.0,0.0,0.0,0.0,0.0,0.5978,0.7296,0.8165,0.8893,0.9469,0.9768,0.9971,1.0248,1.0449,1.0619,1.0721,1.0721,1.0721,1.0721,1.0721,1.0721,1.0721,1.0721,1.0721,1.0656,1.0504,1.0466,1.0206,0.9692,0.9398,0.8773,0.7694,0.6766,0.5784,0.4684,0.3698,0.2955,0.2579,0.2152,0.1964,0.1959,0.1959,0.1945,0.1862,0.1321,0.0954,0.0766,0.0295,0.0059,0.0,0.0,0.0,-0.0179,-0.1438,-0.2649,-0.3785,-0.5047,-0.6238,-0.721,-0.721,-0.7193,-0.7177,-0.7177,-0.6956,-0.6766,-0.6766,-0.6605,-0.6435,-0.6709,-0.6586,-0.6434,-0.6554,-0.6309,-0.6024,-0.5923,-0.5814,-0.5688,-0.5688,-0.608,-0.6384,-0.6384,-0.6763,-0.7065,-0.7092,-0.7248,-0.7272,-0.7075,-0.693,-0.6829,-0.6844,-0.6705,-0.6614,-0.6614,-0.6614,-0.6627,-0.6654,-0.6658,-0.6668,-0.6698,-0.6947,-0.7212,-0.7508,-0.7731,-0.806,-0.8376,-0.8456,-0.8472,-0.8472,-0.8552,-0.8612,0.0101,0.0614,0.098,0.1471,0.2253,0.3244,0.0,0.5978,0.722,0.8202,0.89,0.9469,0.9768,1.0059,1.0307,1.0466,1.0619,1.0721,1.0721,1.0721,1.0721,1.0721,1.0721,1.0721,1.0721,1.0721,1.0656,1.0504,1.0375,1.0229,0.9997,0.9798,0.9413,0.8668,0.7986,0.7065,0.5722,0.443,0.3486,0.2841,0.2237,0.1922,0.1896,0.1896,0.1894,0.1891,0.1536,0.1003,0.0471,0.0412,0.0236,0.0,0.0,0.0,-0.0174,-0.141,-0.2625,-0.3785,-0.5047,-0.6238,-0.721,-0.721,-0.7141,-0.7005,-0.7005,-0.6834,-0.6641,-0.6641,-0.6492,-0.6416,-0.6603,-0.6464,-0.6317,-0.6429,-0.6184,-0.592,-0.5907,-0.5814,-0.5688,-0.5688,-0.608,-0.6384,-0.6384,-0.6686,-0.6953,-0.7078,-0.7109,-0.7068,-0.6927,-0.682,-0.6675,-0.6536,-0.6433,-0.6351,-0.6351,-0.6351,-0.6402,-0.6528,-0.6538,-0.6559,-0.6695,-0.6947,-0.7116,-0.7134,-0.7349,-0.7488,-0.7549,-0.7912,-0.8072,-0.8076,-0.8452,-0.8612,-0.005,0.0254,0.0517,0.1015,0.1753,0.2746,0.4071,0.564,0.7045,0.7962,0.8924,0.973,1.0032,1.0259,1.0453,1.0602,1.0677,1.0721,1.0721,1.0721,1.0721,1.0721,1.0721,1.0721,1.0721,1.0721,1.0622,1.0385,1.0314,1.0175,0.9869,0.9856,0.9579,0.9095,0.8662,0.7805,0.6521,0.5168,0.4034,0.3195,0.2292,0.1915,0.1886,0.1886,0.1817,0.1626,0.1438,0.0974,0.0401,0.0401,0.0229,0.0,0.0,0.0,-0.017,-0.1386,-0.2585,-0.3788,-0.5032,-0.6189,-0.7199,-0.713,-0.7024,-0.6972,-0.6902,-0.6757,-0.6619,-0.6619,-0.6478,-0.6398,-0.6449,-0.6391,-0.6263,-0.6238,-0.6062,-0.5885,-0.5817,-0.5723,-0.5688,-0.5688,-0.608,-0.6384,-0.6384,-0.6605,-0.6817,-0.6875,-0.6807,-0.6702,-0.6559,-0.6485,-0.646,-0.6395,-0.6334,-0.63,-0.63,-0.63,-0.6323,-0.6385,-0.6388,-0.6419,-0.648,-0.6564,-0.6722,-0.6935,-0.702,-0.7148,-0.7409,-0.7564,-0.7774,-0.8002,-0.8158,-0.838,-0.0098,0.0,0.0102,0.0557,0.1235,0.2103,0.3416,0.5054,0.6589,0.7724,0.8807,0.9697,1.0209,1.0365,1.0497,1.0687,1.0721,1.0721,1.0721,1.0721,1.0721,1.0721,1.0721,1.0721,1.0721,1.0721,1.0599,1.0304,1.028,1.0148,0.9836,0.9822,0.97,0.9457,0.9217,0.8482,0.7194,0.5821,0.4614,0.3532,0.2386,0.189,0.1861,0.1861,0.1733,0.1484,0.1466,0.1121,0.0561,0.0561,0.0336,0.0,0.0,0.0,-0.0112,-0.1194,-0.2321,-0.3526,-0.4756,-0.591,-0.6874,-0.6847,-0.6883,-0.6869,-0.6779,-0.6665,-0.6567,-0.6567,-0.6454,-0.6379,-0.6399,-0.6304,-0.6187,-0.6064,-0.5945,-0.5833,-0.5707,-0.5688,-0.5688,-0.5688,-0.608,-0.6375,-0.6339,-0.6528,-0.6685,-0.6644,-0.6552,-0.6416,-0.6313,-0.63,-0.63,-0.63,-0.63,-0.63,-0.63,-0.63,-0.63,-0.63,-0.63,-0.63,-0.63,-0.63,-0.6429,-0.6658,-0.6658,-0.6795,-0.7112,-0.7197,-0.7402,-0.7689,-0.7912,-0.8154,0.0,0.0,0.0049,0.0352,0.0808,0.1587,0.302,0.4308,0.5721,0.7445,0.8428,0.9222,1.0108,1.0283,1.0382,1.0673,1.0721,1.0721,1.0721,1.0721,1.0721,1.0721,1.0721,1.0721,1.0721,1.0721,1.0599,1.0304,1.028,1.0148,0.9836,0.9822,0.9822,0.9761,0.9761,0.915,0.7869,0.6545,0.5195,0.3882,0.2494,0.1827,0.1797,0.1797,0.1797,0.1796,0.1795,0.1458,0.0897,0.0897,0.0561,0.0,0.0,0.0,-0.0056,-0.0673,-0.1682,-0.2912,-0.4088,-0.5208,-0.6172,-0.6436,-0.6555,-0.663,-0.6627,-0.6489,-0.6392,-0.6392,-0.6389,-0.6363,-0.6301,-0.6184,-0.6062,-0.5937,-0.582,-0.5694,-0.5691,-0.5688,-0.5688,-0.5688,-0.608,-0.6345,-0.6223,-0.6466,-0.6651,-0.6542,-0.6399,-0.6306,-0.63,-0.63,-0.63,-0.63,-0.63,-0.63,-0.63,-0.63,-0.63,-0.63,-0.63,-0.63,-0.63,-0.63,-0.6303,-0.6306,-0.6306,-0.631,-0.6352,-0.6658,-0.6812,-0.6863,-0.7632,-0.8002,0.0,0.0,0.0,0.0101,0.0255,0.0674,0.1707,0.3231,0.4782,0.6194,0.7895,0.926,0.9863,1.0226,1.0487,1.0687,1.0721,1.0721,1.0721,1.0721,1.0721,1.0721,1.0721,1.0721,1.0721,1.0721,0.0,1.0304,1.028,1.0148,0.9836,0.9822,0.9822,0.9822,0.9822,0.9166,0.781,0.6508,0.5166,0.3764,0.2451,0.1805,0.1795,0.1795,0.1795,0.1795,0.1795,0.1458,0.0897,0.0897,0.0561,0.0,0.0,0.0,-0.0056,-0.0443,-0.0993,-0.1708,-0.3306,-0.4571,-0.5565,-0.5922,-0.6269,-0.6603,-0.647,-0.6419,-0.6387,-0.6387,-0.6382,-0.6298,-0.6179,-0.6056,-0.5934,-0.5817,-0.5718,-0.5688,-0.5688,-0.5688,-0.5688,-0.5688,-0.5952,-0.6172,-0.6042,-0.6253,-0.6412,-0.6369,-0.633,-0.63,-0.63,-0.63,-0.63,-0.63,-0.63,-0.63,-0.63,-0.63,-0.63,-0.63,-0.63,-0.63,-0.63,-0.63,-0.63,-0.63,-0.63,-0.63,-0.63,-0.6429,-0.6659,-0.7002,-0.7428,-0.7804,0.0,0.0,0.0,0.0,0.0,0.0207,0.1112,0.2467,0.3952,0.5342,0.7215,0.8831,0.9482,1.0027,1.0483,1.0687,1.0721,1.0721,1.0721,1.0721,1.0721,1.0721,1.0721,1.0721,1.0721,1.0721,1.0599,1.0304,1.028,1.0148,0.9836,0.9822,0.9822,0.9822,0.9771,0.9096,0.7687,0.6419,0.4846,0.3019,0.2199,0.1795,0.1795,0.1795,0.1795,0.1795,0.1795,0.1458,0.0897,0.0897,0.0561,0.0,0.0,0.0,0.0,-0.022,-0.038,-0.0806,-0.2485,-0.3689,-0.4622,-0.5091,-0.5565,-0.5979,-0.5959,-0.6037,-0.6137,-0.6239,-0.6257,-0.6289,-0.6119,-0.5994,-0.5874,-0.5715,-0.5688,-0.5688,-0.5688,-0.5688,-0.5688,-0.5688,-0.5908,-0.6028,-0.5855,-0.6013,-0.6197,-0.6288,-0.63,-0.63,-0.63,-0.63,-0.63,-0.63,-0.63,-0.63,-0.63,-0.63,-0.63,-0.63,-0.63,-0.63,-0.63,-0.63,-0.63,-0.63,-0.63,-0.63,-0.63,-0.6377,-0.6578,-0.6914,-0.7341,-0.7711,0.0,0.0,0.0,0.0,0.0,0.0204,0.1057,0.197,0.3149,0.4872,0.6457,0.7892,0.9016,0.9825,1.0375,1.0663,1.0721,1.0731,1.0731,1.0731,1.0731,1.0731,1.0724,1.0721,1.0721,1.0721,1.0599,1.0304,0.0,1.0148,0.9836,0.9822,0.9822,0.9822,0.9683,0.9004,0.7679,0.6221,0.426,0.1795,0.1795,0.1795,0.1795,0.1795,0.1795,0.1795,0.1795,0.1457,0.0896,0.0896,0.056,0.0,0.0,0.0,0.0,0.0,0.0,-0.0208,-0.1638,-0.2573,-0.3311,-0.3933,-0.4396,-0.4784,-0.5037,-0.5334,-0.5629,-0.5882,-0.6098,-0.6273,-0.6108,-0.5986,-0.5869,-0.5715,-0.5688,-0.5688,-0.5688,-0.5688,-0.5688,-0.5688,-0.5899,-0.5987,-0.5751,-0.5811,-0.598,-0.6261,-0.63,-0.63,-0.63,-0.63,-0.63,-0.63,-0.63,-0.63,-0.63,-0.63,-0.63,-0.63,-0.63,-0.63,-0.63,-0.63,-0.63,-0.63,-0.63,-0.63,-0.63,-0.649,-0.6602,-0.6648,-0.7369,-0.769,0.0,0.0,0.0,0.0,0.0,0.0104,0.053,0.1345,0.2368,0.3605,0.5516,0.7213,0.8211,0.944,1.0341,1.0521,1.0741,1.0823,1.0823,1.0823,1.0823,1.0823,1.0792,1.0721,1.0721,1.0721,1.0599,0.0,1.028,1.0148,0.9836,0.9822,0.9822,0.9822,0.9683,0.8956,0.7613,0.5264,0.3319,0.1795,0.1795,0.1795,0.1795,0.1795,0.1795,0.1795,0.1795,0.1448,0.088,0.088,0.0551,0.0,0.0,0.0,0.0,0.0,0.0,-0.0104,-0.0668,-0.1378,-0.2133,-0.2692,-0.3188,-0.3676,-0.4178,-0.4585,-0.5029,-0.5478,-0.5825,-0.5988,-0.5958,-0.5863,-0.5723,-0.5696,-0.5688,-0.5688,-0.5688,-0.5688,-0.5688,-0.5688,-0.5629,-0.5653,-0.588,-0.5774,-0.5831,-0.6222,-0.63,-0.63,-0.63,-0.63,-0.63,-0.63,-0.63,-0.63,-0.63,-0.63,-0.63,-0.63,-0.63,-0.63,-0.63,-0.63,-0.63,-0.63,-0.63,-0.63,-0.63,-0.6335,-0.6525,-0.6834,-0.7292,-0.7649,0.0,0.0,0.0,0.0,0.0,0.0052,0.0319,0.0918,0.1714,0.2884,0.4733,0.6416,0.7606,0.9057,1.0193,1.0466,1.0748,1.0857,1.0789,1.084,1.0857,1.0789,1.0772,1.0721,1.0721,1.0721,1.0599,1.0304,1.028,1.0148,0.9836,0.9822,0.9822,0.9822,0.9618,0.858,0.666,0.4632,0.2971,0.1795,0.1795,0.1795,0.1795,0.1795,0.1795,0.1794,0.0,0.1434,0.0874,0.0922,0.0541,0.0,0.0,0.0,0.0,0.0,0.0,0.0,-0.0152,-0.0505,-0.1009,-0.1665,-0.2169,-0.262,-0.3123,-0.3628,-0.411,-0.4801,-0.5284,-0.5629,-0.5721,-0.5729,-0.5688,-0.5688,-0.5688,-0.5688,-0.5688,-0.5688,-0.5688,-0.5688,-0.5537,-0.5535,-0.5951,-0.5774,-0.5754,-0.6222,-0.63,-0.63,-0.63,-0.63,-0.63,-0.63,-0.63,-0.63,-0.63,-0.63,-0.63,-0.63,-0.63,-0.63,-0.63,-0.63,-0.63,-0.63,-0.63,-0.63,-0.63,-0.6374,-0.6563,-0.676,-0.7211,-0.7529,0.0,0.0,0.0,0.0,0.0,0.0052,0.0319,0.0595,0.1107,0.234,0.4008,0.5623,0.7008,0.8661,0.9905,1.0307,1.0654,1.0809,1.0765,1.0796,1.0833,1.0765,1.0731,1.0721,1.0721,1.0704,1.0575,1.03,1.0259,1.0124,0.9836,0.9822,0.9802,0.9764,0.9396,0.8024,0.553,0.4309,0.3138,0.1908,0.1851,0.1851,0.1795,0.1795,0.1795,0.1793,0.1818,0.1474,0.0925,0.091,0.0532,0.0,0.0,0.0,0.0,0.0,0.0,0.0,0.0,0.0,-0.0101,-0.0808,-0.1211,-0.1513,-0.2017,-0.2533,-0.3073,-0.3905,-0.4602,-0.5148,-0.5428,-0.5631,-0.5688,-0.5688,-0.5688,-0.5688,-0.5688,-0.5688,-0.5686,-0.5667,-0.5523,-0.5529,-0.5927,-0.5762,-0.5754,-0.6222,-0.63,-0.63,-0.63,-0.63,-0.63,-0.63,-0.63,-0.63,-0.63,-0.63,-0.63,-0.63,-0.63,-0.63,-0.63,-0.63,-0.63,-0.63,-0.6261,-0.6261,-0.6261,-0.6409,-0.6486,-0.6528,-0.7027,-0.7263,0.0,0.0,0.0,0.0,0.0,0.0,0.0053,0.0109,0.0449,0.1431,0.3197,0.49,0.5955,0.8103,0.9698,0.9901,1.0365,1.0795,1.0826,1.0863,1.087,1.0843,1.0799,1.0721,1.0721,1.0605,1.0463,0.0,1.0161,0.995,0.9829,0.9822,0.971,0.9466,0.8648,0.7568,0.6151,0.4925,0.3755,0.2525,0.2244,0.202,0.1795,0.1795,0.1795,0.1793,0.1818,0.0,0.0909,0.0893,0.0522,0.0,0.0,0.0,0.0,0.0,0.0,0.0,0.0,0.0,0.0,-0.0152,-0.0252,-0.0353,-0.0909,-0.1378,-0.1913,-0.2919,-0.3812,-0.4546,-0.4994,-0.5387,-0.5688,-0.5688,-0.5688,-0.5688,-0.5688,-0.5688,-0.5659,-0.5559,-0.5466,-0.5501,-0.5804,-0.5698,-0.5754,-0.6222,-0.63,-0.63,-0.63,-0.63,-0.63,-0.63,-0.63,-0.63,-0.63,-0.63,-0.63,-0.63,-0.63,-0.63,-0.63,-0.63,-0.63,-0.63,-0.6099,-0.598,-0.598,-0.5828,-0.5867,-0.6022,-0.6275,-0.6546,-0.0257,-0.0102,0.0,0.0,0.0,0.0,0.0,0.0,0.0281,0.119,0.2831,0.4472,0.5633,0.7599,0.9158,0.9481,0.9872,1.0282,1.0484,1.0624,1.0711,1.0772,1.0765,1.0721,1.0721,1.0582,1.0432,1.029,1.0137,0.992,0.9829,0.9751,0.9608,0.9388,0.8612,0.7678,0.671,0.5539,0.4367,0.3138,0.2692,0.2244,0.1795,0.1795,0.1787,0.1825,0.1739,0.0,0.0893,0.0877,0.0512,0.0,0.0,0.0,0.0,0.0,0.0,0.0,0.0,0.0,0.0,0.0,0.0,-0.0051,-0.0455,-0.0786,-0.1238,-0.2145,-0.2962,-0.3717,-0.4295,-0.4877,-0.5371,-0.5508,-0.5644,-0.5688,-0.5688,-0.5688,-0.5653,-0.5532,-0.5453,-0.5496,-0.577,-0.5683,-0.5754,-0.6222,-0.63,-0.63,-0.63,-0.63,-0.63,-0.63,-0.63,-0.63,-0.63,-0.63,-0.63,-0.63,-0.63,-0.63,-0.63,-0.63,-0.63,-0.63,-0.6022,-0.5744,-0.5431,-0.5237,-0.5004,-0.481,-0.4967,-0.5133,-0.0629,-0.0261,0.0,0.0,0.0,0.0,0.0,0.0,0.0224,0.1065,0.2636,0.421,0.5397,0.7218,0.8644,0.9055,0.9414,0.9717,1.0009,1.0197,1.0443,1.0601,1.0654,1.0707,1.0673,1.0534,0.0,1.0243,1.0059,0.9842,0.9781,0.9669,0.9523,0.9337,0.8705,0.8013,0.7321,0.6207,0.5091,0.3971,0.3362,0.2747,0.2187,0.2131,0.2056,0.1967,0.1879,0.1477,0.0,0.0814,0.0505,0.0,0.0,0.0,0.0,0.0,0.0,0.0,0.0,0.0,0.0,0.0,0.0,-0.005,-0.0251,-0.044,-0.071,-0.1374,-0.2076,-0.2732,-0.3492,-0.4251,-0.4966,-0.5371,-0.5597,-0.5688,-0.5688,-0.5688,-0.5645,-0.5497,-0.5434,-0.5487,-0.5734,-0.5665,-0.5754,-0.6222,-0.63,-0.63,-0.63,-0.63,-0.63,-0.63,-0.63,-0.63,-0.63,-0.63,-0.63,-0.63,-0.63,-0.63,-0.63,-0.63,-0.63,-0.63,-0.5983,-0.5589,-0.5082,-0.4807,-0.4416,-0.3912,-0.3989,-0.4004,-0.1009,-0.0425,0.0,0.0,0.0,0.0,0.0,0.0,0.0168,0.0785,0.2443,0.4042,0.4745,0.6736,0.8349,0.859,0.9067,0.9395,0.9521,0.9921,1.0206,1.0259,1.0522,1.0666,1.0527,1.0385,1.0236,1.0017,0.9808,0.9642,0.9629,0.9615,0.9476,0.9241,0.8877,0.8408,0.7934,0.7046,0.6154,0.5202,0.4646,0.4033,0.3419,0.3138,0.2833,0.2514,0.2255,0.1688,0.0,0.0814,0.0505,0.0,0.0,0.0,0.0,0.0,0.0,0.0,0.0,0.0,0.0,0.0,0.0,0.0,-0.0049,-0.0048,-0.0186,-0.0649,-0.1141,-0.1749,-0.2732,-0.3673,-0.4567,-0.5463,-0.5688,-0.5688,-0.5688,-0.5688,-0.5621,-0.5431,-0.5418,-0.5462,-0.558,-0.5607,-0.5754,-0.6222,-0.63,-0.63,-0.63,-0.63,-0.63,-0.63,-0.63,-0.63,-0.63,-0.63,-0.63,-0.63,-0.63,-0.63,-0.63,-0.63,-0.63,-0.63,-0.587,-0.5518,-0.5282,-0.4893,-0.4579,-0.4343,-0.4162,-0.4063,-0.1628,-0.0866,-0.0217,-0.0054,0.0,0.0,0.0,0.0,0.0168,0.0785,0.2158,0.3519,0.4337,0.607,0.7475,0.7954,0.8344,0.8724,0.9113,0.9372,0.9624,0.9742,0.9864,0.9941,0.0,0.0,0.9545,0.9492,0.9553,0.953,0.9344,0.9337,0.9337,0.9214,0.8957,0.8716,0.8546,0.7823,0.7099,0.6429,0.5873,0.5232,0.4466,0.4025,0.3533,0.3017,0.2576,0.1869,0.0,0.1064,0.0707,0.0253,0.0253,0.0152,0.0,0.0,0.0,0.0,0.0,0.0,0.0,0.0,0.0,0.0,0.0,0.0,-0.0093,-0.0416,-0.0729,-0.1166,-0.2017,-0.3048,-0.4032,-0.4703,-0.4973,-0.5151,-0.5238,-0.5362,-0.5397,-0.5401,-0.5353,-0.5329,-0.5551,-0.5598,-0.5754,-0.6222,-0.63,-0.63,-0.63,-0.63,-0.63,-0.63,-0.63,-0.63,-0.63,-0.63,-0.63,-0.63,-0.63,-0.63,-0.63,-0.63,-0.63,-0.63,-0.5948,-0.5553,-0.5121,-0.4849,-0.4457,-0.4031,-0.3949,-0.3642,-0.2446,-0.1332,-0.0389,-0.0222,-0.0055,0.0,0.0,0.0,0.0168,0.0673,0.1697,0.2868,0.3749,0.528,0.664,0.716,0.7788,0.8275,0.8618,0.8864,0.9106,0.9278,0.9395,0.9408,0.9272,0.9103,0.904,0.9076,0.9225,0.9323,0.9221,0.9169,0.9089,0.9089,0.8991,0.8885,0.8885,0.838,0.7875,0.7376,0.684,0.6286,0.5613,0.4936,0.4261,0.3522,0.2902,0.2054,0.0,0.1212,0.0859,0.0404,0.0404,0.0253,0.0,0.0,0.0,0.0,0.0,0.0,0.0,0.0,0.0,0.0,0.0,0.0,-0.0046,-0.0229,-0.0499,-0.0852,-0.1525,-0.242,-0.327,-0.3762,-0.4119,-0.4425,-0.4661,-0.4906,-0.5117,-0.5305,-0.5246,-0.5268,-0.5542,-0.5598,-0.5754,-0.6222,-0.63,-0.63,-0.63,-0.63,-0.63,-0.63,-0.63,-0.63,-0.63,-0.63,-0.63,-0.63,-0.63,-0.63,-0.63,-0.63,-0.63,-0.63,-0.6022,-0.5667,-0.5162,-0.4924,-0.455,-0.4115,-0.3872,-0.328,-0.3371,-0.1895,-0.0517,-0.0517,-0.0227,0.0,0.0,0.0,0.0056,0.0336,0.1177,0.2037,0.2749,0.4465,0.5873,0.6311,0.7356,0.8119,0.8119,0.8477,0.8811,0.8808,0.9127,0.9266,0.9137,0.8875,0.8828,0.906,0.8862,0.0,0.921,0.9018,0.8885,0.8885,0.8885,0.8885,0.8885,0.8654,0.8318,0.7986,0.7583,0.7194,0.6859,0.5889,0.5,0.414,0.3266,0.2259,0.0,0.1212,0.0859,0.0404,0.0404,0.0253,0.0,0.0,0.0,0.0,0.0,0.0,0.0,0.0,0.0,0.0,0.0,0.0,0.0,0.0,-0.0359,-0.0807,-0.13,-0.1748,-0.2238,-0.2777,-0.3267,-0.3691,-0.4051,-0.4469,-0.4884,-0.5154,-0.5186,-0.5268,-0.5542,-0.5598,-0.5754,-0.6222,-0.63,-0.63,-0.63,-0.63,-0.63,-0.63,-0.63,-0.63,-0.63,-0.63,-0.63,-0.63,-0.63,-0.63,-0.63,-0.63,-0.63,-0.63,-0.6022,-0.5786,-0.5598,-0.5201,-0.4951,-0.4872,-0.3989,-0.309,-0.3717,-0.2146,-0.0735,-0.0509,-0.0225,0.0,0.0,0.0,0.0056,0.0336,0.0841,0.1472,0.2399,0.3586,0.469,0.5267,0.611,0.6735,0.6735,0.6948,0.7115,0.7299,0.7726,0.8096,0.0,0.0,0.8373,0.8339,0.8577,0.8715,0.8726,0.885,0.8885,0.8885,0.8885,0.8885,0.8885,0.8826,0.8663,0.8451,0.8355,0.8122,0.7829,0.6796,0.5679,0.4566,0.3559,0.0,0.0,0.1465,0.1162,0.0657,0.0657,0.0404,0.0,0.0,0.0,0.0,0.0,0.0,0.0,0.0,0.0,0.0,0.0,0.0,0.0,0.0,-0.0224,-0.0583,-0.0852,-0.1165,-0.1479,-0.1793,-0.2286,-0.2763,-0.3138,-0.3603,-0.4122,-0.4692,-0.4845,-0.4977,-0.5329,-0.5401,-0.5556,-0.5983,-0.6022,-0.6099,-0.6261,-0.63,-0.63,-0.63,-0.63,-0.63,-0.63,-0.63,-0.63,-0.63,-0.63,-0.63,-0.63,-0.63,-0.63,-0.63,-0.6219,-0.6141,-0.6067,-0.5844,-0.5485,-0.4923,-0.3557,-0.2802,-0.4172,-0.2431,-0.0849,-0.0623,-0.0282,0.0,0.0,0.0,0.0056,0.0224,0.0393,0.0793,0.1521,0.2529,0.3386,0.3921,0.4715,0.5242,0.5242,0.5347,0.5615,0.6251,0.6714,0.0,0.0,0.7835,0.788,0.7913,0.8133,0.836,0.8491,0.8654,0.8771,0.8885,0.8885,0.8885,0.8885,0.8824,0.8804,0.871,0.8598,0.8448,0.8269,0.7238,0.6154,0.5029,0.0,0.0,0.0,0.1768,0.1364,0.0808,0.0808,0.0455,0.0,0.0,0.0,0.0,0.0,0.0,0.0,0.0,0.0,0.0,0.0,0.0,0.0,0.0,-0.0135,-0.0269,-0.0404,-0.0539,-0.0718,-0.0853,-0.1256,-0.1735,-0.2157,-0.2756,-0.3452,-0.427,-0.4508,-0.4698,-0.5004,-0.5124,-0.5279,-0.5509,-0.5709,-0.5906,-0.6261,-0.63,-0.63,-0.63,-0.63,-0.63,-0.63,-0.63,-0.63,-0.63,-0.63,-0.63,-0.63,-0.6219,-0.6141,-0.6141,-0.6064,-0.6051,-0.6103,-0.5769,-0.5155,-0.4241,-0.3111,-0.2523,0.0,-0.2752,-0.0918,-0.0918,-0.0511,-0.0056,-0.0056,-0.0056,0.0,0.0,0.0,0.0113,0.041,0.1295,0.2021,0.2389,0.32,0.3753,0.3753,0.3815,0.4304,0.5592,0.6006,0.0,0.7511,0.7417,0.7391,0.7729,0.7676,0.7826,0.8429,0.8484,0.8598,0.8881,0.8871,0.8868,0.8868,0.8781,0.8699,0.8676,0.8401,0.8316,0.8248,0.7252,0.6389,0.0,0.0,0.0,0.0,0.2172,0.1566,0.0808,0.0808,0.0455,0.0,0.0,0.0,0.0,0.0,0.0,0.0,0.0,0.0,0.0,0.0,0.0,0.0,0.0,0.0,0.0,0.0,0.0,0.0,0.0,-0.0359,-0.0798,-0.1188,-0.1931,-0.2814,-0.3831,-0.4187,-0.4382,-0.4611,-0.4807,-0.4927,-0.4965,-0.5282,-0.5715,-0.6222,-0.6261,-0.6261,-0.63,-0.63,-0.6261,-0.6261,-0.63,-0.63,-0.63,-0.63,-0.63,-0.63,-0.606,-0.586,-0.5825,-0.5604,-0.552,-0.5652,-0.4964,-0.4079,-0.3054,-0.2644,-0.222,-0.4667,0.0,-0.1185,-0.1185,-0.0956,-0.0617,0.0,-0.028,-0.0224,-0.0056,0.0,0.0113,0.041,0.0884,0.1368,0.1656,0.2157,0.2465,0.2465,0.2897,0.3498,0.4302,0.5065,0.5868,0.6744,0.6965,0.7111,0.7391,0.7508,0.7662,0.7826,0.8266,0.854,0.8598,0.8712,0.8764,0.8764,0.8726,0.8598,0.8374,0.8354,0.8208,0.8042,0.7403,0.6786,0.0,0.0,0.0,0.2973,0.2522,0.1716,0.0808,0.0808,0.0455,0.0,0.0,0.0,0.0,0.0,0.0,0.0,0.0,0.0,0.0,0.0,0.0,0.0,0.0,0.0,0.0,0.0,0.0,0.0,0.0,-0.0224,-0.0532,-0.0722,-0.1345,-0.2072,-0.2928,-0.3251,-0.3522,-0.3956,-0.4034,-0.419,-0.4499,-0.4737,-0.5165,-0.5906,-0.598,-0.606,-0.6261,-0.6099,-0.598,-0.598,-0.618,-0.63,-0.63,-0.63,-0.63,-0.63,-0.606,-0.5667,-0.5237,-0.4577,-0.4222,-0.4178,-0.3449,-0.2962,-0.2706,-0.1987,-0.1632,-0.5093,-0.3136,-0.129,-0.129,-0.1121,-0.0841,-0.0673,-0.0505,-0.0336,-0.0224,-0.0112,0.0057,0.0232,0.041,0.0594,0.079,0.0982,0.1108,0.11,0.1526,0.2124,0.2925,0.3668,0.4636,0.0,0.6298,0.6635,0.7196,0.7363,0.7493,0.7607,0.7937,0.8183,0.8394,0.8483,0.8551,0.871,0.8577,0.8428,0.8323,0.8197,0.8123,0.7988,0.759,0.7138,0.0,0.0,0.0,0.3524,0.2874,0.1867,0.0808,0.0808,0.0455,0.0,0.0,0.0,0.0,0.0,0.0,0.0,0.0,0.0,0.0,0.0,0.0,0.0,0.0,0.0,0.0,0.0,0.0,0.0,0.0,-0.009,-0.0222,-0.0298,-0.0757,-0.1369,-0.2098,-0.2469,-0.2782,-0.3018,-0.3215,-0.3372,-0.3526,-0.3958,-0.4582,-0.5392,-0.5631,-0.5906,-0.6261,-0.606,-0.5783,-0.5509,-0.5709,-0.5906,-0.6099,-0.6025,-0.6025,-0.6099,-0.5631,-0.5007,-0.4263,-0.3847,-0.3461,-0.3207,-0.2747,-0.2451,-0.2233,-0.1668,-0.1399,-0.5759,-0.3813,-0.1913,-0.1632,-0.141,-0.1186,-0.1073,-0.0789,-0.0563,-0.0507,-0.0281,-0.0113,-0.0058,-0.0058,-0.0059,0.0,0.0,0.0,0.0,0.0301,0.0836,0.1704,0.2316,0.0,0.5024,0.5472,0.6044,0.6988,0.7099,0.726,0.7467,0.7523,0.774,0.8094,0.8176,0.8324,0.8588,0.8394,0.831,0.8235,0.8102,0.7988,0.7988,0.7743,0.754,0.7238,0.0,0.0,0.4074,0.3226,0.207,0.0808,0.0808,0.0455,0.0,0.0,0.0,0.0,0.0,0.0,0.0,0.0,0.0,0.0,0.0,0.0,0.0,0.0,0.0,0.0,0.0,0.0,0.0,0.0,0.0,0.0,0.0,-0.0295,-0.0748,-0.1425,-0.1843,-0.2079,-0.2156,-0.247,-0.2668,-0.255,-0.3255,-0.4112,-0.4927,-0.5359,-0.5792,-0.6261,-0.6022,-0.5628,-0.5004,-0.5085,-0.5318,-0.5667,-0.5595,-0.5595,-0.5667,-0.4813,-0.4008,-0.3247,-0.313,-0.2867,-0.2422,-0.2378,-0.2106,-0.1749,-0.1525,-0.1391,-0.6591,-0.5758,-0.4624,-0.326,-0.2776,-0.2455,-0.1871,-0.1504,-0.1146,-0.0859,-0.0793,-0.0679,-0.0408,-0.0353,-0.0238,-0.0061,0.0,0.0,0.0,0.0,0.0646,0.1041,0.0,0.274,0.3772,0.4601,0.5431,0.6374,0.6654,0.6895,0.707,0.7282,0.7439,0.7358,0.777,0.7965,0.8017,0.8186,0.8204,0.8025,0.8002,0.7988,0.7988,0.7942,0.7942,0.7839,0.0,0.5679,0.4574,0.3578,0.2221,0.0808,0.0808,0.0455,0.0,0.0,0.0,0.0,0.0,0.0,0.0,0.0,0.0,0.0,0.0,0.0,0.0,0.0,0.0,0.0,0.0,0.0,0.0,0.0,0.0,0.0,0.0,-0.0168,-0.054,-0.1229,-0.1414,-0.1531,-0.1882,-0.2156,-0.2392,-0.2707,-0.3333,-0.4153,-0.5126,-0.544,-0.5792,-0.6261,-0.5909,-0.5398,-0.4805,-0.4616,-0.4579,-0.4618,-0.5087,-0.5126,-0.4657,-0.3487,-0.2718,-0.2495,-0.1929,-0.1628,-0.1599,-0.1565,-0.1524,-0.148,-0.1436,-0.1391,-0.7265,-0.6891,-0.6387,-0.5232,-0.4153,-0.3294,-0.2826,-0.2049,-0.1337,-0.121,-0.1028,-0.0857,-0.0696,-0.0527,-0.0297,-0.0061,0.0,0.0,0.0,0.0117,0.0289,0.0,0.0,0.1638,0.2522,0.3304,0.4293,0.563,0.5959,0.6354,0.684,0.6992,0.7093,0.7073,0.7322,0.7511,0.774,0.7844,0.7962,0.7988,0.7988,0.7988,0.7988,0.7988,0.7988,0.7939,0.0,0.5782,0.4724,0.363,0.2271,0.0808,0.0808,0.0455,0.0,0.0,0.0,0.0,0.0,0.0,0.0,0.0,0.0,0.0,0.0,0.0,0.0,0.0,0.0,0.0,0.0,0.0,0.0,0.0,0.0,0.0,0.0,-0.0168,-0.0374,-0.0714,-0.0943,-0.1139,-0.1334,-0.1725,-0.2156,-0.2589,-0.3294,-0.4114,-0.5007,-0.5401,-0.5792,-0.6261,-0.587,-0.5243,-0.4297,-0.4148,-0.4073,-0.4073,-0.454,-0.4423,-0.3565,-0.2779,-0.2223,-0.1942,-0.1566,-0.1384,-0.1411,-0.1383,-0.1391,-0.1391,-0.1391,-0.1391,-0.794,-0.7882,-0.7765,-0.7066,-0.5479,-0.3983,-0.363,-0.2494,-0.1535,-0.1516,-0.1272,-0.1095,-0.1045,-0.0766,-0.0478,-0.0241,-0.018,-0.0119,-0.0115,-0.0057,0.0,0.0,0.0224,0.0728,0.1503,0.2172,0.3261,0.4884,0.5314,0.5866,0.6713,0.676,0.681,0.6842,0.6992,0.7199,0.7497,0.7643,0.7793,0.7988,0.7988,0.7988,0.7988,0.7988,0.7988,0.7939,0.6886,0.5782,0.4724,0.363,0.2271,0.0808,0.0808,0.0453,0.0,0.0,0.0,0.0,0.0,0.0,0.0,0.0,0.0,0.0,0.0,0.0,0.0,0.0,0.0,0.0,0.0,0.0,0.0,0.0,0.0,0.0,0.0,-0.017,-0.0336,-0.0403,-0.0679,-0.0919,-0.0999,-0.1548,-0.2135,-0.2609,-0.3383,-0.4229,-0.5046,-0.5437,-0.5844,-0.6308,-0.5918,-0.514,-0.3934,-0.3703,-0.3548,-0.3468,-0.3783,-0.3573,-0.2689,-0.2215,-0.1839,-0.1571,-0.1453,-0.1393,-0.1401,-0.1379,-0.1391,-0.1391,-0.1391,-0.1391,-0.8826,-0.894,-0.8944,-0.8265,-0.6414,-0.4664,-0.3992,-0.2797,-0.1867,-0.1865,-0.1821,-0.1683,-0.1435,-0.1157,-0.0919,-0.0846,-0.0655,-0.0469,-0.0403,0.0,0.0,0.0,0.0224,0.0557,0.0932,0.1752,0.2826,0.4266,0.4849,0.5551,0.6535,0.6632,0.6575,0.6453,0.6901,0.7197,0.7238,0.7739,0.7988,0.7988,0.7988,0.7988,0.7988,0.7988,0.7988,0.7939,0.6886,0.5782,0.4724,0.363,0.2271,0.0808,0.0808,0.045,0.0,0.0,0.0,0.0,0.0,0.0,0.0,0.0,0.0,0.0,0.0,0.0,0.0,0.0,0.0,0.0,0.0,0.0,0.0,0.0,0.0,0.0,0.0,-0.0217,-0.0431,-0.0631,-0.0838,-0.1048,-0.1258,-0.1769,-0.239,-0.3036,-0.3851,-0.4657,-0.544,-0.575,-0.6028,-0.6441,-0.6054,-0.5294,-0.408,-0.3423,-0.2883,-0.2427,-0.2572,-0.2534,-0.2267,-0.1666,-0.1369,-0.1426,-0.1388,-0.1403,-0.1387,-0.1389,-0.1391,-0.1391,-0.1391,-0.1391,-0.8885,-0.9045,-0.9041,-0.8363,-0.7023,-0.5632,-0.4601,-0.3085,-0.1871,-0.1871,-0.1898,-0.1748,-0.1387,-0.1297,-0.119,-0.0927,-0.081,-0.0692,-0.0454,-0.0338,-0.0168,0.0,0.011,0.022,0.0324,0.0969,0.203,0.351,0.4132,0.5081,0.6412,0.6454,0.6536,0.6642,0.6842,0.7092,0.7444,0.7643,0.7842,0.7988,0.7988,0.7988,0.7988,0.7988,0.7988,0.7939,0.6886,0.5782,0.4724,0.363,0.2271,0.0757,0.0449,0.0195,0.0,0.0,0.0,0.0,0.0,0.0,0.0,0.0,0.0,0.0,0.0,0.0,0.0,0.0,0.0,0.0,0.0,0.0,0.0,0.0,0.0,0.0,0.0,-0.0305,-0.0605,-0.0677,-0.0969,-0.1221,-0.1305,-0.1964,-0.2767,-0.3454,-0.4303,-0.5131,-0.5922,-0.6179,-0.6331,-0.6468,-0.5981,-0.5309,-0.4564,-0.3481,-0.273,-0.2397,-0.2358,-0.2221,-0.1908,-0.1556,-0.1367,-0.139,-0.1408,-0.1379,-0.1391,-0.1391,-0.1391,-0.1391,-0.1391,-0.1391,-0.8895,-0.9045,-0.9027,-0.842,-0.7532,-0.6546,-0.5527,-0.366,-0.2175,-0.2125,-0.1981,-0.1823,-0.1536,-0.1504,-0.146,0.0,-0.1141,-0.0972,-0.0731,-0.0614,-0.0499,-0.0329,-0.0218,-0.0108,-0.0106,0.0476,0.1521,0.3085,0.3746,0.4743,0.6339,0.6387,0.6539,0.6795,0.6892,0.7144,0.7596,0.7696,0.7793,0.7988,0.7988,0.7988,0.7988,0.7988,0.7988,0.7939,0.6886,0.5782,0.4724,0.363,0.2264,0.0749,0.0195,0.0,0.0,0.0,0.0,0.0,0.0,0.0,0.0,0.0,0.0,0.0,0.0,0.0,0.0,0.0,0.0,0.0,0.0,0.0,0.0,0.0,0.0,0.0,0.0,-0.0308,-0.0612,-0.069,-0.0988,-0.1247,-0.1333,-0.2093,-0.2957,-0.3778,-0.4649,-0.5497,-0.6334,-0.6525,-0.6522,-0.6406,-0.599,-0.5389,-0.4706,-0.3598,-0.2745,-0.2362,-0.2147,-0.1883,-0.1614,-0.1465,-0.1395,-0.1404,-0.138,-0.1391,-0.1391,-0.1391,-0.1391,-0.1391,-0.1391,-0.1391,-0.8981,-0.9045,-0.906,-0.8634,-0.7971,-0.7241,-0.6662,-0.4578,-0.2724,-0.2519,-0.2194,-0.1852,-0.1793,-0.1864,-0.1875,-0.1787,-0.1552,-0.1372,-0.1293,-0.105,-0.0929,-0.0874,-0.0592,-0.0424,-0.0416,0.0312,0.1441,0.3078,0.3679,0.4684,0.6337,0.6387,0.6539,0.6795,0.7039,0.7341,0.7596,0.7892,0.7988,0.7988,0.7988,0.7988,0.7988,0.7988,0.7988,0.7939,0.6886,0.5782,0.4724,0.3629,0.2245,0.0733,0.0188,0.0,0.0,0.0,0.0,0.0,0.0,0.0,0.0,0.0,0.0,0.0,0.0,0.0,0.0,0.0,0.0,0.0,0.0,0.0,0.0,0.0,0.0,0.0,0.0,-0.0224,-0.0448,-0.0672,-0.0896,-0.1166,-0.1345,-0.2116,-0.2999,-0.3947,-0.485,-0.5705,-0.6577,-0.6702,-0.6592,-0.6227,-0.6139,-0.5591,-0.4389,-0.3628,-0.2914,-0.2243,-0.1705,-0.1422,-0.1392,-0.1391,-0.1405,-0.139,-0.1391,-0.1391,-0.1391,-0.1391,-0.1391,-0.1391,-0.1391,-0.1391,-0.91,-0.9176,-0.9111,-0.8832,-0.8403,-0.7847,-0.7177,-0.5169,-0.3193,-0.2235,-0.1932,-0.1849,-0.1788,-0.1802,-0.1812,-0.1781,-0.1739,-0.1573,-0.1325,-0.1206,-0.1083,-0.0846,-0.0735,-0.0624,-0.0408,0.0153,0.1269,0.3074,0.3679,0.4684,0.6337,0.6387,0.6587,0.7089,0.7138,0.7437,0.7892,0.7942,0.7988,0.7988,0.7988,0.7988,0.7988,0.7988,0.7988,0.7939,0.7042,0.6187,0.5177,0.298,0.1552,0.0753,0.0232,0.0,0.0,0.0,0.0,0.0,0.0,0.0,0.0,0.0,0.0,0.0,0.0,0.0,0.0,0.0,0.0,0.0,0.0,0.0,0.0,0.0,0.0,0.0,0.0,-0.0224,-0.0402,-0.0484,-0.08,-0.1116,-0.1189,-0.2121,-0.3136,-0.3954,-0.4872,-0.5795,-0.6734,-0.6861,-0.679,-0.663,-0.6145,-0.5544,-0.4832,-0.3671,-0.2823,-0.2419,-0.1793,-0.1386,-0.1378,-0.1422,-0.1381,-0.139,-0.1391,-0.1391,-0.1391,-0.1391,-0.1391,-0.1391,-0.1391,-0.1391,-0.9224,-0.9299,-0.9344,-0.9142,-0.8955,-0.8439,-0.6946,-0.5171,-0.3481,-0.208,-0.1783,-0.1825,-0.1776,-0.1782,0.0,-0.1825,-0.1783,-0.1729,-0.1534,-0.1467,-0.1392,-0.1198,-0.1032,-0.087,-0.0607,0.0,0.116,0.3073,0.3679,0.4684,0.6337,0.6387,0.6587,0.7039,0.7138,0.7388,0.7842,0.7939,0.7988,0.7988,0.7988,0.7988,0.7988,0.7988,0.7988,0.7935,0.6985,0.6069,0.5066,0.2759,0.1559,0.1017,0.0275,0.0,0.0,0.0,0.0,0.0,0.0,0.0,0.0,0.0,0.0,0.0,0.0,0.0,0.0,0.0,0.0,0.0,0.0,0.0,0.0,0.0,0.0,0.0,0.0,-0.0135,-0.0268,-0.0397,-0.0712,-0.0983,-0.1103,-0.2002,-0.3034,-0.3871,-0.509,-0.6054,-0.662,-0.6707,-0.6568,-0.6296,-0.5769,-0.5097,-0.434,-0.3358,-0.2598,-0.224,-0.1704,-0.1391,-0.1391,-0.1391,-0.1391,-0.1391,-0.1391,-0.1391,-0.1391,-0.1391,-0.1391,-0.1391,-0.1391,-0.1391,-0.9268,-0.9388,-0.9581,-0.9452,-0.9468,-0.8869,-0.6422,-0.493,-0.3634,-0.2136,-0.1779,-0.1827,-0.18,-0.1795,-0.1795,-0.1795,-0.1793,-0.178,-0.1804,-0.172,-0.169,-0.1714,-0.1429,-0.1111,-0.0808,-0.0101,0.116,0.3073,0.3679,0.4684,0.6337,0.6387,0.6539,0.6795,0.7039,0.7291,0.7596,0.7842,0.7992,0.7988,0.7988,0.7988,0.7988,0.7988,0.7988,0.7882,0.6749,0.5664,0.4625,0.2955,0.1985,0.1382,0.0407,0.0,0.0,0.0,0.0,0.0,0.0,0.0,0.0,0.0,0.0,0.0,0.0,0.0,0.0,0.0,0.0,0.0,0.0,0.0,0.0,0.0,0.0,0.0,0.0,0.0,-0.009,-0.0312,-0.0537,-0.0762,-0.1029,-0.1837,-0.2781,-0.3715,-0.5228,-0.6207,-0.6207,-0.6207,-0.5988,-0.5327,-0.501,-0.434,-0.3226,-0.2688,-0.2195,-0.1794,-0.1525,-0.1391,-0.1391,-0.1391,-0.1391,-0.1391,-0.1391,-0.1391,-0.1391,-0.1391,-0.1391,-0.1391,-0.1391,-0.1391,-0.934,-0.9466,-0.9629,-0.9707,-0.9392,-0.8624,-0.6908,-0.5712,-0.4391,-0.227,-0.1805,-0.1803,-0.1796,-0.1795,-0.1795,-0.1795,-0.1775,-0.1804,-0.1718,-0.1689,-0.166,-0.163,-0.157,-0.1314,-0.0859,-0.0253,0.0958,0.3022,0.3679,0.4684,0.6337,0.6387,0.6539,0.6795,0.6845,0.7095,0.7596,0.7646,0.7793,0.0,0.7988,0.7988,0.7988,0.7988,0.7892,0.7637,0.7095,0.6155,0.4918,0.3447,0.2287,0.1309,0.036,0.0,0.0,0.0,0.0,0.0,0.0,0.0,0.0,0.0,0.0,0.0,0.0,0.0,0.0,0.0,0.0,0.0,0.0,0.0,0.0,0.0,0.0,0.0,0.0,0.0,0.0,-0.0086,-0.0438,-0.0714,-0.0791,-0.1598,-0.2601,-0.3535,-0.4289,-0.4734,-0.4734,-0.4734,-0.4603,-0.4251,-0.3715,-0.3179,-0.2688,-0.2016,-0.1614,-0.148,-0.1436,-0.1391,-0.1391,-0.1391,-0.1391,-0.1391,-0.1391,-0.1391,-0.1391,-0.1391,-0.1391,-0.1391,-0.1391,-0.1391,-0.9361,-0.9493,-0.9642,-0.9785,-0.946,-0.8736,-0.7517,-0.6589,-0.5369,-0.3228,-0.2494,-0.2249,-0.221,-0.2255,-0.2244,-0.2244,-0.2102,-0.1903,-0.1708,-0.168,-0.1651,-0.162,-0.1617,-0.1364,-0.0859,-0.0303,0.0908,0.3022,0.3679,0.4684,0.6337,0.6387,0.6487,0.6589,0.6842,0.7141,0.7391,0.7643,0.7842,0.7988,0.7988,0.7988,0.7988,0.7914,0.7835,0.7674,0.7362,0.652,0.5381,0.3985,0.2846,0.1792,0.0628,0.018,0.018,0.0045,0.0,0.0,0.0,0.0,0.0,0.0,0.0,0.0,0.0,0.0,0.0,0.0,0.0,0.0,0.0,0.0,0.0,0.0,0.0,0.0,0.0,0.0,0.0,0.0,-0.0309,-0.0581,-0.0663,-0.1603,-0.2555,-0.3178,-0.3667,-0.3978,-0.3978,-0.3978,-0.3846,-0.3448,-0.3001,-0.2553,-0.2196,-0.1704,-0.1391,-0.1391,-0.1391,-0.1391,-0.1391,-0.1391,-0.1391,-0.1391,-0.1391,-0.1391,-0.1391,-0.1391,-0.1391,-0.1391,-0.1391,-0.1391,-0.934,-0.951,-0.9676,-0.9791,-0.9518,-0.9054,-0.8136,-0.7389,-0.6348,-0.4496,-0.3513,-0.2941,-0.2864,-0.2891,-0.2914,-0.285,-0.2532,-0.2164,-0.1754,-0.1672,-0.1645,-0.162,-0.1617,-0.1364,-0.0859,-0.0303,0.0908,0.3022,0.3679,0.4684,0.6337,0.6387,0.6437,0.6487,0.6889,0.7188,0.7288,0.769,0.7939,0.7988,0.7965,0.7951,0.7944,0.7818,0.7763,0.7794,0.7499,0.6822,0.5802,0.4459,0.3307,0.2329,0.0941,0.0359,0.0314,0.009,0.0,0.0,0.0,0.0,0.0,0.0,0.0,0.0,0.0,0.0,0.0,0.0,0.0,0.0,0.0,0.0,0.0,0.0,0.0,0.0,0.0,0.0,0.0,0.0,-0.0224,-0.0493,-0.0718,-0.1613,-0.233,-0.2598,-0.2955,-0.3221,-0.3221,-0.3221,-0.3089,-0.2688,-0.2464,-0.2151,-0.1749,-0.1525,-0.1391,-0.1391,-0.1391,-0.1391,-0.1391,-0.1391,-0.1391,-0.1391,-0.1391,-0.1391,-0.1391,-0.1391,-0.1391,-0.1391,-0.1391,-0.1391,-0.934,-0.9585,-0.9798,-0.9815,-0.9518,-0.9179,-0.8677,-0.7872,-0.6908,0.0,-0.4736,-0.3894,-0.3556,-0.3679,-0.3732,-0.3456,-0.313,-0.2601,-0.1829,-0.1642,-0.1622,-0.1617,-0.1617,-0.1364,-0.0859,-0.0303,0.0908,0.3022,0.3679,0.4684,0.6337,0.6387,0.6489,0.6742,0.6792,0.7095,0.7543,0.7596,0.7793,0.7988,0.7906,0.7841,0.7831,0.7556,0.757,0.7794,0.7499,0.6822,0.5802,0.4459,0.3263,0.2105,0.0896,0.0269,0.0045,0.0,0.0,0.0,0.0,0.0,0.0,0.0,0.0,0.0,0.0,0.0,0.0,0.0,0.0,0.0,0.0,0.0,0.0,0.0,0.0,0.0,0.0,0.0,0.0,0.0,-0.0222,-0.0538,-0.0987,-0.1166,-0.1345,-0.1569,-0.1659,-0.1704,-0.1704,-0.1704,-0.1659,-0.1614,-0.1569,-0.1524,-0.148,-0.1436,-0.1391,-0.1391,-0.1391,-0.1391,-0.1391,-0.1391,-0.1391,-0.1391,-0.1391,-0.1391,-0.1391,-0.1391,-0.1391,-0.1391,-0.1391,-0.1391,-0.9317,-0.9595,-0.9822,-0.9822,-0.97,-0.9562,-0.9379,-0.888,-0.8133,-0.704,-0.6551,-0.5985,-0.4884,-0.4726,-0.4729,-0.4484,-0.3926,-0.3174,-0.2288,-0.1942,-0.1768,-0.1617,-0.1617,-0.1364,-0.0859,-0.0303,0.0757,0.2621,0.3377,0.4433,0.5884,0.6089,0.6392,0.6795,0.6942,0.7191,0.7596,0.7743,0.7892,0.7988,0.7885,0.7811,0.7801,0.7506,0.7441,0.7553,0.7336,0.67,0.5705,0.4438,0.3307,0.2239,0.0896,0.0314,0.0224,0.0045,0.0,0.0,0.0,0.0,0.0,0.0,0.0,0.0,0.0,0.0,0.0,0.0,0.0,0.0,0.0,0.0,0.0,0.0,0.0,0.0,0.0,0.0,0.0,0.0,-0.0223,-0.0448,-0.0673,-0.0942,-0.1121,-0.1211,-0.1345,-0.1391,-0.1391,-0.1391,-0.1391,-0.1391,-0.1391,-0.1391,-0.1391,-0.1391,-0.1391,-0.1391,-0.1391,-0.1391,-0.1391,-0.1452,-0.1453,-0.1391,-0.1391,-0.1391,-0.1391,-0.1391,-0.1391,-0.1391,-0.1391,-0.1391,-0.9262,-0.954,-0.9768,-0.9768,-0.9795,-0.9822,0.0,0.0,-0.9051,0.0,-0.8007,-0.7727,-0.6392,-0.6007,-0.585,-0.5614,-0.49,-0.3992,-0.2839,-0.2393,-0.2071,-0.1667,-0.1617,-0.1364,-0.0859,-0.0354,0.0555,0.2068,0.2873,0.3929,0.5334,0.5639,0.6142,0.6892,0.7089,0.7322,0.7641,0.7799,0.7877,0.7877,0.7773,0.7699,0.7689,0.7431,0.7267,0.7125,0.6968,0.634,0.5361,0.4198,0.3129,0.2105,0.0896,0.0359,0.0269,0.009,0.0,0.0,0.0,0.0,0.0,0.0,0.0,0.0,0.0,0.0,0.0,0.0,0.0,0.0,0.0,0.0,0.0,0.0,0.0,0.0,0.0,0.0,0.0,0.0,-0.018,-0.0314,-0.0403,-0.0673,-0.0942,-0.1076,-0.1211,-0.1345,-0.1391,-0.1391,-0.1393,-0.1446,-0.1446,-0.1405,-0.1412,-0.1412,-0.1412,-0.1412,-0.1412,-0.1412,-0.1412,-0.148,-0.1481,-0.1413,-0.1405,-0.1398,-0.1391,-0.1391,-0.1391,-0.1391,-0.1391,-0.1391,-0.9217,-0.9388,-0.9618,-0.9618,-0.9724,-0.9822,0.0,0.0,-0.9176,-0.8674,-0.8478,-0.8247,-0.7944,-0.7567,-0.7121,-0.6717,-0.6112,-0.5099,-0.3389,-0.2927,-0.2473,-0.1667,-0.1617,-0.1364,-0.0859,-0.0556,0.0202,0.1563,0.2169,0.3176,0.4734,0.5087,0.5842,0.7138,0.7188,0.7375,0.7776,0.7689,0.7624,0.7621,0.7468,0.7439,0.7436,0.7224,0.6884,0.6441,0.6432,0.5805,0.4694,0.3666,0.2551,0.1391,0.0673,0.0224,0.0,0.0,0.0,0.0,0.0,0.0,0.0,0.0,0.0,0.0,0.0,0.0,0.0,0.0,0.0,0.0,0.0,0.0,0.0,0.0,0.0,0.0,0.0,0.0,0.0,0.0,0.0,-0.009,-0.0359,-0.0403,-0.0583,-0.1031,-0.1121,-0.1166,-0.139,-0.1391,-0.1446,-0.1475,-0.1478,-0.149,-0.1519,-0.1474,-0.1474,-0.1474,-0.1474,-0.1474,-0.1474,-0.1475,-0.1475,-0.1474,-0.1493,-0.1464,-0.1391,-0.1391,-0.1391,-0.1391,-0.1391,-0.1391,-0.9042,-0.9235,-0.9439,-0.934,-0.9503,-0.9686,-0.9686,-0.9637,-0.9513,-0.9153,-0.9065,-0.8882,-0.8409,-0.7977,-0.7538,-0.7276,-0.6565,-0.5497,-0.3935,-0.3324,-0.2672,-0.1718,-0.1617,-0.1364,-0.0859,-0.0556,0.0,0.101,0.0,0.2772,0.4228,0.4682,0.5636,0.7138,0.7188,0.7372,0.7814,0.7672,0.76,0.7597,0.7444,0.7415,0.7412,0.721,0.6786,0.6169,0.5722,0.5097,0.434,0.3042,0.206,0.13,0.0494,0.009,0.0,0.0,0.0,0.0,0.0,0.0,0.0,0.0,0.0,0.0,0.0,0.0,0.0,0.0,0.0,0.0,0.0,0.0,0.0,0.0,0.0,0.0,0.0,0.0,0.0,0.0,0.0,-0.0045,-0.0135,-0.0269,-0.0493,-0.0807,-0.0987,-0.1166,-0.139,-0.1453,-0.1468,-0.148,-0.1498,-0.1514,-0.1477,-0.1478,-0.1478,-0.1478,-0.1478,-0.1478,-0.1478,-0.1545,-0.1546,-0.1478,-0.1515,-0.1495,-0.1464,-0.1399,-0.1391,-0.1391,-0.1391,-0.1391,-0.8555,-0.8726,-0.8977,0.0,-0.9191,-0.9416,-0.9534,0.0,-0.9427,-0.9184,-0.9076,-0.8911,-0.8425,-0.8125,-0.7902,-0.7683,-0.7014,-0.6014,-0.4483,-0.3825,-0.3025,-0.1768,-0.1617,-0.1364,-0.0859,-0.066,-0.0255,0.0,0.0,0.0,0.3658,0.4244,0.532,0.7075,0.7232,0.7379,0.7665,0.7519,0.7444,0.7444,0.7343,0.7292,0.7288,0.7142,0.6697,0.5902,0.5097,0.4429,0.3807,0.2418,0.1569,0.1077,0.0314,0.0,0.0,0.0,0.0,0.0,0.0,0.0,0.0,0.0,0.0,0.0,0.0,0.0,0.0,0.0,0.0,0.0,0.0,0.0,0.0,0.0,0.0,0.0,0.0,0.0,0.0,0.0,0.0,0.0,0.0,-0.0135,-0.036,-0.0679,-0.0906,-0.1091,-0.1419,-0.1483,-0.15,-0.151,-0.1529,-0.1545,-0.1555,-0.1556,-0.1556,-0.1556,-0.1556,-0.1556,-0.1556,-0.1576,-0.1577,-0.1557,-0.1488,-0.1516,-0.1495,-0.1455,-0.1391,-0.1391,-0.1391,-0.1391,0.0,0.0,0.0,-0.8358,0.0,0.0,-0.9303,0.0,-0.8871,-0.8666,-0.8474,-0.8242,-0.799,-0.8135,-0.8252,-0.8022,-0.7547,-0.6639,-0.5029,-0.4331,-0.3379,-0.1768,-0.1617,-0.1364,-0.0859,-0.0822,-0.0571,0.0,0.0519,0.1504,0.3108,0.3766,0.4993,0.6952,0.725,0.737,0.7415,0.7217,0.7095,0.7095,0.7095,0.7095,0.7095,0.7095,0.6605,0.563,0.469,0.389,0.3093,0.1883,0.1121,0.0673,0.018,0.0,0.0,0.0,0.0,0.0,0.0,0.0,0.0,0.0,0.0,0.0,0.0,0.0,0.0,0.0,0.0,0.0,0.0,0.0,0.0,0.0,0.0,0.0,0.0,0.0,0.0,0.0,0.0,0.0,0.0,0.0,-0.0181,-0.0692,-0.0787,-0.0979,-0.1427,-0.1479,-0.1538,-0.1617,-0.1621,-0.1585,-0.1614,-0.1617,-0.1617,-0.1617,-0.1617,-0.1617,-0.1617,-0.1617,-0.1617,-0.1617,-0.1557,-0.1478,-0.1478,-0.1419,-0.1391,-0.1391,-0.1391,-0.1391,-0.5863,0.0,0.0,0.0,0.0,0.0,0.0,0.0,-0.8549,-0.7724,-0.7776,-0.7812,-0.7297,-0.76,-0.804,-0.8294,-0.7811,-0.6873,-0.5231,-0.4418,-0.3379,-0.1768,-0.1617,-0.1371,-0.0875,-0.0777,0.0,0.0,0.0471,0.1504,0.3108,0.497,0.6298,0.7,0.7066,0.7191,0.7415,0.7217,0.7095,0.7095,0.7095,0.7095,0.7095,0.7095,0.6605,0.563,0.469,0.3801,0.2868,0.1479,0.0807,0.0673,0.018,0.0,0.0,0.0,0.0,0.0,0.0,0.0,0.0,0.0,0.0,0.0,0.0,0.0,0.0,0.0,0.0,0.0,0.0,0.0,0.0,0.0,0.0,0.0,0.0,0.0,0.0,0.0,0.0,0.0,0.0,0.0,-0.0094,-0.0473,-0.0662,-0.09,-0.1191,-0.14,-0.1562,-0.162,-0.1591,-0.1608,-0.1616,-0.1617,-0.1617,-0.1617,-0.1617,-0.1617,-0.1617,-0.1617,-0.1617,-0.1617,-0.1557,-0.1478,-0.1478,-0.1419,-0.1391,-0.1391,-0.1391,-0.1391,-0.4678,-0.5027,-0.5604,-0.6218,0.0,0.0,-0.8138,-0.8202,0.0,0.0,-0.7338,-0.748,-0.7173,-0.756,-0.8046,-0.8495,-0.8085,-0.7044,-0.5334,-0.4511,-0.3458,-0.182,-0.1617,-0.1374,-0.0829,-0.0784,-0.0582,-0.0054,0.0534,0.1628,0.3384,0.5475,0.6595,0.6691,0.6854,0.7011,0.7143,0.7098,0.7095,0.7095,0.7095,0.7095,0.7095,0.7095,0.6605,0.563,0.469,0.3757,0.2778,0.13,0.0718,0.0673,0.018,0.0,0.0,0.0,0.0,0.0,0.0,0.0,0.0,0.0,0.0,0.0,0.0,0.0,0.0,0.0,0.0,0.0,0.0,0.0,0.0,0.0,0.0,0.0,0.0,0.0,0.0,0.0,0.0,0.0,0.0,0.0,-0.0096,-0.0337,-0.0531,-0.0774,-0.1074,-0.1333,-0.1491,-0.159,-0.1607,-0.1617,-0.1617,-0.1617,-0.1617,-0.1617,-0.1617,-0.1617,-0.1617,-0.1617,-0.1617,-0.1617,-0.1557,-0.1466,-0.1442,-0.1407,-0.1391,-0.1391,-0.1391,-0.1391,-0.3747,-0.4029,-0.4541,-0.5417,-0.5846,0.0,-0.7183,-0.7281,-0.7101,0.0,-0.6926,-0.7136,-0.7302,-0.7647,-0.8127,-0.8598,-0.8211,-0.722,-0.538,-0.4621,-0.3562,-0.1833,-0.1626,-0.1382,-0.0886,-0.0795,-0.0593,-0.0055,0.0656,0.1867,0.3753,0.5393,0.6266,0.6256,0.6607,0.6748,0.6795,0.701,0.7095,0.7095,0.7095,0.7095,0.7095,0.7095,0.6605,0.563,0.469,0.3757,0.2732,0.13,0.0718,0.0673,0.018,0.0,0.0,0.0,0.0,0.0,0.0,0.0,0.0,0.0,0.0,0.0,0.0,0.0,0.0,0.0,0.0,0.0,0.0,0.0,0.0,0.0,0.0,0.0,0.0,0.0,0.0,0.0,0.0,0.0,0.0,0.0,-0.0097,-0.0344,-0.0394,-0.0595,-0.1058,-0.1162,-0.1313,-0.1516,-0.1566,-0.1617,-0.1617,-0.1617,-0.1617,-0.1617,-0.1617,-0.1617,-0.1617,-0.1617,-0.1617,-0.1617,-0.1557,-0.1451,-0.1395,-0.1392,-0.1391,-0.1391,-0.1391,-0.1391,-0.2072,-0.2429,-0.2991,-0.3595,-0.4109,0.0,-0.5234,-0.5567,-0.5695,0.0,-0.5987,-0.6589,-0.6828,-0.7275,-0.7874,-0.8428,-0.8144,-0.7226,-0.5508,-0.4695,-0.3645,-0.1898,-0.1687,0.0,-0.0918,-0.0869,-0.0658,-0.0056,0.1304,0.2592,0.3663,0.485,0.5695,0.6051,0.6334,0.6567,0.6795,0.701,0.7095,0.7095,0.7095,0.7095,0.7095,0.7095,0.6605,0.563,0.469,0.3666,0.2464,0.121,0.0718,0.0673,0.018,0.0,0.0,0.0,0.0,0.0,0.0,0.0,0.0,0.0,0.0,0.0,0.0,0.0,0.0,0.0,0.0,0.0,0.0,0.0,0.0,0.0,0.0,0.0,0.0,0.0,0.0,0.0,0.0,0.0,0.0,0.0,0.0,-0.005,-0.0251,-0.0453,-0.0555,-0.0909,-0.1212,-0.1263,-0.1465,-0.1617,-0.1617,-0.1617,-0.1617,-0.1617,-0.1617,-0.1617,-0.1617,-0.1617,-0.1617,-0.1617,-0.1557,-0.1508,-0.1472,-0.1447,-0.1391,-0.1391,-0.1391,-0.1391,-0.1617,-0.1869,-0.2322,-0.2874,-0.3324,0.0,0.0,-0.4698,-0.4967,-0.4965,-0.5616,-0.6323,-0.669,0.0,-0.7539,-0.8013,-0.7537,-0.6634,-0.5226,-0.46,-0.3717,-0.1942,-0.1727,0.0,-0.0939,-0.0886,-0.0611,0.0168,0.1313,0.229,0.2959,0.4212,0.502,0.5342,0.604,0.6476,0.6612,0.6918,0.7095,0.7095,0.7095,0.7095,0.7095,0.7095,0.6605,0.563,0.4554,0.3487,0.2418,0.1076,0.0538,0.0493,0.0135,0.0,0.0,0.0,0.0,0.0,0.0,0.0,0.0,0.0,0.0,0.0,0.0,0.0,0.0,0.0,0.0,0.0,0.0,0.0,0.0,0.0,0.0,0.0,0.0,0.0,0.0,0.0,0.0,0.0,0.0,0.0,0.0,0.0,-0.0101,-0.0253,-0.0404,-0.0657,-0.0909,-0.1162,-0.1314,-0.1465,-0.1566,-0.1617,-0.1617,-0.1617,-0.1617,-0.1617,-0.1617,-0.1617,-0.161,-0.1594,-0.1564,-0.1526,-0.148,-0.148,-0.1472,-0.1458,-0.1458,-0.1466,-0.1617,-0.1768,-0.2021,-0.2473,-0.2724,-0.3024,0.0,0.0,0.0,0.0,0.0,0.0,0.0,0.0,0.0,0.0,0.0,0.0,0.0,-0.429,0.0,-0.1977,0.0,0.0,-0.0956,-0.0789,-0.0394,0.0336,0.1048,0.1672,0.2257,0.3563,0.4438,0.4671,0.5803,0.6384,0.6384,0.6874,0.7095,0.7095,0.7095,0.7095,0.7095,0.7095,0.6605,0.563,0.4421,0.3352,0.2329,0.0986,0.0359,0.0314,0.009,0.0,0.0,0.0,0.0,0.0,0.0,0.0,0.0,0.0,0.0,0.0,0.0,0.0,0.0,0.0,0.0,0.0,0.0,0.0,0.0,0.0,0.0,0.0,0.0,0.0,0.0,0.0,0.0,0.0,0.0,0.0,0.0,0.0,0.0,-0.0101,-0.0303,-0.0354,-0.0606,-0.1061,-0.1162,-0.1314,-0.1566,-0.1617,-0.1617,-0.1617,-0.1617,-0.1617,-0.1617,-0.1617,-0.1605,-0.1581,-0.1624,-0.1596,-0.1498,-0.1517,-0.151,-0.148,-0.1487,-0.1502,0.0,0.0,0.0,0.0,-0.1768,-0.1818,0.0,0.0,-0.2781,-0.3285,0.0,0.0,0.0,0.0,0.0,0.0,0.0,0.0,-0.3594,-0.332,-0.2912,-0.1898,0.0,0.0,0.0,-0.0401,0.0057,0.0393,0.0717,0.1255,0.2066,0.3159,0.4006,0.452,0.5753,0.6384,0.6384,0.6874,0.7095,0.7095,0.7095,0.7095,0.7095,0.7095,0.6605,0.563,0.4421,0.3263,0.215,0.0896,0.0269,0.0045,0.0,0.0,0.0,0.0,0.0,0.0,0.0,0.0,0.0,0.0,0.0,0.0,0.0,0.0,0.0,0.0,0.0,0.0,0.0,0.0,0.0,0.0,0.0,0.0,0.0,0.0,0.0,0.0,0.0,0.0,0.0,0.0,0.0,0.0,0.0,0.0,-0.0051,-0.0253,-0.0505,-0.0808,-0.1061,-0.1314,-0.1566,-0.1617,-0.1617,-0.1617,-0.1617,-0.1617,-0.1617,-0.1617,-0.1615,-0.1611,-0.1585,-0.1617,-0.161,-0.1538,-0.151,-0.1481,-0.1508,-0.1523,0.0,0.0,0.0,0.0,0.0,0.0,-0.1617,0.0,-0.2322,0.0,0.0,0.0,0.0,0.0,0.0,0.0,-0.4004,0.0,0.0,0.0,-0.2366,0.0,0.0,0.0,0.0,0.0,0.0,0.0,0.0278,0.0663,0.1368,0.2578,0.3467,0.4015,0.5583,0.6384,0.6384,0.6874,0.7095,0.7095,0.7095,0.7095,0.7095,0.7095,0.6605,0.563,0.4285,0.3127,0.2104,0.0718,0.009,0.0,0.0,0.0,0.0,0.0,0.0,0.0,0.0,0.0,0.0,0.0,0.0,0.0,0.0,0.0,0.0,0.0,0.0,0.0,0.0,0.0,0.0,0.0,0.0,0.0,0.0,0.0,0.0,0.0,0.0,0.0,0.0,0.0,0.0,0.0,0.0,0.0,0.0,-0.0101,-0.0354,-0.0758,-0.0909,-0.1162,-0.1566,-0.1617,-0.1617,-0.1617,-0.1617,-0.1617,-0.1617,-0.1617,-0.1617,-0.1617,-0.1605,-0.159,-0.162,-0.1577,-0.1563,-0.1582,-0.1547,-0.1562,-0.1413,0.0,0.0,0.0,0.0,0.0,0.0,0.0,0.0,0.0,0.0,0.0,0.0,0.0,0.0,-0.3328,0.0,-0.2685,0.0,0.0,0.0,0.0,0.0,0.0,0.0,0.0,0.0,0.0,0.0,0.0279,0.0881,0.2206,0.3252,0.381,0.5534,0.6488,0.6496,0.6866,0.7094,0.7095,0.7095,0.7095,0.7095,0.7095,0.6605,0.563,0.4196,0.3083,0.2104,0.0628,0.0,0.0,0.0,0.0,0.0,0.0,0.0,0.0,0.0,0.0,0.0,0.0,0.0,0.0,0.0,0.0,0.0,0.0,0.0,0.0,0.0,0.0,0.0,0.0,0.0,0.0,0.0,0.0,0.0,0.0,0.0,0.0,0.0,0.0,0.0,0.0,0.0,0.0,0.0,0.0,-0.0202,-0.0657,-0.0758,-0.101,-0.1465,-0.1566,-0.1617,-0.1617,-0.1617,-0.1617,-0.1617,-0.1617,-0.1617,-0.1617,-0.1617,-0.1606,-0.1584,-0.1606,-0.1605,-0.1584,-0.1584,-0.1596,0.0,0.0,0.0,-0.1617,0.0,0.0,0.0,0.0,-0.1617,0.0,0.0,0.0,0.0,0.0,-0.1667,-0.1667,-0.1667,0.0,0.0,0.0,0.0,0.0,0.0,0.0,0.0,0.0,0.0,0.0,0.0,0.0,0.084,0.238,0.3445,0.4082,0.5727,0.6669,0.6782,0.6934,0.7021,0.7095,0.7095,0.7095,0.7095,0.7095,0.6605,0.563,0.4196,0.3083,0.2104,0.0628,0.0,0.0,0.0,0.0,0.0,0.0,0.0,0.0,0.0,0.0,0.0,0.0,0.0,0.0,0.0,0.0,0.0,0.0,0.0,0.0,0.0,0.0,0.0,0.0,0.0,0.0,0.0,0.0,0.0,0.0,0.0,0.0,0.0,0.0,0.0,0.0,0.0,0.0,0.0,0.0,-0.0101,-0.0404,-0.0657,-0.0909,-0.1212,-0.1465,-0.1617,-0.1617,-0.1617,-0.1617,-0.1617,-0.1617,-0.1617,-0.1617,-0.1617,-0.1616,-0.1615,-0.1616,-0.1616,-0.1615,-0.1615,-0.1615,0.0,0.0,-0.1389,-0.1537,0.0,0.0,0.0,0.0,0.0,0.0,0.0,0.0,0.0,0.0,-0.1647,-0.1647,-0.163,-0.1617,0.0,0.0,0.0,0.0,0.0,0.0,0.0,0.0,0.0,0.0,0.0,0.0,0.0,0.2383,0.3452,0.4092,0.5741,0.6588,0.6555,0.6848,0.6982,0.6925,0.7054,0.7095,0.7095,0.7095,0.6605,0.563,0.4196,0.3083,0.2104,0.0628,0.0,0.0,0.0,0.0,0.0,0.0,0.0,0.0,0.0,0.0,0.0,0.0,0.0,0.0,0.0,0.0,0.0,0.0,0.0,0.0,0.0,0.0,0.0,0.0,0.0,0.0,0.0,0.0,0.0,0.0,0.0,0.0,0.0,0.0,0.0,0.0,0.0,0.0,0.0,0.0,-0.0101,-0.0354,-0.0505,-0.0657,-0.0909,-0.1162,-0.1314,-0.1314,-0.1516,-0.1617,-0.1617,-0.1617,-0.1617,-0.1617,-0.1617,-0.1617,-0.1617,-0.1617,-0.1617,-0.1617,-0.1617,-0.1617,-0.0745,-0.0995,0.0,-0.1251,-0.1318,0.0,-0.1298,0.0,-0.13,0.0,0.0,0.0,0.0,0.0,-0.1361,-0.1404,-0.1337,-0.1326,0.0,-0.1326,0.0,0.0,0.0,0.0,0.0,0.0,0.0,0.0,0.0,0.0,0.0,0.0,0.3357,0.4061,0.5532,0.6372,0.6401,0.6754,0.6894,0.6795,0.701,0.7095,0.7095,0.7095,0.6605,0.563,0.4196,0.3083,0.2104,0.0628,0.0,0.0,0.0,0.0,0.0,0.0,0.0,0.0,0.0,0.0,0.0,0.0,0.0,0.0,0.0,0.0,0.0,0.0,0.0,0.0,0.0,0.0,0.0,0.0,0.0,0.0,0.0,0.0,0.0,0.0,0.0,0.0,0.0,0.0,0.0,0.0,0.0,0.0,0.0,0.0,-0.0051,-0.0253,-0.0354,-0.0505,-0.0758,-0.096,-0.1111,-0.1212,-0.1364,-0.1516,-0.1617,-0.1617,-0.1617,-0.1617,-0.1617,-0.1617,-0.1617,-0.1617,-0.1617,-0.1617,-0.1617,-0.1617]}]]